[[{"header":{"parameterUnit":"m.s-1","parameterCategory":1,"la1":31.0,"la2":29.5877,"lo1":-88.7671,"lo2":-86.6584,"dx":0.0162,"dy":0.0185,"nx":115,"ny":88,"refTime":"2022-11-05T06:00:00:Z","depth":0,"parameterNumber":2,"parameterNumberName":"U-component_of_WINDS"},"data":[0.0,0.0,0.0,0.0,0.0,0.0,0.0,0.0,0.0,0.0,0.0,0.0,0.0,0.0,0.0,0.0,0.0,0.0,0.0,0.0,0.0,0.0,0.0,0.0,0.0,0.0,0.0,0.0,0.0,0.0,0.0,0.0,0.0,0.0,0.0,0.0,0.0,0.0,0.0,0.0,0.0,0.0,0.0,0.0,0.0,0.0,0.0,0.0,0.0,0.0,0.0,0.0,0.0,0.0,0.0,0.0,0.0,0.0,0.0,0.0,0.0,0.0,0.0,0.0,0.0,0.0,0.0,0.0,0.0,0.0,0.0,0.0,0.0,0.0,0.0,0.0,0.0,0.0,0.0,0.0,0.0,0.0,0.0,0.0,0.0,0.0,0.0,0.0,0.0,0.0,0.0,0.0,0.0,0.0,0.0,0.0,0.0,0.0,0.0,0.0,0.0,0.0,0.0,0.0,0.0,0.0,0.0,0.0,0.0,0.0,0.0,0.0,0.0,0.0,0.0,0.0,0.0,0.0,0.0,0.0,0.0,0.0,0.0,0.0,0.0,0.0,0.0,0.0,0.0,0.0,0.0,0.0,0.0,0.0,0.0,0.0,0.0,0.0,0.0,0.0,0.0,0.0,0.0,0.0,0.0,0.0,0.0,0.0,0.0,0.0,0.0,0.0,0.0,0.0,0.0,0.0,0.0,0.0,0.0,0.0,0.0,0.0,0.0,0.0,0.0,0.0,0.0,0.0,0.0,0.0,0.0,0.0,0.0,0.0,0.0,0.0,0.0,0.0,0.0,0.0,0.0,0.0,0.0,0.0,0.0,0.0,0.0,0.0,0.0,0.0,0.0,0.0,0.0,0.0,0.0,0.0,0.0,0.0,0.0,0.0,0.0,0.0,0.0,0.0,0.0,0.0,0.0,0.0,0.0,0.0,0.0,0.0,0.0,0.0,0.0,0.0,0.0,0.0,0.0,0.0,0.0,0.0,0.0,0.0,0.0,0.0,0.0,0.0,0.0,0.0,0.0,0.0,0.0,0.0,0.0,0.0,0.0,0.0,0.0,0.0,0.0,0.0,0.0,0.0,0.0,0.0,0.0,0.0,0.0,0.0,0.0,0.0,0.0,0.0,0.0,0.0,0.0,0.0,0.0,0.0,0.0,0.0,0.0,0.0,0.0,0.0,0.0,0.0,0.0,0.0,0.0,0.0,0.0,0.0,0.0,0.0,0.0,0.0,0.0,0.0,0.0,0.0,0.0,0.0,0.0,0.0,0.0,0.0,0.0,0.0,0.0,0.0,0.0,0.0,0.0,0.0,0.0,0.0,0.0,0.0,0.0,0.0,0.0,0.0,0.0,0.0,0.0,0.0,0.0,0.0,0.0,0.0,0.0,0.0,0.0,0.0,0.0,0.0,0.0,0.0,0.0,0.0,0.0,0.0,0.0,0.0,0.0,0.0,0.0,0.0,0.0,0.0,0.0,0.0,0.0,0.0,0.0,0.0,0.0,0.0,0.0,0.0,0.0,0.0,0.0,0.0,0.0,0.0,0.0,0.0,0.0,0.0,0.0,0.0,0.0,0.0,0.0,0.0,0.0,0.0,0.0,0.0,0.0,0.0,0.0,0.0,0.0,0.0,0.0,0.0,0.0,0.0,0.0,0.0,0.0,0.0,0.0,0.0,0.0,0.0,0.0,0.0,0.0,0.0,0.0,0.0,0.0,0.0,0.0,0.0,0.0,0.0,0.0,0.0,0.0,0.0,0.0,0.0,0.0,0.0,0.0,0.0,0.0,0.0,0.0,0.0,0.0,0.0,0.0,0.0,0.0,0.0,0.0,0.0,0.0,0.0,0.0,0.0,0.0,0.0,0.0,0.0,0.0,0.0,0.0,0.0,0.0,0.0,0.0,0.0,0.0,0.0,0.0,0.0,0.0,0.0,0.0,0.0,0.0,0.0,0.0,0.0,0.0,0.0,0.0,0.0,0.0,0.0,0.0,0.0,0.0,0.0,0.0,0.0,0.0,0.0,0.0,0.0,0.0,0.0,0.0,0.0,0.0,0.0,0.0,0.0,0.0,0.0,0.0,0.0,0.0,0.0,0.0,0.0,0.0,0.0,0.0,0.0,0.0,0.0,0.0,0.0,0.0,0.0,0.0,0.0,0.0,0.0,0.0,0.0,0.0,0.0,0.0,0.0,0.0,0.0,0.0,0.0,0.0,0.0,0.0,0.0,0.0,0.0,0.0,0.0,0.0,0.0,0.0,0.0,0.0,0.0,0.0,0.0,0.0,0.0,0.0,0.0,0.0,0.0,0.0,0.0,0.0,0.0,0.0,0.0,0.0,0.0,0.0,0.0,0.0,0.0,0.0,0.0,0.0,0.0,0.0,0.0,0.0,0.0,0.0,0.0,0.0,0.0,0.0,0.0,0.0,0.0,0.0,0.0,0.0,0.0,0.0,0.0,0.0,0.0,0.0,0.0,0.0,0.0,0.0,0.0,0.0,0.0,0.0,0.0,0.0,0.0,0.0,0.0,0.0,0.0,0.0,0.0,0.0,0.0,0.0,0.0,0.0,0.0,0.0,0.0,0.0,0.0,0.0,0.0,0.0,0.0,0.0,0.0,0.0,0.0,0.0,0.0,0.0,0.0,0.0,0.0,0.0,0.0,0.0,0.0,0.0,0.0,0.0,0.0,0.0,0.0,0.0,0.0,0.0,0.0,0.0,0.0,0.0,0.0,0.0,0.0,0.0,0.0,0.0,0.0,0.0,0.0,0.0,0.0,0.0,0.0,0.0,0.0,0.0,0.0,0.0,0.0,0.0,0.0,0.0,0.0,0.0,0.0,0.0,0.0,0.0,0.0,0.0,0.0,0.0,0.0,0.0,0.0,0.0,0.0,0.0,0.0,0.0,0.0,0.0,0.0,0.0,0.0,0.0,0.0,0.0,0.0,0.0,0.0,0.0,0.0,0.0,0.0,0.0,0.0,0.0,0.0,0.0,0.0,0.0,0.0,0.0,0.0,0.0,0.0,0.0,0.0,0.0,0.0,0.0,0.0,0.0,0.0,0.0,0.0,0.0,0.0,0.0,0.0,0.0,0.0,0.0,0.0,0.0,0.0,0.0,0.0,0.0,0.0,0.0,0.0,0.0,0.0,0.0,0.0,0.0,0.0,0.0,0.0,0.0,0.0,0.0,0.0,0.0,0.0,0.0,0.0,0.0,0.0,0.0,0.0,0.0,0.0,0.0,0.0,0.0,0.0,0.0,0.0,0.0,0.0,0.0,0.0,0.0,0.0,0.0,0.0,0.0,0.0,0.0,0.0,0.0,0.0,0.0,0.0,0.0,0.0,0.0,0.0,0.0,0.0,0.0,0.0,0.0,0.0,0.0,0.0,0.0,0.0,0.0,0.0,0.0,0.0,0.0,0.0,0.0,0.0,0.0,0.0,0.0,0.0,0.0,0.0,0.0,0.0,0.0,0.0,0.0,0.0,0.0,0.0,0.0,0.0,0.0,0.0,0.0,0.0,0.0,0.0,0.0,0.0,0.0,0.0,0.0,0.0,0.0,0.0,0.0,0.0,0.0,0.0,0.0,0.0,0.0,0.0,0.0,0.0,0.0,0.0,0.0,0.0,0.0,0.0,0.0,0.0,0.0,0.0,0.0,0.0,0.0,0.0,0.0,0.0,0.0,0.0,0.0,0.0,0.0,0.0,0.0,0.0,0.0,0.0,0.0,0.0,0.0,0.0,0.0,0.0,0.0,0.0,0.0,0.0,0.0,0.0,0.0,0.0,0.0,0.0,0.0,0.0,0.0,0.0,0.0,0.0,0.0,0.0,0.0,0.0,0.0,0.0,0.0,0.0,0.0,0.0,0.0,0.0,0.0,0.0,0.0,0.0,0.0,0.0,0.0,0.0,0.0,0.0,0.0,0.0,0.0,0.0,0.0,0.0,0.0,0.0,0.0,0.0,0.0,0.0,0.0,0.0,0.0,0.0,0.0,0.0,0.0,0.0,0.0,0.0,0.0,0.0,0.0,0.0,0.0,0.0,0.0,0.0,0.0,0.0,0.0,0.0,0.0,0.0,0.0,0.0,0.0,0.0,0.0,0.0,0.0,0.0,0.0,0.0,0.0,0.0,0.0,0.0,0.0,0.0,0.0,0.0,0.0,0.0,0.0,0.0,0.0,0.0,0.0,0.0,0.0,0.0,0.0,0.0,0.0,0.0,0.0,0.0,0.0,0.0,0.0,0.0,0.0,0.0,0.0,0.0,1.5337,0.0,0.0,0.0,1.541,0.0,0.0,0.0,0.0,0.0,0.0,0.0,0.0,0.0,0.0,0.0,0.0,0.0,0.0,0.0,0.0,0.0,0.0,0.0,0.0,0.0,0.0,0.0,0.0,0.0,0.0,0.0,0.0,0.0,0.0,0.0,0.0,0.0,0.0,0.0,0.0,0.0,0.0,0.0,0.0,0.0,0.0,0.0,0.0,0.0,0.0,0.0,0.0,0.0,0.0,0.0,0.0,0.0,0.0,0.0,0.0,0.0,0.0,0.0,0.0,0.0,0.0,0.0,0.0,0.0,0.0,0.0,0.0,0.0,0.0,0.0,0.0,0.0,0.0,0.0,0.0,0.0,0.0,0.0,0.0,0.0,0.0,0.0,0.0,0.0,0.0,0.0,0.0,0.0,0.0,0.0,0.0,0.0,0.0,0.0,0.0,0.0,0.0,0.0,0.0,0.0,0.0,0.0,0.0,0.0,0.0,0.0,0.0,0.0,0.0,1.5791,1.5777,1.5981,1.6,1.5777,0.0,0.0,0.0,0.0,0.0,0.0,0.0,0.0,0.0,0.0,0.0,0.0,0.0,0.0,0.0,0.0,0.0,0.0,0.0,0.0,0.0,0.0,0.0,0.0,0.0,0.0,0.0,0.0,0.0,0.0,0.0,0.0,0.0,0.0,0.0,0.0,0.0,0.0,0.0,0.0,0.0,0.0,0.0,0.0,0.0,0.0,0.0,0.0,0.0,0.0,0.0,0.0,0.0,0.0,0.0,0.0,0.0,0.0,0.0,0.0,0.0,0.0,0.0,0.0,0.0,0.0,0.0,0.0,0.0,0.0,0.0,0.0,0.0,0.0,0.0,0.0,0.0,0.0,0.0,0.0,0.0,0.0,0.0,0.0,0.0,0.0,0.0,0.0,0.0,0.0,0.0,0.0,0.0,0.0,0.0,0.0,0.0,0.0,0.0,0.0,0.0,0.0,0.0,0.0,0.0,0.0,0.0,0.0,0.0,0.0,0.0,0.0,1.6527,1.6523,1.6105,0.0,0.0,0.0,0.0,0.0,0.0,0.0,0.0,0.0,0.0,0.0,0.0,0.0,0.0,0.0,0.0,0.0,0.0,0.0,0.0,0.0,0.0,0.0,0.0,0.0,0.0,0.0,0.0,0.0,0.0,0.0,0.0,0.0,0.0,0.0,0.0,0.0,0.0,0.0,0.0,0.0,0.0,0.0,0.0,0.0,0.0,0.0,0.0,0.0,0.0,0.0,0.0,0.0,0.0,0.0,0.0,0.0,0.0,0.0,0.0,0.0,0.0,0.0,0.0,0.0,0.0,0.0,0.0,0.0,0.0,0.0,0.0,0.0,0.0,0.0,0.0,0.0,0.0,0.0,0.0,0.0,0.0,0.0,0.0,0.0,0.0,0.0,0.0,0.0,0.0,0.0,0.0,0.0,0.0,0.0,0.0,0.0,0.0,0.0,0.0,0.0,0.0,0.0,0.0,0.0,0.0,0.0,0.0,0.0,0.0,1.6265,1.6629,1.6687,0.0,1.6124,0.0,0.0,0.0,0.0,0.0,0.0,0.0,0.0,0.0,0.0,0.0,0.0,0.0,0.0,0.0,0.0,0.0,0.0,0.0,0.0,0.0,0.0,0.0,0.0,0.0,0.0,0.0,0.0,0.0,0.0,0.0,0.0,0.0,0.0,0.0,0.0,0.0,0.0,0.0,0.0,0.0,0.0,0.0,0.0,0.0,0.0,0.0,0.0,0.0,0.0,0.0,0.0,0.0,0.0,0.0,0.0,0.0,0.0,0.0,0.0,0.0,0.0,0.0,0.0,0.0,0.0,0.0,0.0,0.0,0.0,0.0,0.0,0.0,0.0,0.0,0.0,0.0,0.0,0.0,0.0,0.0,0.0,0.0,0.0,0.0,0.0,0.0,0.0,0.0,0.0,0.0,0.0,0.0,0.0,0.0,0.0,0.0,0.0,0.0,0.0,0.0,0.0,0.0,0.0,0.0,0.0,0.0,0.0,0.0,0.0,1.695,1.7109,1.7129,1.7047,0.0,0.0,0.0,0.0,0.0,0.0,0.0,0.0,0.0,0.0,0.0,0.0,0.0,0.0,0.0,0.0,0.0,0.0,0.0,0.0,0.0,0.0,0.0,0.0,0.0,0.0,0.0,0.0,0.0,0.0,0.0,0.0,0.0,0.0,0.0,0.0,0.0,0.0,0.0,0.0,0.0,0.0,0.0,0.0,0.0,0.0,0.0,0.0,0.0,0.0,0.0,0.0,0.0,0.0,0.0,0.0,0.0,0.0,0.0,0.0,0.0,0.0,0.0,0.0,0.0,0.0,0.0,0.0,0.0,0.0,0.0,0.0,0.0,0.0,0.0,0.0,0.0,0.0,0.0,0.0,0.0,0.0,0.0,0.0,0.0,0.0,0.0,0.0,0.0,0.0,0.0,0.0,0.0,0.0,0.0,0.0,0.0,0.0,0.0,0.0,0.0,0.0,0.0,0.0,0.0,0.0,0.0,0.0,0.0,0.0,1.7184,1.7692,1.7891,1.781,1.7676,1.7559,0.0,0.0,0.0,0.0,0.0,0.0,0.0,0.0,0.0,0.0,0.0,0.0,0.0,0.0,0.0,0.0,0.0,0.0,0.0,0.0,0.0,0.0,0.0,0.0,0.0,0.0,0.0,0.0,0.0,0.0,0.0,0.0,0.0,0.0,0.0,0.0,0.0,0.0,0.0,0.0,0.0,0.0,0.0,0.0,0.0,0.0,0.0,0.0,0.0,0.0,0.0,0.0,0.0,0.0,0.0,0.0,0.0,0.0,0.0,0.0,0.0,0.0,0.0,0.0,0.0,0.0,0.0,0.0,0.0,0.0,0.0,0.0,0.0,0.0,0.0,0.0,0.0,0.0,0.0,0.0,0.0,0.0,0.0,0.0,0.0,0.0,0.0,0.0,0.0,0.0,0.0,0.0,0.0,0.0,0.0,0.0,0.0,0.0,0.0,0.0,0.0,0.0,0.0,0.0,0.0,0.0,0.0,0.0,1.7301,1.7754,1.8379,1.9141,1.8771,1.8364,0.0,0.0,0.0,0.0,0.0,0.0,0.0,0.0,0.0,0.0,0.0,0.0,0.0,0.0,0.0,0.0,0.0,0.0,0.0,0.0,0.0,0.0,0.0,0.0,0.0,0.0,0.0,0.0,0.0,0.0,0.0,0.0,0.0,0.0,0.0,0.0,0.0,0.0,0.0,0.0,0.0,0.0,0.0,0.0,0.0,0.0,0.0,0.0,0.0,0.0,0.0,0.0,0.0,0.0,0.0,0.0,0.0,0.0,0.0,0.0,0.0,0.0,0.0,0.0,0.0,0.0,0.0,0.0,0.0,0.0,0.0,0.0,0.0,0.0,0.0,0.0,0.0,0.0,0.0,0.0,0.0,0.0,0.0,0.0,0.0,0.0,0.0,0.0,0.0,0.0,0.0,0.0,0.0,0.0,0.0,0.0,0.0,0.0,0.0,0.0,0.0,0.0,0.0,0.0,0.0,0.0,0.0,0.0,0.0,1.7773,1.8477,1.8965,1.9296,1.9141,1.883,0.0,0.0,0.0,0.0,0.0,0.0,0.0,0.0,0.0,0.0,0.0,0.0,0.0,0.0,0.0,0.0,0.0,0.0,0.0,0.0,0.0,0.0,0.0,0.0,0.0,0.0,0.0,0.0,0.0,0.0,0.0,0.0,0.0,0.0,0.0,0.0,0.0,0.0,0.0,0.0,0.0,0.0,0.0,0.0,0.0,0.0,0.0,0.0,0.0,0.0,0.0,0.0,0.0,0.0,0.0,0.0,0.0,0.0,0.0,0.0,0.0,0.0,0.0,0.0,0.0,0.0,0.0,0.0,0.0,0.0,0.0,0.0,0.0,0.0,0.0,0.0,0.0,0.0,0.0,0.0,0.0,0.0,0.0,0.0,0.0,0.0,0.0,0.0,0.0,0.0,0.0,0.0,0.0,0.0,0.0,0.0,0.0,0.0,0.0,0.0,0.0,0.0,0.0,0.0,0.0,0.0,0.0,0.0,0.0,1.8596,1.9354,1.9707,1.9726,1.9726,1.9492,0.0,0.0,0.0,0.0,0.0,0.0,0.0,0.0,0.0,0.0,0.0,0.0,0.0,0.0,0.0,0.0,0.0,0.0,0.0,0.0,0.0,0.0,0.0,0.0,0.0,0.0,0.0,0.0,0.0,0.0,0.0,0.0,0.0,0.0,0.0,0.0,0.0,0.0,0.0,0.0,0.0,0.0,0.0,0.0,0.0,0.0,0.0,0.0,0.0,0.0,0.0,0.0,0.0,0.0,0.0,0.0,0.0,0.0,0.0,0.0,0.0,0.0,0.0,0.0,0.0,0.0,0.0,0.0,0.0,0.0,0.0,0.0,0.0,0.0,0.0,0.0,0.0,0.0,0.0,0.0,0.0,0.0,0.0,0.0,0.0,0.0,0.0,0.0,0.0,0.0,0.0,0.0,0.0,0.0,0.0,0.0,0.0,0.0,0.0,0.0,0.0,0.0,0.0,0.0,0.0,0.0,0.0,0.0,1.8652,1.9844,2.0351,2.0605,2.0625,2.0566,2.0371,0.0,0.0,0.0,0.0,0.0,0.0,0.0,0.0,0.0,0.0,0.0,0.0,0.0,0.0,0.0,0.0,0.0,0.0,0.0,0.0,0.0,0.0,0.0,0.0,0.0,0.0,0.0,0.0,0.0,0.0,0.0,0.0,0.0,0.0,0.0,0.0,0.0,0.0,0.0,0.0,0.0,0.0,0.0,0.0,0.0,0.0,0.0,0.0,0.0,0.0,0.0,0.0,0.0,0.0,0.0,0.0,0.0,0.0,0.0,0.0,0.0,0.0,0.0,0.0,0.0,0.0,0.0,0.0,0.0,0.0,0.0,0.0,0.0,0.0,0.0,0.0,0.0,0.0,0.0,0.0,0.0,0.0,0.0,0.0,0.0,0.0,0.0,0.0,0.0,0.0,0.0,0.0,0.0,0.0,0.0,0.0,0.0,0.0,0.0,0.0,0.0,0.0,0.0,0.0,0.0,0.0,0.0,0.0,0.0,2.0371,2.1114,2.1505,2.1485,2.1172,2.082,0.0,0.0,0.0,0.0,0.0,0.0,0.0,0.0,0.0,0.0,0.0,0.0,0.0,0.0,0.0,0.0,0.0,0.0,0.0,0.0,0.0,0.0,0.0,0.0,0.0,0.0,0.0,0.0,0.0,0.0,0.0,0.0,0.0,0.0,0.0,0.0,0.0,0.0,0.0,0.0,0.0,0.0,0.0,0.0,0.0,0.0,0.0,0.0,0.0,0.0,0.0,0.0,0.0,0.0,0.0,0.0,0.0,0.0,0.0,0.0,0.0,0.0,0.0,0.0,0.0,0.0,0.0,0.0,0.0,0.0,0.0,0.0,0.0,0.0,0.0,0.0,0.0,0.0,0.0,0.0,0.0,0.0,0.0,0.0,0.0,0.0,0.0,0.0,0.0,0.0,0.0,0.0,0.0,0.0,0.0,0.0,0.0,0.0,0.0,0.0,0.0,0.0,0.0,0.0,0.0,0.0,0.0,0.0,0.0,2.1584,2.1935,2.2051,2.1915,2.1757,2.1405,2.084,0.0,0.0,0.0,0.0,0.0,0.0,0.0,0.0,0.0,0.0,0.0,0.0,0.0,0.0,0.0,0.0,0.0,0.0,0.0,0.0,0.0,0.0,0.0,0.0,0.0,0.0,0.0,0.0,0.0,0.0,0.0,0.0,0.0,0.0,0.0,0.0,0.0,0.0,0.0,0.0,0.0,0.0,0.0,0.0,0.0,0.0,0.0,0.0,0.0,0.0,0.0,0.0,0.0,0.0,0.0,0.0,0.0,0.0,0.0,0.0,0.0,0.0,0.0,0.0,0.0,0.0,0.0,0.0,0.0,0.0,0.0,0.0,0.0,0.0,0.0,0.0,0.0,0.0,0.0,0.0,0.0,0.0,0.0,0.0,0.0,0.0,0.0,0.0,0.0,0.0,0.0,0.0,0.0,0.0,0.0,0.0,0.0,0.0,0.0,0.0,0.0,0.0,0.0,0.0,0.0,0.0,0.0,0.0,2.3264,2.2832,2.2461,2.207,2.2383,2.2147,0.0,0.0,0.0,0.0,0.0,0.0,0.0,0.0,0.0,0.0,0.0,0.0,0.0,0.0,0.0,0.0,0.0,0.0,0.0,0.0,0.0,0.0,0.0,0.0,0.0,0.0,0.0,0.0,0.0,0.0,0.0,0.0,0.0,0.0,0.0,0.0,0.0,0.0,0.0,0.0,0.0,0.0,0.0,0.0,0.0,0.0,0.0,0.0,0.0,0.0,0.0,0.0,0.0,0.0,0.0,0.0,0.0,0.0,0.0,0.0,0.0,0.0,0.0,0.0,0.0,0.0,0.0,0.0,0.0,0.0,0.0,0.0,0.0,0.0,0.0,0.0,0.0,0.0,0.0,0.0,0.0,0.0,0.0,0.0,0.0,0.0,0.0,0.0,0.0,0.0,0.0,0.0,0.0,0.0,0.0,0.0,0.0,0.0,0.0,0.0,0.0,0.0,0.0,0.0,0.0,0.0,0.0,0.0,0.0,2.4043,2.3984,2.3845,2.375,2.324,2.2828,0.0,0.0,0.0,0.0,0.0,0.0,0.0,0.0,0.0,0.0,0.0,0.0,0.0,0.0,0.0,0.0,0.0,0.0,0.0,0.0,0.0,0.0,0.0,0.0,0.0,0.0,0.0,0.0,0.0,0.0,0.0,0.0,0.0,0.0,0.0,0.0,0.0,0.0,0.0,0.0,0.0,0.0,0.0,0.0,0.0,0.0,0.0,0.0,0.0,0.0,0.0,0.0,0.0,0.0,0.0,0.0,0.0,0.0,0.0,0.0,0.0,0.0,0.0,0.0,0.0,0.0,0.0,0.0,0.0,0.0,0.0,0.0,0.0,0.0,0.0,0.0,0.0,0.0,0.0,0.0,0.0,0.0,0.0,0.0,0.0,0.0,0.0,0.0,0.0,0.0,0.0,0.0,0.0,0.0,0.0,0.0,0.0,0.0,0.0,0.0,0.0,0.0,0.0,0.0,0.0,0.0,0.0,0.0,2.4079,2.4937,2.4957,2.5035,2.5254,2.4196,2.3474,0.0,0.0,0.0,0.0,0.0,0.0,0.0,0.0,0.0,0.0,0.0,0.0,0.0,0.0,0.0,0.0,0.0,0.0,0.0,0.0,0.0,0.0,0.0,0.0,0.0,0.0,0.0,0.0,0.0,0.0,0.0,0.0,0.0,0.0,0.0,0.0,0.0,0.0,0.0,0.0,0.0,0.0,0.0,0.0,0.0,0.0,0.0,0.0,0.0,0.0,0.0,0.0,0.0,0.0,0.0,0.0,0.0,0.0,0.0,0.0,0.0,0.0,0.0,0.0,0.0,0.0,0.0,0.0,0.0,0.0,0.0,0.0,0.0,0.0,0.0,0.0,0.0,0.0,0.0,0.0,0.0,0.0,0.0,0.0,0.0,0.0,0.0,0.0,0.0,0.0,0.0,0.0,0.0,0.0,0.0,0.0,0.0,0.0,0.0,0.0,0.0,0.0,0.0,0.0,0.0,0.0,0.0,0.0,2.4937,2.5732,2.5835,2.603,2.6406,2.5176,2.4121,0.0,0.0,0.0,0.0,0.0,0.0,0.0,0.0,0.0,0.0,0.0,0.0,0.0,0.0,0.0,0.0,0.0,0.0,0.0,0.0,0.0,0.0,0.0,0.0,0.0,0.0,0.0,0.0,0.0,0.0,0.0,0.0,0.0,0.0,0.0,0.0,0.0,0.0,0.0,0.0,0.0,0.0,0.0,0.0,0.0,0.0,0.0,0.0,0.0,0.0,0.0,0.0,0.0,0.0,0.0,0.0,0.0,0.0,0.0,0.0,0.0,0.0,0.0,0.0,0.0,0.0,0.0,0.0,0.0,0.0,0.0,0.0,0.0,0.0,0.0,0.0,0.0,0.0,0.0,0.0,0.0,0.0,0.0,0.0,0.0,0.0,0.0,0.0,0.0,0.0,0.0,0.0,0.0,0.0,0.0,0.0,0.0,0.0,0.0,0.0,0.0,0.0,0.0,0.0,0.0,0.0,0.0,0.0,2.5679,2.623,2.6582,2.6752,2.685,2.5625,2.4711,0.0,0.0,0.0,0.0,0.0,0.0,0.0,0.0,0.0,0.0,0.0,0.0,0.0,0.0,0.0,0.0,0.0,0.0,0.0,0.0,0.0,0.0,0.0,0.0,0.0,0.0,0.0,0.0,0.0,0.0,0.0,0.0,0.0,0.0,0.0,0.0,0.0,0.0,0.0,0.0,0.0,0.0,0.0,0.0,0.0,0.0,0.0,0.0,2.4414,0.0,0.0,0.0,0.0,0.0,0.0,0.0,0.0,0.0,0.0,0.0,0.0,0.0,0.0,0.0,0.0,0.0,0.0,0.0,0.0,0.0,0.0,0.0,0.0,0.0,0.0,0.0,0.0,0.0,0.0,0.0,0.0,0.0,0.0,0.0,0.0,0.0,0.0,0.0,0.0,0.0,0.0,0.0,0.0,0.0,0.0,0.0,0.0,0.0,0.0,0.0,0.0,0.0,0.0,0.0,0.0,0.0,0.0,0.0,2.6108,2.6979,2.7012,2.7109,2.7266,2.6294,2.5512,0.0,0.0,0.0,0.0,0.0,0.0,0.0,0.0,0.0,0.0,0.0,0.0,0.0,0.0,0.0,0.0,0.0,0.0,0.0,0.0,0.0,0.0,0.0,0.0,0.0,0.0,0.0,0.0,0.0,0.0,0.0,0.0,0.0,0.0,0.0,0.0,0.0,0.0,0.0,0.0,0.0,0.0,0.0,0.0,0.0,0.0,0.0,0.0,0.0,0.0,0.0,0.0,0.0,0.0,0.0,0.0,0.0,0.0,0.0,0.0,0.0,0.0,0.0,0.0,0.0,0.0,0.0,0.0,0.0,0.0,0.0,0.0,0.0,0.0,0.0,0.0,0.0,0.0,0.0,0.0,0.0,0.0,0.0,0.0,0.0,0.0,0.0,0.0,0.0,0.0,0.0,0.0,0.0,0.0,0.0,0.0,0.0,0.0,0.0,0.0,0.0,0.0,0.0,0.0,0.0,0.0,0.0,2.5644,2.6459,2.7624,2.7363,2.7383,2.7761,2.7018,2.6367,2.5893,0.0,0.0,0.0,0.0,0.0,0.0,0.0,0.0,0.0,0.0,0.0,0.0,0.0,0.0,0.0,0.0,0.0,0.0,0.0,0.0,0.0,0.0,0.0,0.0,0.0,0.0,0.0,0.0,0.0,0.0,0.0,0.0,0.0,0.0,0.0,0.0,0.0,0.0,2.2637,2.3848,0.0,0.0,0.0,0.0,0.0,0.0,0.0,0.0,2.6381,0.0,0.0,0.0,0.0,0.0,0.0,0.0,0.0,0.0,0.0,0.0,0.0,0.0,0.0,0.0,0.0,0.0,0.0,0.0,0.0,0.0,0.0,0.0,0.0,0.0,0.0,0.0,0.0,0.0,0.0,0.0,0.0,0.0,0.0,0.0,0.0,0.0,0.0,0.0,0.0,0.0,0.0,0.0,0.0,0.0,0.0,0.0,0.0,0.0,0.0,0.0,0.0,0.0,0.0,0.0,0.0,2.5106,2.6211,2.709,2.7682,2.793,2.8125,2.8164,2.7741,2.7291,2.6752,0.0,0.0,0.0,0.0,0.0,0.0,0.0,0.0,0.0,0.0,0.0,0.0,0.0,0.0,0.0,0.0,0.0,0.0,0.0,0.0,0.0,0.0,0.0,0.0,0.0,0.0,0.0,0.0,0.0,0.0,0.0,0.0,0.0,0.0,0.0,0.0,0.0,0.0,0.0,2.4898,2.562,0.0,0.0,0.0,0.0,0.0,0.0,0.0,0.0,2.6758,0.0,0.0,0.0,0.0,0.0,0.0,0.0,0.0,0.0,0.0,0.0,0.0,0.0,0.0,0.0,0.0,0.0,0.0,0.0,0.0,0.0,0.0,0.0,0.0,0.0,0.0,0.0,0.0,0.0,0.0,0.0,0.0,0.0,0.0,0.0,0.0,0.0,0.0,0.0,0.0,0.0,0.0,0.0,0.0,0.0,0.0,0.0,0.0,0.0,0.0,0.0,0.0,0.0,0.0,0.0,2.5786,2.7031,2.7891,2.8301,2.873,2.8875,2.8613,2.8223,2.7695,0.0,0.0,0.0,0.0,0.0,0.0,0.0,0.0,0.0,0.0,0.0,0.0,0.0,0.0,0.0,0.0,0.0,0.0,0.0,0.0,0.0,0.0,0.0,0.0,0.0,0.0,0.0,0.0,0.0,0.0,0.0,0.0,0.0,0.0,0.0,0.0,0.0,0.0,0.0,0.0,2.564,2.6309,2.6979,0.0,0.0,0.0,0.0,0.0,0.0,2.7969,2.7676,0.0,0.0,0.0,0.0,0.0,0.0,0.0,0.0,0.0,0.0,0.0,0.0,0.0,0.0,0.0,0.0,0.0,0.0,0.0,0.0,0.0,0.0,0.0,0.0,0.0,0.0,0.0,0.0,0.0,0.0,0.0,0.0,0.0,0.0,0.0,0.0,0.0,0.0,0.0,0.0,0.0,0.0,0.0,0.0,0.0,0.0,0.0,0.0,0.0,0.0,0.0,0.0,0.0,0.0,0.0,2.6504,2.7695,2.8535,2.9023,2.9394,2.9442,2.9062,2.8652,2.8066,0.0,0.0,0.0,0.0,0.0,0.0,0.0,0.0,0.0,0.0,0.0,0.0,0.0,0.0,0.0,0.0,0.0,0.0,0.0,0.0,0.0,0.0,0.0,0.0,0.0,0.0,0.0,0.0,0.0,0.0,0.0,0.0,0.0,0.0,0.0,0.0,0.0,0.0,0.0,0.0,0.0,2.7076,2.7839,2.8308,0.0,0.0,0.0,0.0,2.9598,2.9004,0.0,0.0,0.0,0.0,0.0,0.0,0.0,0.0,0.0,0.0,0.0,0.0,0.0,0.0,0.0,0.0,0.0,0.0,0.0,0.0,0.0,0.0,0.0,0.0,0.0,0.0,0.0,0.0,0.0,0.0,0.0,0.0,0.0,0.0,0.0,0.0,0.0,0.0,0.0,0.0,0.0,0.0,0.0,0.0,0.0,0.0,0.0,0.0,0.0,0.0,0.0,0.0,0.0,0.0,0.0,0.0,2.6914,2.7832,2.8718,2.9481,2.9579,2.9579,2.952,2.9062,2.8633,0.0,0.0,0.0,0.0,0.0,0.0,0.0,0.0,0.0,0.0,0.0,0.0,0.0,0.0,0.0,0.0,0.0,0.0,0.0,0.0,0.0,0.0,0.0,0.0,0.0,0.0,0.0,0.0,0.0,0.0,0.0,0.0,0.0,0.0,0.0,0.0,0.0,0.0,0.0,0.0,0.0,2.8242,2.8711,2.9168,2.9481,0.0,0.0,2.9598,2.9598,2.95,0.0,0.0,0.0,0.0,0.0,0.0,0.0,0.0,0.0,0.0,0.0,0.0,0.0,0.0,0.0,0.0,0.0,0.0,0.0,0.0,0.0,0.0,0.0,0.0,0.0,0.0,0.0,0.0,0.0,0.0,0.0,0.0,0.0,0.0,0.0,0.0,0.0,0.0,0.0,0.0,0.0,0.0,0.0,0.0,0.0,0.0,0.0,0.0,0.0,0.0,0.0,0.0,0.0,0.0,0.0,2.6094,2.7389,2.8484,2.9344,2.9931,3.0204,3.0195,2.995,2.9746,2.9219,0.0,0.0,0.0,0.0,0.0,0.0,0.0,0.0,0.0,0.0,0.0,0.0,0.0,0.0,0.0,0.0,0.0,0.0,0.0,0.0,0.0,0.0,0.0,0.0,0.0,0.0,0.0,0.0,0.0,0.0,0.0,0.0,0.0,0.0,0.0,0.0,0.0,0.0,0.0,0.0,0.0,0.0,2.9941,3.041,0.0,0.0,0.0,3.1064,3.1064,0.0,0.0,0.0,0.0,0.0,0.0,0.0,0.0,0.0,0.0,0.0,0.0,0.0,0.0,0.0,0.0,0.0,0.0,0.0,0.0,0.0,0.0,0.0,0.0,0.0,0.0,0.0,0.0,0.0,0.0,0.0,0.0,0.0,0.0,0.0,0.0,0.0,0.0,0.0,0.0,0.0,0.0,0.0,0.0,0.0,0.0,0.0,0.0,0.0,0.0,0.0,0.0,0.0,0.0,0.0,0.0,0.0,2.7995,2.9285,3.0126,3.0527,3.1006,3.0996,3.0547,3.043,0.0,0.0,0.0,0.0,0.0,0.0,0.0,0.0,0.0,0.0,0.0,0.0,0.0,0.0,0.0,0.0,0.0,0.0,0.0,0.0,0.0,0.0,0.0,0.0,0.0,0.0,0.0,2.0352,0.0,0.0,0.0,0.0,0.0,0.0,0.0,0.0,0.0,0.0,0.0,0.0,0.0,0.0,3.0282,3.123,3.1641,3.1992,0.0,0.0,3.2511,3.2511,3.2129,3.1806,0.0,0.0,0.0,0.0,0.0,0.0,0.0,0.0,0.0,0.0,0.0,0.0,0.0,0.0,0.0,0.0,0.0,0.0,0.0,0.0,0.0,0.0,0.0,0.0,0.0,0.0,0.0,0.0,0.0,0.0,0.0,0.0,0.0,0.0,0.0,0.0,0.0,0.0,0.0,0.0,0.0,0.0,0.0,0.0,0.0,0.0,0.0,0.0,0.0,0.0,0.0,0.0,0.0,0.0,2.7532,2.8801,3.0137,3.0996,3.1426,3.1855,3.1905,3.1416,3.1035,3.0439,0.0,0.0,0.0,0.0,0.0,0.0,0.0,0.0,0.0,0.0,0.0,0.0,0.0,0.0,0.0,0.0,0.0,0.0,0.0,0.0,0.0,0.0,0.0,0.0,0.0,0.0,0.0,0.0,0.0,0.0,0.0,0.0,0.0,0.0,0.0,0.0,0.0,0.0,0.0,0.0,0.0,3.125,3.25,3.2695,3.2851,0.0,3.334,3.334,3.3308,3.2988,3.2715,3.2715,0.0,0.0,0.0,0.0,0.0,0.0,0.0,0.0,0.0,0.0,0.0,0.0,0.0,0.0,0.0,0.0,0.0,0.0,0.0,0.0,0.0,0.0,0.0,0.0,0.0,0.0,0.0,0.0,0.0,0.0,0.0,0.0,0.0,0.0,0.0,0.0,0.0,0.0,0.0,0.0,0.0,0.0,0.0,0.0,0.0,0.0,0.0,0.0,0.0,0.0,0.0,0.0,0.0,2.7773,2.9297,3.0351,3.123,3.1925,3.212,3.212,3.1914,3.1788,3.1269,0.0,0.0,0.0,0.0,0.0,0.0,0.0,0.0,0.0,0.0,0.0,0.0,0.0,0.0,0.0,0.0,0.0,0.0,0.0,0.0,0.0,0.0,0.0,0.0,0.0,0.0,0.0,0.0,2.3948,2.4633,2.5312,0.0,0.0,0.0,0.0,0.0,0.0,0.0,0.0,0.0,0.0,3.2606,3.3105,3.3633,0.0,0.0,3.4219,3.4199,3.4219,3.4062,3.3965,3.3965,3.3665,0.0,0.0,0.0,0.0,0.0,0.0,0.0,0.0,0.0,0.0,0.0,0.0,0.0,0.0,0.0,0.0,0.0,0.0,0.0,0.0,0.0,0.0,0.0,0.0,0.0,0.0,0.0,0.0,0.0,0.0,0.0,0.0,0.0,0.0,0.0,0.0,0.0,0.0,0.0,0.0,0.0,0.0,0.0,0.0,0.0,0.0,0.0,0.0,0.0,0.0,0.0,0.0,2.8379,2.9989,3.082,3.171,3.2539,3.2707,3.2707,3.2589,3.257,3.209,0.0,0.0,0.0,0.0,0.0,0.0,0.0,0.0,0.0,0.0,0.0,0.0,0.0,0.0,0.0,0.0,0.0,0.0,0.0,0.0,0.0,0.0,0.0,0.0,0.0,0.0,0.0,0.0,2.516,2.5937,2.6705,0.0,0.0,0.0,0.0,0.0,0.0,0.0,0.0,0.0,0.0,3.3887,3.4128,3.4824,3.5332,3.5449,3.5488,3.5469,3.5469,3.5371,3.5293,3.5293,0.0,0.0,0.0,0.0,0.0,0.0,0.0,0.0,0.0,0.0,0.0,0.0,0.0,0.0,0.0,0.0,0.0,0.0,0.0,0.0,0.0,0.0,0.0,0.0,0.0,0.0,0.0,1.9744,0.0,0.0,1.9763,0.0,0.0,0.0,0.0,0.0,0.0,0.0,0.0,0.0,0.0,0.0,0.0,0.0,0.0,0.0,0.0,0.0,0.0,0.0,0.0,0.0,0.0,2.9531,3.0869,3.1729,3.2589,3.3328,3.384,3.3809,3.3418,3.3367,3.2781,3.1533,0.0,0.0,0.0,0.0,0.0,0.0,0.0,0.0,0.0,0.0,0.0,0.0,0.0,0.0,0.0,0.0,0.0,0.0,0.0,0.0,0.0,0.0,0.0,0.0,0.0,0.0,2.562,2.644,2.7168,0.0,0.0,0.0,0.0,0.0,0.0,0.0,0.0,0.0,3.3152,3.4121,3.5,3.582,3.6348,3.6758,3.7168,3.7226,3.7226,3.7226,3.6894,3.6675,0.0,0.0,0.0,0.0,0.0,0.0,0.0,0.0,0.0,0.0,0.0,0.0,0.0,0.0,0.0,0.0,0.0,0.0,0.0,0.0,0.0,0.0,0.0,0.0,0.0,0.0,0.0,2.2189,2.2065,0.0,0.0,0.0,0.0,0.0,0.0,0.0,0.0,0.0,0.0,0.0,2.6147,2.7031,0.0,0.0,0.0,0.0,0.0,0.0,0.0,0.0,0.0,0.0,0.0,0.0,3.0273,3.1309,3.2422,3.3281,3.3848,3.4277,3.4414,3.4277,3.4277,3.3672,3.2402,0.0,0.0,0.0,0.0,0.0,0.0,0.0,0.0,0.0,0.0,0.0,0.0,0.0,0.0,0.0,0.0,0.0,0.0,0.0,0.0,0.0,0.0,0.0,0.0,0.0,2.6576,0.0,0.0,0.0,0.0,0.0,0.0,0.0,0.0,0.0,0.0,0.0,3.3144,3.4141,3.4986,3.5898,3.6758,3.7226,3.7656,0.0,0.0,0.0,0.0,0.0,0.0,0.0,0.0,0.0,0.0,0.0,0.0,0.0,0.0,3.6484,3.5351,3.5123,3.5103,3.5137,0.0,0.0,0.0,0.0,0.0,0.0,0.0,0.0,0.0,0.0,0.0,0.0,0.0,0.0,2.453,2.4385,2.4385,0.0,0.0,0.0,0.0,0.0,0.0,0.0,0.0,2.7363,2.7891,2.793,2.8789,2.9199,0.0,2.9199,2.8613,0.0,0.0,0.0,0.0,0.0,0.0,0.0,0.0,3.1152,3.2137,3.2957,3.3789,3.4512,3.4805,3.4941,3.4941,3.4785,3.416,3.3047,3.2207,3.123,0.0,0.0,0.0,0.0,0.0,0.0,0.0,0.0,0.0,0.0,0.0,0.0,0.0,0.0,0.0,0.0,0.0,0.0,0.0,0.0,0.0,0.0,0.0,2.8359,0.0,0.0,0.0,0.0,0.0,0.0,0.0,0.0,0.0,3.3078,3.3672,3.4473,3.5469,3.6348,3.7168,3.7871,0.0,0.0,0.0,0.0,0.0,0.0,0.0,3.9043,3.908,3.9043,3.9023,3.9023,3.908,3.9023,3.908,0.0,0.0,3.7168,3.6914,3.6914,3.6914,3.6914,3.6964,3.7173,3.7917,3.8599,0.0,0.0,0.0,0.0,0.0,0.0,0.0,0.0,2.7348,2.7099,0.0,2.6705,0.0,0.0,0.0,0.0,2.7051,2.709,0.0,0.0,2.9246,2.9657,2.9735,3.0527,3.0986,3.0976,3.0957,3.0957,3.0859,2.9305,0.0,0.0,0.0,0.0,0.0,0.0,3.2157,3.3347,3.3484,3.4141,3.5351,3.5449,3.5469,3.5469,3.5,3.4375,3.3542,3.3425,3.2676,3.1055,3.0508,0.0,0.0,0.0,0.0,0.0,0.0,0.0,0.0,0.0,0.0,0.0,0.0,0.0,0.0,0.0,0.0,0.0,0.0,0.0,0.0,2.9168,0.0,0.0,0.0,0.0,0.0,0.0,0.0,0.0,0.0,0.0,3.4844,3.5195,3.5918,3.7168,0.0,0.0,0.0,0.0,3.9941,3.998,3.998,3.998,3.998,4.0,3.998,4.0,0.0,0.0,3.998,3.998,4.0,3.998,4.0019,3.9707,3.8867,3.8708,3.8669,3.8689,3.8689,3.8652,3.8747,3.9353,3.9959,2.9834,0.0,0.0,0.0,0.0,2.9233,2.9233,2.9208,2.9208,2.9125,2.9021,2.9021,0.0,0.0,0.0,0.0,0.0,0.0,2.9344,3.0156,3.0703,3.1133,3.1475,3.1992,3.2402,3.2664,3.2664,3.2664,3.2676,3.2207,3.1377,3.0351,0.0,0.0,0.0,0.0,3.3223,3.3887,3.4805,3.5416,3.5806,3.6426,3.6758,3.6738,3.6035,3.5494,3.524,3.4375,3.3516,3.2703,3.1992,0.0,0.0,0.0,0.0,0.0,0.0,0.0,0.0,0.0,0.0,0.0,0.0,0.0,0.0,0.0,0.0,0.0,0.0,0.0,3.0488,3.1123,3.167,0.0,0.0,0.0,0.0,0.0,0.0,0.0,0.0,0.0,3.7383,3.7031,3.7109,0.0,0.0,3.9414,4.0469,4.0723,4.1054,4.1582,4.1699,0.0,4.1699,4.1699,4.1699,4.1699,4.1699,4.166,4.1699,4.166,4.1699,4.164,4.166,4.1601,4.1348,4.0566,4.0137,4.0332,4.0468,4.0468,4.0507,4.0879,4.125,3.2154,3.1567,3.1029,3.0801,3.0822,3.0981,3.1071,3.1071,3.1064,3.1071,3.1043,3.0908,3.069,3.039,3.0006,0.0,0.0,0.0,3.0976,3.166,3.2266,3.2676,3.2961,3.3359,3.3672,3.3926,3.3926,3.3945,3.3926,3.4121,3.3691,3.2695,0.0,0.0,3.298,3.3769,3.4414,3.4863,3.5781,3.6348,3.6489,3.7031,3.7305,3.7285,3.6797,3.6445,3.6269,3.5351,3.457,3.3913,3.3281,3.2324,0.0,0.0,0.0,0.0,0.0,0.0,0.0,0.0,0.0,0.0,0.0,2.7109,2.7949,0.0,0.0,0.0,3.0928,3.1514,3.2441,3.2941,0.0,0.0,0.0,0.0,0.0,0.0,0.0,3.6445,3.7285,3.8125,3.8965,3.8945,3.906,3.9588,3.9824,4.0391,4.1523,0.0,4.1855,4.2323,4.2382,4.2382,4.2382,4.2382,4.2382,4.2382,4.2382,4.2382,4.2382,4.2382,4.2382,4.2382,4.2382,4.244,4.2656,4.2168,4.1719,4.168,4.166,4.168,4.168,4.2129,4.2558,3.4075,3.4013,3.2757,3.2228,3.2194,3.2636,3.2801,3.2773,3.2773,3.2744,3.2687,3.2399,3.2131,3.189,3.1299,0.0,3.1738,3.2129,3.257,3.2988,3.384,3.4231,3.4271,3.4648,3.4883,3.4902,3.4902,3.4902,3.4941,3.5351,3.5547,3.5561,3.4726,3.4349,3.4349,3.5098,3.5703,3.6079,3.6543,3.7027,3.7441,3.748,3.75,3.7519,3.7441,3.7226,3.6871,3.6367,3.5723,3.4902,3.4525,3.3723,3.2492,0.0,0.0,0.0,0.0,0.0,0.0,0.0,0.0,0.0,0.0,0.0,0.0,0.0,0.0,3.2198,3.3086,0.0,3.4212,3.4609,0.0,0.0,0.0,3.6138,3.6138,3.6582,3.7066,3.7402,0.0,0.0,3.9902,4.0742,4.1289,4.1348,4.1328,4.1562,4.2363,4.2421,4.244,4.2518,4.2499,4.2499,4.2577,4.2616,4.2694,4.2752,4.2596,4.2694,4.2694,4.2674,4.2616,4.2734,4.2637,4.2793,4.3183,4.3516,4.3574,4.2772,4.2635,4.2616,4.2734,4.3262,4.3769,3.3983,3.4327,3.4285,3.4004,3.3596,3.3729,3.3623,3.3407,3.3387,3.3239,3.3001,3.2912,3.2885,3.2922,3.2527,3.2754,3.3508,3.3574,3.3848,3.4277,3.4824,3.5254,3.5566,3.5996,3.6367,3.668,3.668,3.668,3.668,3.6797,3.6836,3.6836,3.6641,3.6367,3.6108,3.6304,3.6597,3.6992,3.7402,3.7988,3.873,3.9101,3.9277,3.9277,3.8633,3.8259,3.8141,3.7402,3.6738,3.6265,3.6147,3.5483,3.418,3.4101,0.0,0.0,0.0,0.0,0.0,0.0,0.0,0.0,0.0,3.0625,3.1514,0.0,3.2159,0.0,3.4414,3.5098,3.5508,3.5937,0.0,0.0,3.7031,3.7425,3.7445,3.8144,3.8633,3.873,3.9842,4.0683,4.084,4.1601,4.2246,4.2578,4.2344,4.2324,4.2851,4.293,4.3047,4.334,4.3398,4.3398,4.3418,4.3711,4.4004,4.4313,4.4394,4.4372,4.4352,4.4372,4.4372,4.4372,4.4372,4.4453,4.4512,4.4648,4.4606,4.4411,4.4372,4.4372,4.4372,4.4528,4.4665,3.4722,3.4983,3.5224,3.5125,3.481,3.481,3.4686,3.4531,3.4531,3.4438,3.4251,3.4095,3.4016,3.3887,3.3557,3.3798,3.4386,3.4448,3.469,3.508,3.5675,3.6023,3.6047,3.6487,3.6719,3.6775,3.6948,3.7044,3.7064,3.7429,3.7603,3.7603,3.7795,3.7795,3.7545,3.7536,3.777,3.8144,3.8355,3.8709,3.9174,3.9257,3.9316,3.9316,3.8854,3.8659,3.8844,3.8224,3.7789,3.7539,3.7344,3.6719,3.5644,3.5566,3.5195,0.0,0.0,0.0,0.0,0.0,0.0,0.0,0.0,0.0,0.0,0.0,3.386,3.515,3.6016,3.6621,3.6801,3.7422,3.7793,3.7793,3.8398,3.8789,3.8809,3.9394,3.9863,4.0059,4.0879,4.1641,4.2012,4.2422,4.2969,4.3574,4.3457,4.3379,4.3594,4.3672,4.3808,4.4219,4.4297,4.4297,4.4297,4.4512,4.4766,4.4961,4.5039,4.5039,4.5039,4.5039,4.5039,4.5039,4.5039,4.5039,4.5039,4.5195,4.5312,4.5332,4.5469,4.5449,4.5117,4.5176,4.5312,3.5691,3.5731,3.5725,3.5745,3.5745,3.5745,3.5723,3.5633,3.5568,3.5543,3.5505,3.5251,3.5034,3.4776,3.4517,3.4581,3.495,3.5024,3.5228,3.5622,3.6415,3.6608,3.6306,3.6759,3.6761,3.644,3.678,3.6914,3.6969,3.7725,3.8065,3.8084,3.8406,3.8614,3.8671,3.868,3.8837,3.9092,3.9181,3.9222,3.9222,3.8918,3.8746,3.8746,3.8708,3.8861,3.9165,3.882,3.8622,3.864,3.8287,3.7741,3.7086,3.6988,3.6562,0.0,3.5234,0.0,0.0,0.0,0.0,0.0,0.0,0.0,0.0,3.5059,3.5644,3.6929,3.7656,3.8105,3.8128,3.8811,3.9316,3.9375,3.9785,4.0078,4.0137,4.0508,4.0918,4.1289,4.1699,4.2266,4.3048,4.3203,4.3574,4.4277,4.4414,4.4433,4.4551,4.4492,4.457,4.4938,4.5039,4.4899,4.5039,4.5098,4.5137,4.5176,4.5254,4.5176,4.5234,4.5192,4.5172,4.5172,4.5211,4.5192,4.5195,4.5547,4.584,4.5879,4.6191,4.6191,4.5508,4.5508,4.5742,3.5685,3.5999,3.6,3.6049,3.6014,3.6014,3.5758,3.5295,3.4982,3.4737,3.4519,3.4742,3.5051,3.534,3.529,3.5483,3.5847,3.5871,3.5911,3.6041,3.6851,3.7248,3.7195,3.7913,3.8198,3.8122,3.8198,3.8236,3.8255,3.8387,3.8482,3.8482,3.8557,3.8803,3.9163,0.0,0.0,0.0,3.907,3.9298,3.9278,3.9543,3.9675,3.9675,3.9314,0.0,3.924,3.8842,3.8728,3.9066,3.9007,0.0,0.0,0.0,0.0,0.0,0.0,0.0,0.0,0.0,0.0,0.0,3.6938,3.6855,3.6401,3.6914,3.7715,3.8613,3.8867,3.9121,3.9492,3.9668,3.9902,4.0234,4.0664,4.1074,4.1406,4.1797,4.2109,4.2148,4.2578,4.3027,4.3516,4.3906,4.4336,4.4805,4.4902,4.5058,4.5391,4.5117,4.4961,4.4977,4.5055,4.5176,4.5488,4.5547,4.5664,4.5957,4.6055,4.6055,4.6035,4.6055,4.6055,4.6055,4.6055,4.6074,4.6055,4.6406,4.666,4.668,4.7031,4.709,4.625,4.6133,4.6191,3.587,3.608,3.6112,3.61,0.0,3.61,3.5924,3.5636,3.5465,3.5291,3.5155,3.5328,3.5571,3.5779,3.5637,3.5757,3.6151,3.6176,3.6272,3.6496,3.7297,3.7577,3.7427,3.8008,3.8195,3.8023,3.8209,3.8186,3.803,3.8215,3.8229,3.7977,3.8034,3.8335,3.8938,3.916,3.9233,3.9238,3.9263,3.9272,3.9251,3.9225,3.9186,3.9208,3.9243,0.0,0.0,0.0,0.0,0.0,0.0,0.0,0.0,0.0,0.0,3.7972,3.7586,3.733,3.7352,3.7526,3.7812,3.8223,3.8848,3.8848,3.7988,3.8535,3.916,3.9785,4.0039,4.0351,4.0781,4.1016,4.1191,4.1406,4.166,4.1875,4.2109,4.248,4.2832,4.3066,4.3457,4.3887,4.4297,4.4551,4.4883,4.5273,4.5351,4.5508,4.5859,4.5625,4.541,4.5605,4.5664,4.5723,4.5937,4.5996,4.6035,4.6269,4.6484,4.6601,4.6621,4.6797,4.6933,4.6933,4.6933,4.6933,4.6953,4.7109,4.7246,4.7266,4.7422,4.7506,4.7012,4.6933,4.6933,3.6106,3.6125,3.6113,3.6152,3.6116,3.61,3.6101,3.6101,0.0,0.0,0.0,3.5933,3.5989,3.6008,3.5793,3.5906,3.6183,3.6199,3.6379,3.6725,3.7433,3.7616,3.7308,3.769,3.7727,3.7417,3.7745,3.7771,3.7467,3.7831,3.7868,3.7601,3.7601,3.7922,3.8568,3.8909,3.9276,3.9631,3.9252,3.9094,3.9054,3.8628,3.8394,3.8518,3.8783,3.9135,3.9586,4.0013,4.0145,3.989,3.9971,3.9709,3.9086,3.8954,3.8803,3.8463,3.8349,3.831,3.8304,3.8629,3.899,3.9386,4.0181,4.0297,3.9609,3.9961,4.041,4.0782,4.1191,4.1543,4.1875,4.2167,4.2421,4.2519,4.2577,4.2635,4.2793,4.3164,4.3594,4.3906,4.4258,4.4668,4.5058,4.5117,4.5293,4.5683,4.5781,4.5937,4.625,4.6055,4.5879,4.6152,4.6269,4.6406,4.6426,4.6523,4.6523,4.6601,4.6836,4.7031,4.7109,4.7344,4.7558,4.7545,4.7623,4.7584,4.7603,4.7617,4.7695,4.7695,4.7754,4.7838,4.7838,4.7858,4.7734,3.6214,3.6178,3.6181,3.6192,3.619,3.6192,3.6201,3.6149,3.5814,3.5267,3.468,3.5378,3.5664,3.5682,3.5963,3.616,3.6195,3.619,3.6243,3.6314,3.6766,3.6945,3.6923,3.7324,3.7484,3.7405,3.7441,3.7614,3.7836,3.7885,3.8062,3.8305,3.8359,3.8417,3.8512,3.8583,3.863,3.8687,3.8599,3.8594,3.8594,3.8129,3.8081,3.8477,3.8164,3.8206,3.8683,3.9153,3.9509,3.9789,4.0195,4.0521,4.0731,4.0392,4.0224,4.0148,3.9787,3.956,3.9542,3.9599,3.9809,4.0267,4.0742,4.0984,4.0919,4.1289,4.1699,4.2109,4.2148,4.2266,4.2344,4.2401,4.2656,4.2988,4.332,4.3672,4.4023,4.4433,4.4707,4.4785,4.4883,4.5098,4.5488,4.5586,4.5723,4.6094,4.6191,4.6367,4.666,4.6484,4.6269,4.6348,4.6621,4.6772,4.6831,4.7168,4.7285,4.7447,4.7422,4.748,4.748,4.7598,4.7721,4.7617,4.7721,4.7701,4.7656,4.7891,4.8066,4.8144,4.8359,4.862,4.862,4.862,4.8418,3.6416,3.6207,3.6188,3.6216,3.6177,3.618,3.6058,3.5867,3.5683,3.5511,3.5432,3.5749,3.5947,3.5926,3.6103,3.6192,3.6192,3.6426,3.6532,3.655,3.6962,3.7139,3.7175,3.7507,3.7685,3.7685,3.7897,3.797,3.7901,3.7901,3.7865,3.7833,3.8233,3.8504,3.8522,3.8674,3.8611,3.8383,3.8174,3.807,3.8028,3.7605,3.7471,3.7665,3.7894,3.8147,3.84,3.9073,3.9444,3.9436,3.9873,4.0111,4.0073,4.0154,4.0164,4.0164,3.9956,3.9925,4.0165,4.0384,4.0579,4.0828,4.1206,4.1577,4.1812,4.1824,4.2084,4.2694,4.2773,4.2988,4.3437,4.3496,4.3672,4.4101,4.4316,4.4492,4.4707,4.4902,4.5074,4.5332,4.5371,4.5547,4.5976,4.6016,4.6074,4.6289,4.6484,4.6797,4.7207,4.7129,4.6992,4.7012,4.7168,4.7266,4.7285,4.7422,4.7603,4.7623,4.7773,4.7891,4.793,4.8086,4.8288,4.8281,4.8307,4.8327,4.8307,4.8464,4.8535,4.8574,4.8737,4.8894,4.8894,4.8894,4.8757,3.6484,3.6192,3.6202,3.6156,3.6166,3.6049,3.5853,3.5539,3.546,3.5617,3.5874,3.5883,3.583,3.5752,3.5857,3.5892,3.5927,3.6228,3.6363,3.6485,3.6804,3.6962,3.7084,3.7323,3.7421,3.7456,3.7759,3.7767,3.758,3.7556,3.744,3.7232,3.7842,3.8149,3.8166,3.84,3.8383,3.8006,3.7606,3.7454,3.7539,3.7098,3.6903,3.7032,3.755,3.7954,3.8152,3.8922,3.931,3.9112,3.9539,3.9647,3.9359,3.9672,3.986,3.9878,3.986,4.0079,4.0583,4.1013,4.1256,4.135,4.165,4.2034,4.2405,4.2223,4.2409,4.321,4.339,4.3704,4.4313,4.4512,4.4668,4.5,4.5074,4.5156,4.5176,4.5234,4.543,4.5805,4.582,4.5976,4.6328,4.6445,4.6504,4.666,4.6875,4.7246,4.7617,4.7715,4.7734,4.7832,4.7793,4.7734,4.7715,4.7832,4.7955,4.7871,4.8144,4.832,4.8398,4.8652,4.8855,4.8835,4.8855,4.8835,4.8874,4.8874,4.8874,4.8855,4.8991,4.9082,4.9265,4.9285,4.9109,3.623,3.6188,3.6114,3.6107,3.604,3.5638,3.5477,3.5413,3.5049,3.4887,3.4975,3.4979,3.4844,3.4462,3.4818,3.5009,3.5009,3.4961,3.5201,3.5484,3.5468,3.5651,3.5983,3.6025,3.6,3.6058,3.615,3.6408,3.6649,3.6623,3.673,3.6986,3.7096,3.7182,3.7155,3.7188,3.7179,3.7119,3.667,3.6654,3.6983,3.66,3.6573,3.6989,3.6676,3.6876,3.7627,3.8152,3.8623,3.8972,3.9441,3.972,3.9685,3.9709,3.9709,3.9752,3.9752,4.0082,4.0874,4.1391,4.1757,4.2143,4.2186,4.2395,4.2795,4.2825,4.3192,4.3913,4.4145,4.4338,4.4876,4.4918,4.4977,4.5137,4.541,4.5648,4.5644,4.5957,4.6211,4.623,4.6269,4.6406,4.6777,4.6875,4.7031,4.7344,4.7461,4.7676,4.8066,4.8144,4.8262,4.8561,4.8418,4.8183,4.8183,4.8542,4.862,4.8718,4.8776,4.8796,4.8796,4.8815,4.8913,4.9031,4.8952,4.8972,4.8991,4.8913,4.8972,4.9128,4.9297,4.957,4.9922,5.0028,4.9754,3.635,3.6112,3.5829,3.5659,3.5572,3.5401,3.5476,3.5618,3.5452,3.5245,3.5038,3.5056,3.4998,3.4858,3.5246,3.5369,3.5369,3.5369,3.5452,3.56,3.56,3.5683,3.5814,3.6045,3.6144,3.6161,3.6401,3.6626,3.6698,3.6774,3.684,3.6973,3.6989,3.6989,3.7006,3.7204,3.7189,3.6883,3.6876,3.6841,3.672,3.6383,3.6243,3.6478,3.6744,3.7017,3.7458,3.8117,3.8615,3.8877,3.9531,3.9947,3.9904,4.0207,4.0337,4.0337,4.0337,4.0494,4.0871,4.1063,4.1352,4.1775,4.1836,4.2101,4.2801,4.2925,4.3279,4.4034,4.4022,4.42,4.4899,4.5023,4.5206,4.5656,4.5937,4.6035,4.6055,4.6426,4.668,4.668,4.6894,4.7109,4.7266,4.7305,4.75,4.7851,4.7969,4.8125,4.8496,4.8594,4.8718,4.8835,4.8737,4.8659,4.8594,4.8757,4.8894,4.8894,4.8894,4.8894,4.8913,4.8894,4.8972,4.9199,4.9238,4.9375,4.9715,4.9676,4.9695,4.9715,4.9754,4.998,5.0204,5.0223,5.0008,3.6384,3.6144,3.5736,3.5476,3.5435,3.5311,3.5417,3.5588,3.5521,3.5268,3.5016,3.5112,3.5158,3.5257,3.5371,3.542,3.542,3.542,3.5485,3.5567,3.5583,3.5632,3.5789,3.6034,3.6181,3.6214,3.6469,3.6584,3.66,3.66,3.6649,3.6731,3.6747,3.6796,3.6911,3.7128,3.711,3.6817,3.7015,3.6904,3.6619,3.6463,3.6336,3.6317,3.6792,3.7144,3.7322,3.7947,3.8408,3.8541,3.9144,3.9586,3.9735,4.007,4.0289,4.0421,4.0553,4.0632,4.0737,4.0887,4.116,4.1574,4.1636,4.2008,4.2685,4.2846,4.3269,4.4027,4.3934,4.414,4.4826,4.5121,4.5512,4.6187,4.6352,4.6504,4.666,4.6953,4.7109,4.7129,4.7344,4.7637,4.7754,4.7916,4.8086,4.832,4.8398,4.8457,4.8815,4.8894,4.8894,4.8894,4.8894,4.8894,4.8894,4.8894,4.8894,4.8952,4.8972,4.9082,4.9128,4.9167,4.9304,4.9687,4.9687,4.9746,4.9922,5.0125,5.0254,5.0312,5.0351,5.041,5.0605,5.0527,5.0547,3.6214,3.64,3.5958,3.5749,3.574,3.5378,3.5226,3.5265,3.4837,3.4567,3.4647,3.4917,3.5002,3.5039,3.4827,3.4609,3.4609,3.4684,3.4859,3.5114,3.5087,3.5278,3.5613,3.5629,3.5672,3.5727,3.5759,3.5764,3.5736,3.5736,3.5836,3.6154,3.6214,3.6314,3.6597,3.6722,3.6664,3.668,3.6728,3.6683,3.667,3.6924,3.6908,3.6638,3.6651,3.6923,3.7265,3.7339,3.7623,3.8008,3.8174,3.8397,3.8735,3.8841,3.9124,3.9549,3.9929,4.0305,4.0646,4.1071,4.1497,4.1888,4.1941,4.2201,4.2766,4.2873,4.3261,4.4013,4.4111,4.4349,4.4845,4.5249,4.5692,4.6215,4.6648,4.6981,4.7441,4.748,4.7539,4.7558,4.7637,4.7851,4.8144,4.8535,4.8718,4.8815,4.8855,4.8855,4.8874,4.8894,4.8913,4.8952,4.8952,4.8913,4.8913,4.9011,4.8972,4.9109,4.9355,4.9492,4.9648,4.9785,4.998,5.0137,5.0137,5.0156,5.0176,5.034,5.0469,5.0605,5.0742,5.0859,5.1016,5.1221,5.1201,3.6075,3.5647,3.5479,3.5356,3.5269,3.5141,3.5243,3.5451,3.5278,3.5192,3.5208,3.5335,3.5383,3.5367,3.524,3.5192,3.5192,3.5192,3.5272,3.5383,3.5383,3.5446,3.5601,3.5617,3.5617,3.5617,3.5617,3.5701,3.5939,3.613,3.6288,3.6384,3.6431,3.6495,3.6622,3.6829,3.694,3.6972,3.7162,3.7289,3.7274,3.7417,3.7401,3.7305,3.7289,3.7381,3.7563,3.7837,3.811,3.8263,3.8548,3.8774,3.891,3.8955,3.9046,3.9272,3.9695,4.0033,4.0242,4.0604,4.1228,4.1849,4.1947,4.2253,4.2904,4.3323,4.3669,4.396,4.4316,4.4589,4.4805,4.5183,4.578,4.6434,4.6742,4.7044,4.7488,4.7812,4.7988,4.8027,4.8203,4.8522,4.86,4.8815,4.8894,4.8894,4.8894,4.8913,4.8913,4.8913,4.9011,4.9219,4.9297,4.9394,4.9687,4.9433,4.9355,4.9629,4.9863,4.9922,5.0039,5.0098,5.0254,5.0527,5.0586,5.0664,5.0723,5.084,5.0976,5.1016,5.1104,5.1123,5.1338,5.1377,5.1397,3.6008,3.5413,3.5328,3.5285,3.5208,3.5208,3.5351,3.5617,3.5617,3.553,3.5415,3.5355,3.5312,3.5181,3.5137,3.5137,3.5181,3.5268,3.5312,3.5137,3.5137,3.5137,3.5153,3.5247,3.531,3.5282,3.5376,3.5548,3.5767,3.6003,3.6159,3.6269,3.633,3.6393,3.6502,3.6677,3.6786,3.6849,3.7083,3.7193,3.7193,3.7209,3.7301,3.744,3.744,3.7532,3.7671,3.7993,3.8194,3.8224,3.8483,3.8762,3.8998,3.9215,3.9356,3.9455,3.9811,3.9996,4.0058,4.0456,4.0971,4.1533,4.1752,4.2197,4.2858,4.3246,4.3577,4.4036,4.4368,4.4663,4.5086,4.5381,4.5832,4.6451,4.6822,4.7217,4.7716,4.8151,4.8398,4.8457,4.8679,4.8855,4.8894,4.8894,4.8894,4.8894,4.8894,4.8933,4.9089,4.9082,4.9238,4.9629,4.9726,4.9941,5.0176,5.0117,4.9844,5.0039,5.0293,5.0351,5.041,5.0449,5.0586,5.0879,5.1055,5.1172,5.124,5.1358,5.1397,5.1397,5.1338,5.1299,5.1377,5.1377,5.1397,3.6036,3.5613,3.5617,3.5569,3.5526,3.5569,3.5558,3.553,3.5573,3.5268,3.4919,3.4875,3.47,3.4365,3.4395,3.4292,3.4351,3.4705,3.4733,3.4411,3.4351,3.4367,3.4413,3.4688,3.4766,3.4782,3.5013,3.5166,3.5271,3.5348,3.5516,3.57,3.5822,3.5991,3.6235,3.6298,3.6235,3.6282,3.6344,3.6312,3.622,3.6343,3.6591,3.6916,3.6931,3.7194,3.7642,3.7765,3.7827,3.7796,3.7827,3.8123,3.8877,3.9298,3.9742,3.9942,4.0088,4.0151,4.0182,4.0554,4.0801,4.1106,4.1434,4.1935,4.2458,4.2644,4.3122,4.4106,4.4523,4.4865,4.5578,4.582,4.5926,4.6113,4.6849,4.7462,4.8027,4.8551,4.8894,4.8855,4.8894,4.8894,4.8894,4.8894,4.8913,4.8972,4.8991,4.9148,4.9433,4.9531,4.9707,5.0039,5.0195,5.0351,5.0586,5.0762,5.0527,5.041,5.0644,5.0801,5.0859,5.0918,5.1016,5.1201,5.1182,5.1299,5.1299,5.1397,5.1397,5.1397,5.1397,5.1397,5.1397,5.1397,5.1397,3.5748,3.5617,3.5617,3.5617,3.5617,3.5617,3.5459,3.5137,3.5137,3.4875,3.4481,3.4437,3.4349,3.4279,3.4403,3.4288,3.4051,3.4381,3.4515,3.4466,3.448,3.4542,3.474,3.4877,3.4923,3.4984,3.5319,3.5486,3.5532,3.57,3.5929,3.6005,3.602,3.6066,3.6158,3.6173,3.6173,3.6173,3.6173,3.6173,3.6188,3.6402,3.6618,3.6774,3.6927,3.7144,3.7286,3.7789,3.8147,3.8338,3.837,3.8527,3.8749,3.8906,3.9064,3.9192,3.9461,3.9649,3.9713,4.0154,4.0693,4.1144,4.1494,4.1914,4.261,4.3006,4.3342,4.3939,4.4477,4.5068,4.5329,4.5695,4.5998,4.6355,4.6728,4.724,4.7995,4.8544,4.8848,4.8894,4.8894,4.8894,4.8913,4.8913,4.907,4.9277,4.9316,4.9473,4.9844,4.998,5.0137,5.0508,5.0605,5.0723,5.0957,5.1113,5.0996,5.084,5.0996,5.1045,5.1143,5.1201,5.1338,5.1397,5.1397,5.1397,5.1397,5.1397,5.1397,5.1397,5.1397,5.1397,5.1397,5.1397,5.1397,3.5617,3.5617,3.5617,3.5617,3.5573,3.5443,3.5181,3.4875,3.47,3.4426,3.4165,3.4092,3.4034,3.4037,3.4187,3.4083,3.3857,3.405,3.4276,3.4397,3.4307,3.4397,3.4607,3.4728,3.4863,3.4983,3.5224,3.5329,3.5344,3.5524,3.5615,3.5615,3.563,3.5615,3.563,3.5676,3.5676,3.5676,3.5735,3.5842,3.5902,3.6173,3.6386,3.6558,3.6772,3.6987,3.7333,3.7785,3.8135,3.8403,3.8545,3.8751,3.8862,3.8894,3.8942,3.9165,3.9388,3.9579,3.9611,4.0041,4.0519,4.102,4.1309,4.1728,4.2409,4.2892,4.3131,4.3674,4.4133,4.4703,4.5081,4.5365,4.5836,4.6306,4.6522,4.7056,4.7894,4.8405,4.8729,4.8801,4.8894,4.8972,4.9062,4.9121,4.9297,4.9648,4.9766,4.9922,5.0273,5.041,5.0664,5.0879,5.1016,5.1172,5.1299,5.1358,5.1358,5.1299,5.128,5.1299,5.1319,5.1319,5.1397,5.1397,5.1397,5.1397,5.1397,5.1397,5.1397,5.1397,5.1397,5.1397,5.1397,5.1397,5.1397,3.5617,3.5617,3.5617,3.5605,3.555,3.5156,3.494,3.4793,3.4457,3.4138,3.3948,3.3889,3.3813,3.3747,3.3851,3.385,3.3773,3.3892,3.4099,3.4172,3.4055,3.4013,3.4057,3.4277,3.4497,3.4733,3.4745,3.4774,3.4838,3.4867,3.471,3.485,3.485,3.4756,3.485,3.4756,3.4909,3.5,3.5188,3.532,3.535,3.5643,3.5964,3.6397,3.6456,3.6814,3.7378,3.7636,3.7788,3.7972,3.8418,3.8798,3.9084,3.9196,3.929,3.9657,3.9785,3.9802,3.9866,4.0126,4.0432,4.0594,4.0997,4.1497,4.1979,4.222,4.2604,4.3292,4.3626,4.4038,4.475,4.5129,4.5412,4.5836,4.6353,4.7009,4.7848,4.8119,4.8521,4.8872,4.8991,4.9128,4.9512,4.957,4.9785,5.0078,5.0215,5.041,5.0703,5.0879,5.1035,5.1172,5.1289,5.1299,5.1397,5.1397,5.1397,5.1397,5.1397,5.1397,5.1397,5.1397,5.1397,5.1397,5.1397,5.1397,5.1397,5.1397,5.1397,5.1397,5.1397,5.1397,5.1397,5.1397,5.1397,3.5617,3.5617,3.5617,3.5557,3.5454,3.5309,3.496,3.4532,3.4397,3.4067,3.3824,3.3733,3.3747,3.3698,3.3947,3.4034,3.4078,3.4314,3.4475,3.4549,3.4505,3.4461,3.4446,3.4519,3.4607,3.4695,3.471,3.471,3.471,3.471,3.471,3.471,3.4724,3.4724,3.4724,3.4929,3.5079,3.5123,3.5401,3.5562,3.5606,3.5836,3.6031,3.6158,3.6398,3.6657,3.6923,3.7282,3.7693,3.8105,3.8221,3.8592,3.8946,3.9059,3.9252,3.9623,3.9768,3.9817,3.9817,3.9914,4.0141,4.0465,4.061,4.0949,4.1449,4.1883,4.2172,4.2604,4.3083,4.3674,4.4038,4.4673,4.527,4.5836,4.6333,4.6878,4.7505,4.8182,4.8795,4.9235,4.9609,4.9824,4.9961,5.0039,5.0176,5.0508,5.0664,5.0762,5.1055,5.1191,5.124,5.128,5.1358,5.1358,5.1397,5.1397,5.1397,5.1397,5.1397,5.1397,5.1397,5.1397,5.1397,5.1397,5.1397,5.1397,5.1397,5.1397,5.1397,5.1397,5.1397,5.1397,5.1397,5.1397,5.1397,3.5796,3.5812,3.5939,3.5864,3.5607,3.5384,3.4953,3.4426,3.4184,3.4091,3.3905,3.3934,3.4007,3.4168,3.4344,3.4417,3.4446,3.4607,3.4695,3.4695,3.468,3.468,3.4695,3.471,3.471,3.471,3.471,3.471,3.471,3.471,3.471,3.4739,3.4827,3.49,3.4929,3.524,3.5416,3.546,3.5723,3.5885,3.5866,3.6158,3.6305,3.6348,3.6524,3.6612,3.6661,3.6908,3.7401,3.7991,3.8252,3.835,3.858,3.8678,3.8923,3.9411,3.946,3.9508,3.9768,3.9817,3.9898,4.0141,4.019,4.0465,4.0869,4.1304,4.1481,4.2172,4.2652,4.3131,4.3691,4.4655,4.5501,4.6016,4.654,4.694,4.7291,4.8168,4.885,4.9391,4.9878,5.0273,5.041,5.0449,5.0664,5.0937,5.1074,5.1143,5.1299,5.1358,5.1397,5.1397,5.1397,5.1397,5.1397,5.1397,5.1397,5.1397,5.1397,5.1397,5.1397,5.1397,5.1397,5.1397,5.1397,5.1397,5.1397,5.1397,5.1397,5.1397,5.1397,5.1397,5.1397,5.1397,5.1397,3.6161,3.6177,3.6434,3.6263,3.583,3.5378,3.4879,3.4439,3.4073,3.4036,3.418,3.4271,3.4388,3.471,3.4622,3.4695,3.4695,3.4695,3.4695,3.471,3.471,3.471,3.471,3.471,3.471,3.471,3.471,3.471,3.471,3.471,3.4739,3.4827,3.5079,3.5211,3.5313,3.5577,3.5723,3.5797,3.6012,3.6158,3.6202,3.6407,3.6524,3.6553,3.6568,3.6612,3.6612,3.6711,3.7056,3.7957,3.8056,3.7991,3.8041,3.8105,3.8399,3.8776,3.8923,3.9118,3.9573,3.9622,3.9719,3.9817,3.9865,3.9995,4.0465,4.0724,4.1162,4.1892,4.2097,4.2874,4.3774,4.4927,4.5724,4.6217,4.6767,4.7158,4.7405,4.8013,4.8814,4.9378,4.9921,5.0412,5.0723,5.0898,5.1016,5.1172,5.124,5.128,5.1358,5.1377,5.1397,5.1397,5.1397,5.1397,5.1397,5.1397,5.1397,5.1397,5.1397,5.1397,5.1397,5.1397,5.1397,5.1397,5.1397,5.1397,5.1397,5.1397,5.1397,5.1397,5.1397,5.1397,5.1397,5.1397,5.1397,3.6495,3.645,3.6171,3.5938,3.57,3.5181,3.4841,3.4615,3.4522,3.449,3.4578,3.4592,3.4636,3.471,3.471,3.471,3.471,3.471,3.471,3.471,3.471,3.471,3.471,3.471,3.471,3.471,3.471,3.471,3.471,3.4753,3.4827,3.5108,3.5225,3.5343,3.5606,3.5851,3.6012,3.607,3.6319,3.6466,3.6466,3.6539,3.6612,3.6612,3.6612,3.6612,3.6612,3.6612,3.6711,3.6908,3.7007,3.7204,3.75,3.7549,3.7844,3.8203,3.8384,3.858,3.9069,3.9247,3.9378,3.9783,3.9863,3.9928,4.0313,4.0755,4.113,4.1768,4.2442,4.3258,4.4286,4.5054,4.5731,4.633,4.7016,4.7534,4.7704,4.8129,4.8912,4.9694,5.0291,5.0755,5.1173,5.1201,5.128,5.1377,5.1397,5.1397,5.1397,5.1397,5.1397,5.1397,5.1397,5.1397,5.1397,5.1397,5.1397,5.1397,5.1397,5.1397,5.1397,5.1397,5.1397,5.1397,5.1397,5.1397,5.1397,5.1397,5.1397,5.1397,5.1397,5.1397,5.1397,5.1397,5.1397,3.6845,3.6831,3.649,3.622,3.5852,3.5359,3.5,3.4727,3.471,3.471,3.471,3.471,3.471,3.471,3.471,3.471,3.471,3.471,3.471,3.471,3.471,3.471,3.471,3.471,3.471,3.471,3.471,3.4768,3.4871,3.4944,3.5137,3.543,3.5562,3.5705,3.588,3.6173,3.6334,3.6363,3.6495,3.6612,3.6612,3.6612,3.6612,3.6612,3.6612,3.6612,3.6612,3.6612,3.6612,3.6612,3.6612,3.6696,3.6943,3.7056,3.7303,3.7697,3.7844,3.8196,3.8667,3.9122,3.9446,3.9883,4.0097,4.034,4.0532,4.0812,4.114,4.165,4.2394,4.3269,4.4444,4.507,4.5664,4.6436,4.7157,4.7678,4.7974,4.8465,4.9053,4.9823,5.0346,5.0881,5.1202,5.1348,5.1397,5.1397,5.1397,5.1397,5.1397,5.1397,5.1397,5.1397,5.1397,5.1397,5.1397,5.1397,5.1397,5.1397,5.1397,5.1397,5.1397,5.1397,5.1397,5.1397,5.1397,5.1397,5.1397,5.1397,5.1397,5.1397,5.1397,5.1397,5.1397,5.1397,5.1397,3.7164,3.7043,3.6883,3.6545,3.6034,3.5506,3.504,3.4742,3.471,3.471,3.471,3.471,3.471,3.471,3.471,3.471,3.471,3.471,3.471,3.471,3.471,3.4753,3.4797,3.4827,3.4871,3.4827,3.4827,3.4958,3.5163,3.5299,3.5445,3.5753,3.5953,3.6085,3.6231,3.6436,3.6568,3.6568,3.6583,3.6612,3.6612,3.6612,3.6612,3.6612,3.6612,3.6612,3.6612,3.6612,3.6612,3.6612,3.6656,3.667,3.667,3.667,3.6834,3.7358,3.7482,3.7909,3.8538,3.9032,3.9439,3.9949,4.0369,4.0717,4.0782,4.093,4.1194,4.1693,4.2375,4.3207,4.4324,4.5123,4.5778,4.642,4.7093,4.7659,4.8137,4.8682,4.9138,4.9795,5.0236,5.0646,5.1105,5.1397,5.1397,5.1397,5.1397,5.1397,5.1397,5.1397,5.1397,5.1397,5.1397,5.1397,5.1397,5.1397,5.1397,5.1397,5.1397,5.1397,5.1397,5.1397,5.1397,5.1397,5.1397,5.1397,5.1397,5.1397,5.1397,5.1397,5.1397,5.1397,5.1397,5.1397,5.1416,3.7345,3.6884,3.6467,3.6018,3.5506,3.5008,3.4789,3.471,3.471,3.471,3.471,3.471,3.471,3.471,3.471,3.471,3.471,3.471,3.471,3.471,3.4739,3.4827,3.5049,3.5123,3.5222,3.5401,3.5328,3.5343,3.5548,3.5636,3.5782,3.5983,3.6114,3.6246,3.6451,3.6583,3.6612,3.6612,3.6612,3.6612,3.6612,3.6612,3.6612,3.6612,3.6612,3.6612,3.6612,3.6612,3.6612,3.6626,3.6875,3.6978,3.7022,3.7022,3.7086,3.7201,3.7413,3.7812,3.8399,3.8565,3.9134,3.9733,4.0212,4.0589,4.0999,4.123,4.1426,4.1922,4.2646,4.3538,4.4245,4.5051,4.5705,4.6211,4.6861,4.746,4.7708,4.8187,4.8879,4.9637,4.998,5.0353,5.089,5.128,5.1397,5.1397,5.1397,5.1397,5.1397,5.1397,5.1397,5.1397,5.1397,5.1397,5.1397,5.1397,5.1397,5.1397,5.1397,5.1397,5.1397,5.1397,5.1397,5.1397,5.1397,5.1397,5.1397,5.1397,5.1397,5.1397,5.1397,5.1397,5.1494,5.1621,5.1601,3.7394,3.6869,3.6405,3.5894,3.5381,3.4929,3.471,3.471,3.471,3.471,3.471,3.471,3.471,3.471,3.471,3.471,3.471,3.471,3.471,3.4724,3.4871,3.4988,3.5255,3.5372,3.5636,3.5763,3.5734,3.5719,3.588,3.5895,3.6056,3.629,3.6378,3.6466,3.6568,3.6597,3.6612,3.6612,3.6612,3.6612,3.6612,3.6612,3.6612,3.6612,3.6612,3.6612,3.6612,3.6612,3.67,3.6846,3.7007,3.7168,3.7344,3.7475,3.757,3.7417,3.7504,3.7782,3.8256,3.8453,3.9022,3.9597,4.0142,4.0678,4.1124,4.1391,4.171,4.2246,4.2601,4.3432,4.4194,4.4818,4.5273,4.5909,4.6611,4.7161,4.7509,4.7988,4.8632,4.9391,4.9784,5.0225,5.0793,5.1134,5.1328,5.1397,5.1397,5.1397,5.1397,5.1397,5.1397,5.1397,5.1397,5.1397,5.1397,5.1397,5.1397,5.1397,5.1397,5.1397,5.1397,5.1397,5.1397,5.1397,5.1397,5.1397,5.1397,5.1397,5.1397,5.1397,5.1416,5.1475,5.1699,5.1797,5.1836,3.7347,3.673,3.6359,3.5832,3.5241,3.4882,3.471,3.471,3.471,3.471,3.471,3.471,3.471,3.471,3.471,3.471,3.471,3.4753,3.4827,3.4885,3.5167,3.5328,3.5474,3.565,3.5895,3.6173,3.6202,3.6168,3.6217,3.6217,3.6378,3.6495,3.6597,3.6612,3.6612,3.6612,3.6612,3.6612,3.6612,3.6612,3.6612,3.6612,3.6612,3.6612,3.6612,3.6612,3.6612,3.6714,3.6846,3.7051,3.7241,3.7417,3.7731,3.8039,3.8031,3.7826,3.7768,3.7929,3.8163,3.8523,3.8921,3.9483,4.0296,4.0739,4.1135,4.1463,4.192,4.2412,4.2719,4.3076,4.389,4.4262,4.4818,4.5575,4.6278,4.6861,4.731,4.7808,4.8385,4.8996,4.9538,5.0127,5.0646,5.1134,5.1377,5.1397,5.1397,5.1397,5.1397,5.1397,5.1397,5.1397,5.1397,5.1397,5.1397,5.1397,5.1397,5.1397,5.1397,5.1397,5.1397,5.1397,5.1397,5.1397,5.1397,5.1397,5.1397,5.1397,5.1397,5.1416,5.1504,5.1641,5.1855,5.2109,5.2246,3.7162,3.6266,3.622,3.5661,3.4835,3.471,3.471,3.471,3.471,3.471,3.471,3.471,3.471,3.471,3.471,3.471,3.4797,3.4944,3.5123,3.5196,3.5474,3.5705,3.5939,3.6027,3.6217,3.6436,3.6495,3.6553,3.6495,3.6495,3.6539,3.6597,3.6612,3.6612,3.6612,3.6612,3.6612,3.6612,3.6612,3.6612,3.6612,3.6612,3.6612,3.6612,3.6612,3.6612,3.6656,3.6817,3.7051,3.7153,3.7651,3.7929,3.8112,3.8309,3.8441,3.8389,3.8389,3.8441,3.8441,3.853,3.8804,3.9293,3.9929,4.0497,4.096,4.1474,4.1849,4.1833,4.231,4.2923,4.3585,4.3991,4.4549,4.5255,4.606,4.6511,4.6961,4.7609,4.8205,4.8682,4.9243,4.9931,5.0568,5.1007,5.1397,5.1397,5.1397,5.1397,5.1397,5.1397,5.1397,5.1397,5.1397,5.1397,5.1397,5.1397,5.1397,5.1397,5.1397,5.1397,5.1397,5.1397,5.1397,5.1397,5.1397,5.1397,5.1397,5.1397,5.1397,5.1494,5.1699,5.1875,5.2031,5.2305,5.2656,3.6823,3.6173,3.5894,3.5335,3.4756,3.471,3.471,3.471,3.471,3.471,3.471,3.471,3.471,3.471,3.471,3.4812,3.4958,3.5167,3.5328,3.5533,3.5797,3.5983,3.6114,3.629,3.6509,3.6553,3.6612,3.6583,3.6612,3.6612,3.6612,3.6612,3.6612,3.6612,3.6612,3.6612,3.6612,3.6612,3.6612,3.6612,3.6612,3.6612,3.6612,3.6612,3.6612,3.6612,3.67,3.6919,3.7197,3.7387,3.7841,3.8148,3.8295,3.8456,3.8477,3.8477,3.8477,3.8529,3.8529,3.8491,3.8699,3.8945,3.9463,4.0084,4.0857,4.1423,4.1798,4.1849,4.2038,4.255,4.3263,4.3687,4.4295,4.5003,4.5809,4.6311,4.6761,4.736,4.7957,4.8453,4.8996,4.9637,5.0323,5.089,5.128,5.1397,5.1397,5.1397,5.1397,5.1397,5.1397,5.1397,5.1397,5.1397,5.1397,5.1397,5.1397,5.1397,5.1397,5.1397,5.1397,5.1397,5.1397,5.1397,5.1397,5.1397,5.1397,5.1436,5.1494,5.1738,5.1953,5.2226,5.25,5.2812,5.3086,3.6498,3.6173,3.5661,3.5148,3.4695,3.471,3.471,3.471,3.471,3.471,3.471,3.471,3.471,3.4739,3.4797,3.5006,3.5196,3.5372,3.5577,3.5855,3.6056,3.6217,3.6334,3.6495,3.6583,3.6612,3.6612,3.6612,3.6612,3.6612,3.6612,3.6612,3.6612,3.6612,3.6612,3.6612,3.6612,3.6612,3.6612,3.6612,3.6612,3.6612,3.6612,3.6612,3.6612,3.6641,3.6758,3.7051,3.7373,3.7695,3.8017,3.8324,3.8433,3.8462,3.8491,3.8491,3.8491,3.8491,3.8491,3.8491,3.8491,3.8699,3.91,3.9929,4.0842,4.1423,4.1731,4.1798,4.1849,4.2396,4.3009,4.3365,4.3991,4.4751,4.5507,4.606,4.6661,4.7211,4.7808,4.8335,4.8848,4.9391,5.0029,5.0744,5.1134,5.1328,5.1397,5.1397,5.1397,5.1397,5.1397,5.1397,5.1397,5.1397,5.1397,5.1397,5.1397,5.1397,5.1397,5.1397,5.1397,5.1397,5.1397,5.1397,5.1397,5.1397,5.1397,5.1494,5.168,5.1953,5.2266,5.2765,5.3097,5.339,5.3496,3.622,3.6173,3.56,3.5101,3.471,3.471,3.471,3.471,3.471,3.471,3.471,3.471,3.471,3.4783,3.4973,3.5181,3.5269,3.5792,3.5983,3.6158,3.6392,3.6495,3.6539,3.6568,3.6612,3.6612,3.6612,3.6612,3.6612,3.6612,3.6612,3.6612,3.6612,3.6612,3.6612,3.6612,3.6612,3.6612,3.6612,3.6612,3.6612,3.6612,3.6612,3.6612,3.6626,3.6744,3.7036,3.7329,3.7636,3.7943,3.8265,3.8426,3.8477,3.8491,3.8491,3.8491,3.8491,3.8491,3.8491,3.8491,3.8491,3.8699,3.91,3.9825,4.0754,4.0945,4.1269,4.168,4.1798,4.2105,4.2719,4.3229,4.3822,4.4447,4.5255,4.596,4.6511,4.7011,4.7609,4.8187,4.8731,4.9194,4.9735,5.0421,5.1037,5.128,5.1397,5.1397,5.1397,5.1397,5.1397,5.1397,5.1397,5.1397,5.1397,5.1397,5.1397,5.1397,5.1397,5.1397,5.1397,5.1397,5.1397,5.1397,5.1397,5.1397,5.1475,5.1816,5.207,5.2246,5.2608,5.3077,5.3379,5.3633,5.3789,3.6173,3.6127,3.535,3.4882,3.471,3.471,3.471,3.471,3.471,3.471,3.471,3.471,3.4812,3.5035,3.5152,3.5397,3.5719,3.5953,3.6217,3.6392,3.6553,3.6597,3.6612,3.6612,3.6612,3.6612,3.6612,3.6612,3.6612,3.6612,3.6612,3.6612,3.6612,3.6612,3.6612,3.6612,3.6612,3.6612,3.6612,3.6612,3.6612,3.6612,3.6612,3.6612,3.6612,3.6773,3.708,3.7453,3.7775,3.8061,3.8331,3.8433,3.8491,3.8491,3.8491,3.8491,3.8491,3.8491,3.8491,3.8491,3.8491,3.8633,3.9048,3.9722,4.0497,4.0754,4.1218,4.1577,4.1798,4.2054,4.2617,4.3162,4.3721,4.4312,4.502,4.5809,4.6461,4.6911,4.7559,4.8187,4.8533,4.8879,4.9489,5.0078,5.0714,5.1231,5.1328,5.1397,5.1397,5.1397,5.1397,5.1397,5.1397,5.1397,5.1397,5.1397,5.1397,5.1397,5.1397,5.1397,5.1397,5.1397,5.1397,5.1397,5.1455,5.1553,5.1816,5.2207,5.2441,5.2598,5.298,5.341,5.3672,5.3906,5.3914,3.6127,3.5847,3.5069,3.471,3.471,3.471,3.471,3.471,3.471,3.4768,3.4841,3.4856,3.5064,3.5299,3.5489,3.5646,3.6027,3.6231,3.6392,3.6524,3.6597,3.6612,3.6612,3.6612,3.6612,3.6612,3.6612,3.6612,3.6612,3.6612,3.6612,3.6612,3.6612,3.6612,3.6612,3.6612,3.6612,3.6612,3.6612,3.6612,3.6612,3.6612,3.6612,3.6612,3.6612,3.6861,3.7183,3.7504,3.7797,3.8134,3.8412,3.8514,3.8491,3.8491,3.8491,3.8491,3.8491,3.8491,3.8491,3.8491,3.8491,3.8581,3.8789,3.9463,4.0084,4.0548,4.096,4.168,4.1849,4.2003,4.2515,4.3009,4.3518,4.4042,4.4768,4.5558,4.6261,4.6861,4.7491,4.8137,4.8434,4.8731,4.9618,5.0274,5.0812,5.128,5.1328,5.1397,5.1397,5.1397,5.1397,5.1397,5.1397,5.1397,5.1397,5.1397,5.1397,5.1397,5.1397,5.1397,5.1397,5.1397,5.1397,5.1416,5.1562,5.1758,5.209,5.248,5.2734,5.291,5.3301,5.3691,5.3789,5.3933,5.3933,3.5894,3.5366,3.4882,3.471,3.471,3.471,3.471,3.4724,3.4739,3.4918,3.5137,3.5181,3.5372,3.568,3.5851,3.6041,3.6202,3.6436,3.6583,3.6597,3.6612,3.6612,3.6612,3.6612,3.6612,3.6612,3.6612,3.6612,3.6612,3.6612,3.6612,3.6612,3.6612,3.6612,3.6612,3.6612,3.6612,3.6612,3.6612,3.6612,3.6612,3.6612,3.6612,3.6612,3.667,3.6963,3.7373,3.7592,3.7929,3.8368,3.847,3.8491,3.8491,3.8491,3.8491,3.8491,3.8491,3.8491,3.8491,3.8491,3.8491,3.8491,3.8699,3.91,3.9877,4.029,4.0667,4.1474,4.1747,4.1798,4.2243,4.2805,4.3314,4.3839,4.4599,4.5356,4.611,4.6711,4.7292,4.7889,4.8236,4.8682,4.9716,5.0549,5.1037,5.1328,5.1377,5.1397,5.1397,5.1397,5.1397,5.1397,5.1397,5.1397,5.1397,5.1397,5.1397,5.1397,5.1397,5.1397,5.1397,5.1397,5.1397,5.1436,5.1699,5.1953,5.2344,5.2823,5.3066,5.3379,5.3652,5.3894,5.3972,5.3972,5.3972,3.5879,3.5366,3.4882,3.471,3.471,3.471,3.471,3.4739,3.4914,3.5075,3.524,3.5416,3.5709,3.5924,3.607,3.6231,3.6436,3.6495,3.6612,3.6612,3.6612,3.6612,3.6612,3.6612,3.6612,3.6612,3.6612,3.6612,3.6612,3.6612,3.6612,3.6612,3.6612,3.6612,3.6612,3.6612,3.6612,3.6612,3.6612,3.6612,3.6612,3.6612,3.6612,3.6612,3.6787,3.7124,3.7563,3.7724,3.809,3.847,3.8543,3.8491,3.8491,3.8491,3.8491,3.8491,3.8491,3.8491,3.8491,3.8491,3.8491,3.8491,3.8595,3.8907,3.9567,4.0047,4.0548,4.1166,4.1628,4.1731,4.1987,4.2856,4.3467,4.3721,4.4397,4.5255,4.596,4.6461,4.7011,4.7559,4.8007,4.878,4.9716,5.0451,5.1037,5.1328,5.1377,5.1397,5.1397,5.1397,5.1397,5.1397,5.1397,5.1397,5.1397,5.1397,5.1397,5.1397,5.1397,5.1397,5.1397,5.1397,5.1436,5.1523,5.1836,5.2168,5.2695,5.3183,5.3574,5.3887,5.3933,5.3972,5.3972,5.3972,5.3972,3.5786,3.5148,3.4835,3.471,3.471,3.471,3.4753,3.4885,3.5123,3.5313,3.5548,3.5782,3.5983,3.6202,3.6305,3.6348,3.6597,3.6612,3.6612,3.6612,3.6612,3.6612,3.6612,3.6612,3.6612,3.6612,3.6612,3.6612,3.6612,3.6612,3.6612,3.6612,3.6612,3.6612,3.6612,3.6612,3.6612,3.6612,3.6612,3.6612,3.6612,3.6612,3.6612,3.67,3.6905,3.7241,3.7578,3.79,3.8207,3.8441,3.8491,3.8491,3.8491,3.8491,3.8491,3.8491,3.8491,3.8491,3.8491,3.8491,3.8491,3.8491,3.8491,3.8789,3.9308,3.9892,4.0445,4.1012,4.1474,4.1731,4.2003,4.2856,4.3314,4.3569,4.4194,4.5054,4.5809,4.6311,4.6861,4.741,4.8007,4.883,4.9686,5.0304,5.089,5.1183,5.1397,5.1397,5.1397,5.1397,5.1397,5.1397,5.1397,5.1397,5.1397,5.1397,5.1397,5.1397,5.1397,5.1397,5.1397,5.1397,5.1455,5.166,5.209,5.2558,5.3125,5.3574,5.3828,5.3965,5.3953,5.3972,5.3972,5.3972,5.3972,3.5615,3.4756,3.471,3.471,3.471,3.4739,3.49,3.5196,3.524,3.5544,3.6085,3.6085,3.6275,3.6539,3.6583,3.6583,3.6597,3.6612,3.6612,3.6612,3.6612,3.6612,3.6612,3.6612,3.6612,3.6612,3.6612,3.6612,3.6612,3.6612,3.6612,3.6612,3.6612,3.6612,3.6612,3.6612,3.6612,3.6612,3.6612,3.6612,3.6612,3.6612,3.6641,3.6773,3.7022,3.7344,3.7665,3.7987,3.8251,3.8441,3.8491,3.8491,3.8491,3.8491,3.8491,3.8491,3.8491,3.8491,3.8491,3.8491,3.8491,3.8491,3.8491,3.8841,3.9256,3.9774,4.0342,4.0857,4.1372,4.1628,4.1952,4.2499,4.3009,4.3483,4.3991,4.4801,4.5658,4.6261,4.6811,4.736,4.7939,4.8731,4.9637,5.0323,5.0714,5.1183,5.1397,5.1397,5.1397,5.1397,5.1397,5.1397,5.1397,5.1397,5.1397,5.1397,5.1397,5.1397,5.1397,5.1397,5.1397,5.1475,5.168,5.1953,5.2422,5.293,5.3476,5.3789,5.3894,5.3972,5.3972,5.3972,5.3972,5.3972,5.3972,3.5615,3.471,3.471,3.471,3.4739,3.4991,3.5137,3.524,3.5602,3.5983,3.6129,3.6363,3.6495,3.6597,3.6612,3.6612,3.6612,3.6612,3.6612,3.6612,3.6612,3.6612,3.6612,3.6612,3.6612,3.6612,3.6612,3.6612,3.6612,3.6612,3.6612,3.6612,3.6612,3.6612,3.6612,3.6612,3.6612,3.6612,3.6612,3.6612,3.6612,3.6612,3.6714,3.6934,3.7212,3.7534,3.7921,3.8192,3.8441,3.85,3.8491,3.8491,3.8491,3.8491,3.8491,3.8491,3.8491,3.8491,3.8491,3.8491,3.8491,3.8491,3.8491,3.8529,3.8945,3.9618,4.0239,4.0703,4.132,4.168,4.1901,4.2294,4.2856,4.3416,4.3941,4.4565,4.5407,4.6211,4.6761,4.736,4.7939,4.8731,4.9637,4.998,5.0421,5.1056,5.1397,5.1397,5.1397,5.1397,5.1397,5.1397,5.1397,5.1397,5.1397,5.1397,5.1397,5.1397,5.1397,5.1416,5.1514,5.168,5.1894,5.2285,5.2793,5.332,5.3848,5.4004,5.3972,5.3972,5.3972,5.3972,5.3972,5.3972,5.3972,3.563,3.4756,3.471,3.4768,3.4929,3.5269,3.546,3.5636,3.5968,3.6173,3.6319,3.6509,3.6612,3.6597,3.6612,3.6612,3.6612,3.6612,3.6612,3.6612,3.6612,3.6612,3.6612,3.6612,3.6612,3.6612,3.6612,3.6612,3.6612,3.6612,3.6612,3.6612,3.6612,3.6612,3.6612,3.6612,3.6612,3.6612,3.6612,3.6612,3.6612,3.6626,3.6817,3.7095,3.7417,3.779,3.8061,3.8382,3.8514,3.8491,3.8491,3.8491,3.8491,3.8491,3.8491,3.8491,3.8491,3.8491,3.8491,3.8491,3.8491,3.8491,3.8543,3.8685,3.91,3.9722,4.0047,4.0394,4.1218,4.1849,4.1936,4.2141,4.2805,4.3416,4.3839,4.4295,4.5155,4.606,4.6761,4.736,4.8038,4.883,4.9391,4.9686,5.0176,5.1007,5.1397,5.1397,5.1397,5.1397,5.1397,5.1397,5.1397,5.1397,5.1397,5.1397,5.1397,5.1397,5.1397,5.1455,5.1621,5.1914,5.2187,5.2676,5.3203,5.3652,5.4004,5.3972,5.3972,5.3972,5.3972,5.3972,5.3972,5.3972,5.3972,3.5615,3.471,3.4724,3.4929,3.5269,3.5592,3.5899,3.6144,3.6173,3.6319,3.6553,3.6597,3.6612,3.6612,3.6612,3.6612,3.6612,3.6612,3.6612,3.6612,3.6612,3.6612,3.6612,3.6612,3.6612,3.6612,3.6612,3.6612,3.6612,3.6612,3.6612,3.6612,3.6612,3.6612,3.6612,3.6612,3.6612,3.6612,3.6612,3.6612,3.6626,3.667,3.6802,3.7153,3.7526,3.7848,3.8104,3.8353,3.8491,3.8491,3.8491,3.8491,3.8491,3.8491,3.8491,3.8491,3.8491,3.8491,3.8491,3.8491,3.8491,3.8491,3.8543,3.8789,3.9256,3.9774,4.0084,4.0548,4.132,4.1747,4.1901,4.2003,4.2447,4.3111,4.367,4.4245,4.5054,4.606,4.6961,4.7541,4.8088,4.883,4.9538,4.9931,5.0274,5.1056,5.1397,5.1397,5.1397,5.1397,5.1397,5.1397,5.1397,5.1397,5.1397,5.1397,5.1397,5.1397,5.1436,5.1641,5.1855,5.2168,5.2569,5.3066,5.3594,5.3789,5.3972,5.3972,5.3972,5.3972,5.3972,5.3972,5.3972,5.3972,5.3972,3.5615,3.4724,3.5006,3.5284,3.5606,3.5866,3.6187,3.648,3.648,3.6524,3.6597,3.6612,3.6612,3.6612,3.6612,3.6612,3.6612,3.6612,3.6612,3.6612,3.6612,3.6612,3.6612,3.6612,3.6612,3.6612,3.6612,3.6612,3.6612,3.6612,3.6612,3.6612,3.6612,3.6612,3.6612,3.6612,3.6612,3.6612,3.6612,3.6626,3.667,3.6905,3.7124,3.7446,3.7804,3.8061,3.8324,3.847,3.8491,3.8491,3.8491,3.8491,3.8491,3.8491,3.8491,3.8491,3.8491,3.8491,3.8491,3.8491,3.8491,3.8543,3.8581,3.8893,3.9308,3.9877,4.0394,4.0857,4.1269,4.1577,4.1849,4.1952,4.2208,4.2907,4.3569,4.4295,4.5003,4.606,4.7161,4.769,4.8187,4.883,4.9587,5.0127,5.0519,5.091,5.1251,5.1397,5.1397,5.1397,5.1397,5.1397,5.1397,5.1397,5.1397,5.1397,5.1397,5.1533,5.166,5.1855,5.2109,5.2617,5.3125,5.3535,5.3965,5.3972,5.3972,5.3972,5.3972,5.3972,5.3972,5.3972,5.3972,5.3972,5.3972,3.563,3.4786,3.5031,3.5401,3.5709,3.5983,3.6305,3.6568,3.6612,3.6612,3.6612,3.6612,3.6612,3.6612,3.6612,3.6612,3.6612,3.6612,3.6612,3.6612,3.6612,3.6612,3.6612,3.6612,3.6612,3.6612,3.6612,3.6612,3.6612,3.6612,3.6612,3.6612,3.6612,3.6612,3.6612,3.6612,3.6612,3.6612,3.6612,3.6685,3.6773,3.7022,3.7256,3.7563,3.79,3.8221,3.8426,3.8491,3.8491,3.8491,3.8491,3.8491,3.8491,3.8491,3.8491,3.8491,3.8491,3.8491,3.8491,3.8543,3.8543,3.8581,3.8841,3.9256,3.9774,4.029,4.0651,4.1063,4.1474,4.1782,4.1952,4.2054,4.2601,4.3212,4.389,4.4549,4.5407,4.6411,4.731,4.8038,4.8434,4.883,4.9489,4.9882,5.0372,5.1056,5.1397,5.1397,5.1397,5.1397,5.1397,5.1397,5.1397,5.1397,5.1397,5.1397,5.1397,5.1601,5.1816,5.2285,5.2656,5.3242,5.375,5.3926,5.4004,5.3972,5.3972,5.3972,5.3972,5.3972,5.3972,5.3972,5.3972,5.3972,5.3972,3.5645,3.4844,3.5137,3.546,3.5782,3.6056,3.6348,3.6583,3.6612,3.6612,3.6612,3.6612,3.6612,3.6612,3.6612,3.6612,3.6612,3.6612,3.6612,3.6612,3.6612,3.6612,3.6612,3.6612,3.6612,3.6612,3.6612,3.6612,3.6612,3.6612,3.6612,3.6612,3.6612,3.6612,3.6612,3.6612,3.6612,3.6641,3.6685,3.6846,3.6992,3.7153,3.7387,3.7665,3.7958,3.8251,3.8456,3.8491,3.8491,3.8491,3.8491,3.8491,3.8491,3.8491,3.8491,3.8491,3.8491,3.8491,3.8543,3.8633,3.8685,3.8789,3.9204,3.9722,4.0239,4.06,4.0909,4.1269,4.1628,4.1833,4.2003,4.2361,4.2907,4.3569,4.4194,4.497,4.5859,4.6711,4.7509,4.8236,4.8533,4.8879,4.9391,4.9833,5.0372,5.1105,5.1397,5.1397,5.1397,5.1397,5.1397,5.1397,5.1397,5.1397,5.1397,5.1397,5.1397,5.1592,5.1914,5.2578,5.3183,5.3594,5.3887,5.3914,5.3972,5.3972,5.3972,5.3972,5.3972,5.3972,5.3972,5.3972,5.3972,5.3972,5.3972,3.5765,3.5137,3.546,3.5782,3.6041,3.6363,3.6553,3.6597,3.6612,3.6612,3.6612,3.6612,3.6612,3.6612,3.6612,3.6612,3.6612,3.6612,3.6612,3.6612,3.6612,3.6612,3.6612,3.6612,3.6612,3.6612,3.6612,3.6612,3.6612,3.6612,3.6612,3.6612,3.6612,3.6612,3.6612,3.6612,3.6612,3.6656,3.6846,3.7022,3.7153,3.7358,3.7665,3.7958,3.828,3.8374,3.8477,3.8491,3.8491,3.8491,3.8491,3.8491,3.8491,3.8491,3.8491,3.8491,3.8491,3.8581,3.8633,3.8945,3.8996,3.9256,3.9722,4.0239,4.0651,4.0857,4.1218,4.1526,4.1798,4.1849,4.2054,4.2464,4.3009,4.3873,4.4599,4.5507,4.6411,4.7011,4.7659,4.8088,4.8434,4.8996,4.9686,5.0078,5.0421,5.1007,5.1397,5.1397,5.1397,5.1397,5.1397,5.1397,5.1397,5.1397,5.1397,5.1397,5.1416,5.168,5.207,5.2793,5.3379,5.3758,5.3972,5.3972,5.3972,5.3972,5.3972,5.3972,5.3972,5.3972,5.3972,5.3972,5.3972,5.3972,5.3972]},{"header":{"parameterUnit":"m.s-1","parameterCategory":1,"la1":31.0,"la2":29.5877,"lo1":-88.7671,"lo2":-86.6584,"dx":0.0162,"dy":0.0185,"nx":115,"ny":88,"refTime":"2022-11-05T06:00:00:Z","depth":0,"parameterNumber":3,"parameterNumberName":"V-component_of_WINDS"},"data":[0.0,0.0,0.0,0.0,0.0,0.0,0.0,0.0,0.0,0.0,0.0,0.0,0.0,0.0,0.0,0.0,0.0,0.0,0.0,0.0,0.0,0.0,0.0,0.0,0.0,0.0,0.0,0.0,0.0,0.0,0.0,0.0,0.0,0.0,0.0,0.0,0.0,0.0,0.0,0.0,0.0,0.0,0.0,0.0,0.0,0.0,0.0,0.0,0.0,0.0,0.0,0.0,0.0,0.0,0.0,0.0,0.0,0.0,0.0,0.0,0.0,0.0,0.0,0.0,0.0,0.0,0.0,0.0,0.0,0.0,0.0,0.0,0.0,0.0,0.0,0.0,0.0,0.0,0.0,0.0,0.0,0.0,0.0,0.0,0.0,0.0,0.0,0.0,0.0,0.0,0.0,0.0,0.0,0.0,0.0,0.0,0.0,0.0,0.0,0.0,0.0,0.0,0.0,0.0,0.0,0.0,0.0,0.0,0.0,0.0,0.0,0.0,0.0,0.0,0.0,0.0,0.0,0.0,0.0,0.0,0.0,0.0,0.0,0.0,0.0,0.0,0.0,0.0,0.0,0.0,0.0,0.0,0.0,0.0,0.0,0.0,0.0,0.0,0.0,0.0,0.0,0.0,0.0,0.0,0.0,0.0,0.0,0.0,0.0,0.0,0.0,0.0,0.0,0.0,0.0,0.0,0.0,0.0,0.0,0.0,0.0,0.0,0.0,0.0,0.0,0.0,0.0,0.0,0.0,0.0,0.0,0.0,0.0,0.0,0.0,0.0,0.0,0.0,0.0,0.0,0.0,0.0,0.0,0.0,0.0,0.0,0.0,0.0,0.0,0.0,0.0,0.0,0.0,0.0,0.0,0.0,0.0,0.0,0.0,0.0,0.0,0.0,0.0,0.0,0.0,0.0,0.0,0.0,0.0,0.0,0.0,0.0,0.0,0.0,0.0,0.0,0.0,0.0,0.0,0.0,0.0,0.0,0.0,0.0,0.0,0.0,0.0,0.0,0.0,0.0,0.0,0.0,0.0,0.0,0.0,0.0,0.0,0.0,0.0,0.0,0.0,0.0,0.0,0.0,0.0,0.0,0.0,0.0,0.0,0.0,0.0,0.0,0.0,0.0,0.0,0.0,0.0,0.0,0.0,0.0,0.0,0.0,0.0,0.0,0.0,0.0,0.0,0.0,0.0,0.0,0.0,0.0,0.0,0.0,0.0,0.0,0.0,0.0,0.0,0.0,0.0,0.0,0.0,0.0,0.0,0.0,0.0,0.0,0.0,0.0,0.0,0.0,0.0,0.0,0.0,0.0,0.0,0.0,0.0,0.0,0.0,0.0,0.0,0.0,0.0,0.0,0.0,0.0,0.0,0.0,0.0,0.0,0.0,0.0,0.0,0.0,0.0,0.0,0.0,0.0,0.0,0.0,0.0,0.0,0.0,0.0,0.0,0.0,0.0,0.0,0.0,0.0,0.0,0.0,0.0,0.0,0.0,0.0,0.0,0.0,0.0,0.0,0.0,0.0,0.0,0.0,0.0,0.0,0.0,0.0,0.0,0.0,0.0,0.0,0.0,0.0,0.0,0.0,0.0,0.0,0.0,0.0,0.0,0.0,0.0,0.0,0.0,0.0,0.0,0.0,0.0,0.0,0.0,0.0,0.0,0.0,0.0,0.0,0.0,0.0,0.0,0.0,0.0,0.0,0.0,0.0,0.0,0.0,0.0,0.0,0.0,0.0,0.0,0.0,0.0,0.0,0.0,0.0,0.0,0.0,0.0,0.0,0.0,0.0,0.0,0.0,0.0,0.0,0.0,0.0,0.0,0.0,0.0,0.0,0.0,0.0,0.0,0.0,0.0,0.0,0.0,0.0,0.0,0.0,0.0,0.0,0.0,0.0,0.0,0.0,0.0,0.0,0.0,0.0,0.0,0.0,0.0,0.0,0.0,0.0,0.0,0.0,0.0,0.0,0.0,0.0,0.0,0.0,0.0,0.0,0.0,0.0,0.0,0.0,0.0,0.0,0.0,0.0,0.0,0.0,0.0,0.0,0.0,0.0,0.0,0.0,0.0,0.0,0.0,0.0,0.0,0.0,0.0,0.0,0.0,0.0,0.0,0.0,0.0,0.0,0.0,0.0,0.0,0.0,0.0,0.0,0.0,0.0,0.0,0.0,0.0,0.0,0.0,0.0,0.0,0.0,0.0,0.0,0.0,0.0,0.0,0.0,0.0,0.0,0.0,0.0,0.0,0.0,0.0,0.0,0.0,0.0,0.0,0.0,0.0,0.0,0.0,0.0,0.0,0.0,0.0,0.0,0.0,0.0,0.0,0.0,0.0,0.0,0.0,0.0,0.0,0.0,0.0,0.0,0.0,0.0,0.0,0.0,0.0,0.0,0.0,0.0,0.0,0.0,0.0,0.0,0.0,0.0,0.0,0.0,0.0,0.0,0.0,0.0,0.0,0.0,0.0,0.0,0.0,0.0,0.0,0.0,0.0,0.0,0.0,0.0,0.0,0.0,0.0,0.0,0.0,0.0,0.0,0.0,0.0,0.0,0.0,0.0,0.0,0.0,0.0,0.0,0.0,0.0,0.0,0.0,0.0,0.0,0.0,0.0,0.0,0.0,0.0,0.0,0.0,0.0,0.0,0.0,0.0,0.0,0.0,0.0,0.0,0.0,0.0,0.0,0.0,0.0,0.0,0.0,0.0,0.0,0.0,0.0,0.0,0.0,0.0,0.0,0.0,0.0,0.0,0.0,0.0,0.0,0.0,0.0,0.0,0.0,0.0,0.0,0.0,0.0,0.0,0.0,0.0,0.0,0.0,0.0,0.0,0.0,0.0,0.0,0.0,0.0,0.0,0.0,0.0,0.0,0.0,0.0,0.0,0.0,0.0,0.0,0.0,0.0,0.0,0.0,0.0,0.0,0.0,0.0,0.0,0.0,0.0,0.0,0.0,0.0,0.0,0.0,0.0,0.0,0.0,0.0,0.0,0.0,0.0,0.0,0.0,0.0,0.0,0.0,0.0,0.0,0.0,0.0,0.0,0.0,0.0,0.0,0.0,0.0,0.0,0.0,0.0,0.0,0.0,0.0,0.0,0.0,0.0,0.0,0.0,0.0,0.0,0.0,0.0,0.0,0.0,0.0,0.0,0.0,0.0,0.0,0.0,0.0,0.0,0.0,0.0,0.0,0.0,0.0,0.0,0.0,0.0,0.0,0.0,0.0,0.0,0.0,0.0,0.0,0.0,0.0,0.0,0.0,0.0,0.0,0.0,0.0,0.0,0.0,0.0,0.0,0.0,0.0,0.0,0.0,0.0,0.0,0.0,0.0,0.0,0.0,0.0,0.0,0.0,0.0,0.0,0.0,0.0,0.0,0.0,0.0,0.0,0.0,0.0,0.0,0.0,0.0,0.0,0.0,0.0,0.0,0.0,0.0,0.0,0.0,0.0,0.0,0.0,0.0,0.0,0.0,0.0,0.0,0.0,0.0,0.0,0.0,0.0,0.0,0.0,0.0,0.0,0.0,0.0,0.0,0.0,0.0,0.0,0.0,0.0,0.0,0.0,0.0,0.0,0.0,0.0,0.0,0.0,0.0,0.0,0.0,0.0,0.0,0.0,0.0,0.0,0.0,0.0,0.0,0.0,0.0,0.0,0.0,0.0,0.0,0.0,0.0,0.0,0.0,0.0,0.0,0.0,0.0,0.0,0.0,0.0,0.0,0.0,0.0,0.0,0.0,0.0,0.0,0.0,0.0,0.0,0.0,0.0,0.0,0.0,0.0,0.0,0.0,0.0,0.0,0.0,0.0,0.0,0.0,0.0,0.0,0.0,0.0,0.0,0.0,0.0,0.0,0.0,0.0,0.0,0.0,0.0,0.0,0.0,0.0,0.0,0.0,0.0,0.0,0.0,0.0,0.0,0.0,0.0,0.0,0.0,0.0,0.0,0.0,0.0,0.0,0.0,0.0,0.0,0.0,0.0,0.0,0.0,0.0,0.0,0.0,0.0,0.0,0.0,0.0,0.0,0.0,0.0,0.0,0.0,0.0,0.0,0.0,0.0,0.0,0.0,0.0,0.0,0.0,0.0,0.0,0.0,0.0,0.0,0.0,0.0,0.0,0.0,0.0,0.0,0.0,0.0,0.0,0.0,0.0,0.0,0.0,0.0,0.0,0.0,0.0,0.0,0.0,0.0,0.0,0.0,0.0,0.0,0.0,0.0,0.0,0.0,0.0,0.0,0.0,0.0,0.0,0.0,0.0,2.6598,0.0,0.0,0.0,2.6691,0.0,0.0,0.0,0.0,0.0,0.0,0.0,0.0,0.0,0.0,0.0,0.0,0.0,0.0,0.0,0.0,0.0,0.0,0.0,0.0,0.0,0.0,0.0,0.0,0.0,0.0,0.0,0.0,0.0,0.0,0.0,0.0,0.0,0.0,0.0,0.0,0.0,0.0,0.0,0.0,0.0,0.0,0.0,0.0,0.0,0.0,0.0,0.0,0.0,0.0,0.0,0.0,0.0,0.0,0.0,0.0,0.0,0.0,0.0,0.0,0.0,0.0,0.0,0.0,0.0,0.0,0.0,0.0,0.0,0.0,0.0,0.0,0.0,0.0,0.0,0.0,0.0,0.0,0.0,0.0,0.0,0.0,0.0,0.0,0.0,0.0,0.0,0.0,0.0,0.0,0.0,0.0,0.0,0.0,0.0,0.0,0.0,0.0,0.0,0.0,0.0,0.0,0.0,0.0,0.0,0.0,0.0,0.0,0.0,0.0,2.7283,2.7291,2.7715,2.7749,2.7291,0.0,0.0,0.0,0.0,0.0,0.0,0.0,0.0,0.0,0.0,0.0,0.0,0.0,0.0,0.0,0.0,0.0,0.0,0.0,0.0,0.0,0.0,0.0,0.0,0.0,0.0,0.0,0.0,0.0,0.0,0.0,0.0,0.0,0.0,0.0,0.0,0.0,0.0,0.0,0.0,0.0,0.0,0.0,0.0,0.0,0.0,0.0,0.0,0.0,0.0,0.0,0.0,0.0,0.0,0.0,0.0,0.0,0.0,0.0,0.0,0.0,0.0,0.0,0.0,0.0,0.0,0.0,0.0,0.0,0.0,0.0,0.0,0.0,0.0,0.0,0.0,0.0,0.0,0.0,0.0,0.0,0.0,0.0,0.0,0.0,0.0,0.0,0.0,0.0,0.0,0.0,0.0,0.0,0.0,0.0,0.0,0.0,0.0,0.0,0.0,0.0,0.0,0.0,0.0,0.0,0.0,0.0,0.0,0.0,0.0,0.0,0.0,2.8662,2.8619,2.7824,0.0,0.0,0.0,0.0,0.0,0.0,0.0,0.0,0.0,0.0,0.0,0.0,0.0,0.0,0.0,0.0,0.0,0.0,0.0,0.0,0.0,0.0,0.0,0.0,0.0,0.0,0.0,0.0,0.0,0.0,0.0,0.0,0.0,0.0,0.0,0.0,0.0,0.0,0.0,0.0,0.0,0.0,0.0,0.0,0.0,0.0,0.0,0.0,0.0,0.0,0.0,0.0,0.0,0.0,0.0,0.0,0.0,0.0,0.0,0.0,0.0,0.0,0.0,0.0,0.0,0.0,0.0,0.0,0.0,0.0,0.0,0.0,0.0,0.0,0.0,0.0,0.0,0.0,0.0,0.0,0.0,0.0,0.0,0.0,0.0,0.0,0.0,0.0,0.0,0.0,0.0,0.0,0.0,0.0,0.0,0.0,0.0,0.0,0.0,0.0,0.0,0.0,0.0,0.0,0.0,0.0,0.0,0.0,0.0,0.0,2.8137,2.8874,2.8976,0.0,2.7858,0.0,0.0,0.0,0.0,0.0,0.0,0.0,0.0,0.0,0.0,0.0,0.0,0.0,0.0,0.0,0.0,0.0,0.0,0.0,0.0,0.0,0.0,0.0,0.0,0.0,0.0,0.0,0.0,0.0,0.0,0.0,0.0,0.0,0.0,0.0,0.0,0.0,0.0,0.0,0.0,0.0,0.0,0.0,0.0,0.0,0.0,0.0,0.0,0.0,0.0,0.0,0.0,0.0,0.0,0.0,0.0,0.0,0.0,0.0,0.0,0.0,0.0,0.0,0.0,0.0,0.0,0.0,0.0,0.0,0.0,0.0,0.0,0.0,0.0,0.0,0.0,0.0,0.0,0.0,0.0,0.0,0.0,0.0,0.0,0.0,0.0,0.0,0.0,0.0,0.0,0.0,0.0,0.0,0.0,0.0,0.0,0.0,0.0,0.0,0.0,0.0,0.0,0.0,0.0,0.0,0.0,0.0,0.0,0.0,0.0,2.9321,2.9634,2.9668,2.949,0.0,0.0,0.0,0.0,0.0,0.0,0.0,0.0,0.0,0.0,0.0,0.0,0.0,0.0,0.0,0.0,0.0,0.0,0.0,0.0,0.0,0.0,0.0,0.0,0.0,0.0,0.0,0.0,0.0,0.0,0.0,0.0,0.0,0.0,0.0,0.0,0.0,0.0,0.0,0.0,0.0,0.0,0.0,0.0,0.0,0.0,0.0,0.0,0.0,0.0,0.0,0.0,0.0,0.0,0.0,0.0,0.0,0.0,0.0,0.0,0.0,0.0,0.0,0.0,0.0,0.0,0.0,0.0,0.0,0.0,0.0,0.0,0.0,0.0,0.0,0.0,0.0,0.0,0.0,0.0,0.0,0.0,0.0,0.0,0.0,0.0,0.0,0.0,0.0,0.0,0.0,0.0,0.0,0.0,0.0,0.0,0.0,0.0,0.0,0.0,0.0,0.0,0.0,0.0,0.0,0.0,0.0,0.0,0.0,0.0,2.9726,3.0606,3.0987,3.0809,3.0615,3.0412,0.0,0.0,0.0,0.0,0.0,0.0,0.0,0.0,0.0,0.0,0.0,0.0,0.0,0.0,0.0,0.0,0.0,0.0,0.0,0.0,0.0,0.0,0.0,0.0,0.0,0.0,0.0,0.0,0.0,0.0,0.0,0.0,0.0,0.0,0.0,0.0,0.0,0.0,0.0,0.0,0.0,0.0,0.0,0.0,0.0,0.0,0.0,0.0,0.0,0.0,0.0,0.0,0.0,0.0,0.0,0.0,0.0,0.0,0.0,0.0,0.0,0.0,0.0,0.0,0.0,0.0,0.0,0.0,0.0,0.0,0.0,0.0,0.0,0.0,0.0,0.0,0.0,0.0,0.0,0.0,0.0,0.0,0.0,0.0,0.0,0.0,0.0,0.0,0.0,0.0,0.0,0.0,0.0,0.0,0.0,0.0,0.0,0.0,0.0,0.0,0.0,0.0,0.0,0.0,0.0,0.0,0.0,0.0,2.9929,3.0751,3.1833,3.3152,3.2554,3.1887,0.0,0.0,0.0,0.0,0.0,0.0,0.0,0.0,0.0,0.0,0.0,0.0,0.0,0.0,0.0,0.0,0.0,0.0,0.0,0.0,0.0,0.0,0.0,0.0,0.0,0.0,0.0,0.0,0.0,0.0,0.0,0.0,0.0,0.0,0.0,0.0,0.0,0.0,0.0,0.0,0.0,0.0,0.0,0.0,0.0,0.0,0.0,0.0,0.0,0.0,0.0,0.0,0.0,0.0,0.0,0.0,0.0,0.0,0.0,0.0,0.0,0.0,0.0,0.0,0.0,0.0,0.0,0.0,0.0,0.0,0.0,0.0,0.0,0.0,0.0,0.0,0.0,0.0,0.0,0.0,0.0,0.0,0.0,0.0,0.0,0.0,0.0,0.0,0.0,0.0,0.0,0.0,0.0,0.0,0.0,0.0,0.0,0.0,0.0,0.0,0.0,0.0,0.0,0.0,0.0,0.0,0.0,0.0,0.0,3.0784,3.2002,3.2848,3.3379,3.3152,3.2655,0.0,0.0,0.0,0.0,0.0,0.0,0.0,0.0,0.0,0.0,0.0,0.0,0.0,0.0,0.0,0.0,0.0,0.0,0.0,0.0,0.0,0.0,0.0,0.0,0.0,0.0,0.0,0.0,0.0,0.0,0.0,0.0,0.0,0.0,0.0,0.0,0.0,0.0,0.0,0.0,0.0,0.0,0.0,0.0,0.0,0.0,0.0,0.0,0.0,0.0,0.0,0.0,0.0,0.0,0.0,0.0,0.0,0.0,0.0,0.0,0.0,0.0,0.0,0.0,0.0,0.0,0.0,0.0,0.0,0.0,0.0,0.0,0.0,0.0,0.0,0.0,0.0,0.0,0.0,0.0,0.0,0.0,0.0,0.0,0.0,0.0,0.0,0.0,0.0,0.0,0.0,0.0,0.0,0.0,0.0,0.0,0.0,0.0,0.0,0.0,0.0,0.0,0.0,0.0,0.0,0.0,0.0,0.0,0.0,3.2249,3.348,3.4134,3.4123,3.4123,3.3761,0.0,0.0,0.0,0.0,0.0,0.0,0.0,0.0,0.0,0.0,0.0,0.0,0.0,0.0,0.0,0.0,0.0,0.0,0.0,0.0,0.0,0.0,0.0,0.0,0.0,0.0,0.0,0.0,0.0,0.0,0.0,0.0,0.0,0.0,0.0,0.0,0.0,0.0,0.0,0.0,0.0,0.0,0.0,0.0,0.0,0.0,0.0,0.0,0.0,0.0,0.0,0.0,0.0,0.0,0.0,0.0,0.0,0.0,0.0,0.0,0.0,0.0,0.0,0.0,0.0,0.0,0.0,0.0,0.0,0.0,0.0,0.0,0.0,0.0,0.0,0.0,0.0,0.0,0.0,0.0,0.0,0.0,0.0,0.0,0.0,0.0,0.0,0.0,0.0,0.0,0.0,0.0,0.0,0.0,0.0,0.0,0.0,0.0,0.0,0.0,0.0,0.0,0.0,0.0,0.0,0.0,0.0,0.0,3.2307,3.4415,3.5205,3.5645,3.5633,3.5577,3.5239,0.0,0.0,0.0,0.0,0.0,0.0,0.0,0.0,0.0,0.0,0.0,0.0,0.0,0.0,0.0,0.0,0.0,0.0,0.0,0.0,0.0,0.0,0.0,0.0,0.0,0.0,0.0,0.0,0.0,0.0,0.0,0.0,0.0,0.0,0.0,0.0,0.0,0.0,0.0,0.0,0.0,0.0,0.0,0.0,0.0,0.0,0.0,0.0,0.0,0.0,0.0,0.0,0.0,0.0,0.0,0.0,0.0,0.0,0.0,0.0,0.0,0.0,0.0,0.0,0.0,0.0,0.0,0.0,0.0,0.0,0.0,0.0,0.0,0.0,0.0,0.0,0.0,0.0,0.0,0.0,0.0,0.0,0.0,0.0,0.0,0.0,0.0,0.0,0.0,0.0,0.0,0.0,0.0,0.0,0.0,0.0,0.0,0.0,0.0,0.0,0.0,0.0,0.0,0.0,0.0,0.0,0.0,0.0,0.0,3.5239,3.6524,3.72,3.7166,3.6671,3.6062,0.0,0.0,0.0,0.0,0.0,0.0,0.0,0.0,0.0,0.0,0.0,0.0,0.0,0.0,0.0,0.0,0.0,0.0,0.0,0.0,0.0,0.0,0.0,0.0,0.0,0.0,0.0,0.0,0.0,0.0,0.0,0.0,0.0,0.0,0.0,0.0,0.0,0.0,0.0,0.0,0.0,0.0,0.0,0.0,0.0,0.0,0.0,0.0,0.0,0.0,0.0,0.0,0.0,0.0,0.0,0.0,0.0,0.0,0.0,0.0,0.0,0.0,0.0,0.0,0.0,0.0,0.0,0.0,0.0,0.0,0.0,0.0,0.0,0.0,0.0,0.0,0.0,0.0,0.0,0.0,0.0,0.0,0.0,0.0,0.0,0.0,0.0,0.0,0.0,0.0,0.0,0.0,0.0,0.0,0.0,0.0,0.0,0.0,0.0,0.0,0.0,0.0,0.0,0.0,0.0,0.0,0.0,0.0,0.0,3.729,3.7944,3.8193,3.791,3.7731,3.7122,3.605,0.0,0.0,0.0,0.0,0.0,0.0,0.0,0.0,0.0,0.0,0.0,0.0,0.0,0.0,0.0,0.0,0.0,0.0,0.0,0.0,0.0,0.0,0.0,0.0,0.0,0.0,0.0,0.0,0.0,0.0,0.0,0.0,0.0,0.0,0.0,0.0,0.0,0.0,0.0,0.0,0.0,0.0,0.0,0.0,0.0,0.0,0.0,0.0,0.0,0.0,0.0,0.0,0.0,0.0,0.0,0.0,0.0,0.0,0.0,0.0,0.0,0.0,0.0,0.0,0.0,0.0,0.0,0.0,0.0,0.0,0.0,0.0,0.0,0.0,0.0,0.0,0.0,0.0,0.0,0.0,0.0,0.0,0.0,0.0,0.0,0.0,0.0,0.0,0.0,0.0,0.0,0.0,0.0,0.0,0.0,0.0,0.0,0.0,0.0,0.0,0.0,0.0,0.0,0.0,0.0,0.0,0.0,0.0,4.0244,3.9546,3.8903,3.8227,3.8768,3.8408,0.0,0.0,0.0,0.0,0.0,0.0,0.0,0.0,0.0,0.0,0.0,0.0,0.0,0.0,0.0,0.0,0.0,0.0,0.0,0.0,0.0,0.0,0.0,0.0,0.0,0.0,0.0,0.0,0.0,0.0,0.0,0.0,0.0,0.0,0.0,0.0,0.0,0.0,0.0,0.0,0.0,0.0,0.0,0.0,0.0,0.0,0.0,0.0,0.0,0.0,0.0,0.0,0.0,0.0,0.0,0.0,0.0,0.0,0.0,0.0,0.0,0.0,0.0,0.0,0.0,0.0,0.0,0.0,0.0,0.0,0.0,0.0,0.0,0.0,0.0,0.0,0.0,0.0,0.0,0.0,0.0,0.0,0.0,0.0,0.0,0.0,0.0,0.0,0.0,0.0,0.0,0.0,0.0,0.0,0.0,0.0,0.0,0.0,0.0,0.0,0.0,0.0,0.0,0.0,0.0,0.0,0.0,0.0,0.0,4.1644,4.1542,4.1352,4.1136,4.0303,3.9639,0.0,0.0,0.0,0.0,0.0,0.0,0.0,0.0,0.0,0.0,0.0,0.0,0.0,0.0,0.0,0.0,0.0,0.0,0.0,0.0,0.0,0.0,0.0,0.0,0.0,0.0,0.0,0.0,0.0,0.0,0.0,0.0,0.0,0.0,0.0,0.0,0.0,0.0,0.0,0.0,0.0,0.0,0.0,0.0,0.0,0.0,0.0,0.0,0.0,0.0,0.0,0.0,0.0,0.0,0.0,0.0,0.0,0.0,0.0,0.0,0.0,0.0,0.0,0.0,0.0,0.0,0.0,0.0,0.0,0.0,0.0,0.0,0.0,0.0,0.0,0.0,0.0,0.0,0.0,0.0,0.0,0.0,0.0,0.0,0.0,0.0,0.0,0.0,0.0,0.0,0.0,0.0,0.0,0.0,0.0,0.0,0.0,0.0,0.0,0.0,0.0,0.0,0.0,0.0,0.0,0.0,0.0,0.0,4.1758,4.3247,4.3281,4.3416,4.3741,4.1961,4.0709,0.0,0.0,0.0,0.0,0.0,0.0,0.0,0.0,0.0,0.0,0.0,0.0,0.0,0.0,0.0,0.0,0.0,0.0,0.0,0.0,0.0,0.0,0.0,0.0,0.0,0.0,0.0,0.0,0.0,0.0,0.0,0.0,0.0,0.0,0.0,0.0,0.0,0.0,0.0,0.0,0.0,0.0,0.0,0.0,0.0,0.0,0.0,0.0,0.0,0.0,0.0,0.0,0.0,0.0,0.0,0.0,0.0,0.0,0.0,0.0,0.0,0.0,0.0,0.0,0.0,0.0,0.0,0.0,0.0,0.0,0.0,0.0,0.0,0.0,0.0,0.0,0.0,0.0,0.0,0.0,0.0,0.0,0.0,0.0,0.0,0.0,0.0,0.0,0.0,0.0,0.0,0.0,0.0,0.0,0.0,0.0,0.0,0.0,0.0,0.0,0.0,0.0,0.0,0.0,0.0,0.0,0.0,0.0,4.3247,4.4682,4.4804,4.5142,4.5737,4.3606,4.1779,0.0,0.0,0.0,0.0,0.0,0.0,0.0,0.0,0.0,0.0,0.0,0.0,0.0,0.0,0.0,0.0,0.0,0.0,0.0,0.0,0.0,0.0,0.0,0.0,0.0,0.0,0.0,0.0,0.0,0.0,0.0,0.0,0.0,0.0,0.0,0.0,0.0,0.0,0.0,0.0,0.0,0.0,0.0,0.0,0.0,0.0,0.0,0.0,0.0,0.0,0.0,0.0,0.0,0.0,0.0,0.0,0.0,0.0,0.0,0.0,0.0,0.0,0.0,0.0,0.0,0.0,0.0,0.0,0.0,0.0,0.0,0.0,0.0,0.0,0.0,0.0,0.0,0.0,0.0,0.0,0.0,0.0,0.0,0.0,0.0,0.0,0.0,0.0,0.0,0.0,0.0,0.0,0.0,0.0,0.0,0.0,0.0,0.0,0.0,0.0,0.0,0.0,0.0,0.0,0.0,0.0,0.0,0.0,4.4533,4.5432,4.6041,4.6394,4.6563,4.4384,4.2746,0.0,0.0,0.0,0.0,0.0,0.0,0.0,0.0,0.0,0.0,0.0,0.0,0.0,0.0,0.0,0.0,0.0,0.0,0.0,0.0,0.0,0.0,0.0,0.0,0.0,0.0,0.0,0.0,0.0,0.0,0.0,0.0,0.0,0.0,0.0,0.0,0.0,0.0,0.0,0.0,0.0,0.0,0.0,0.0,0.0,0.0,0.0,0.0,4.2286,0.0,0.0,0.0,0.0,0.0,0.0,0.0,0.0,0.0,0.0,0.0,0.0,0.0,0.0,0.0,0.0,0.0,0.0,0.0,0.0,0.0,0.0,0.0,0.0,0.0,0.0,0.0,0.0,0.0,0.0,0.0,0.0,0.0,0.0,0.0,0.0,0.0,0.0,0.0,0.0,0.0,0.0,0.0,0.0,0.0,0.0,0.0,0.0,0.0,0.0,0.0,0.0,0.0,0.0,0.0,0.0,0.0,0.0,0.0,4.5277,4.6669,4.6786,4.6955,4.7225,4.5486,4.4133,0.0,0.0,0.0,0.0,0.0,0.0,0.0,0.0,0.0,0.0,0.0,0.0,0.0,0.0,0.0,0.0,0.0,0.0,0.0,0.0,0.0,0.0,0.0,0.0,0.0,0.0,0.0,0.0,0.0,0.0,0.0,0.0,0.0,0.0,0.0,0.0,0.0,0.0,0.0,0.0,0.0,0.0,0.0,0.0,0.0,0.0,0.0,0.0,0.0,0.0,0.0,0.0,0.0,0.0,0.0,0.0,0.0,0.0,0.0,0.0,0.0,0.0,0.0,0.0,0.0,0.0,0.0,0.0,0.0,0.0,0.0,0.0,0.0,0.0,0.0,0.0,0.0,0.0,0.0,0.0,0.0,0.0,0.0,0.0,0.0,0.0,0.0,0.0,0.0,0.0,0.0,0.0,0.0,0.0,0.0,0.0,0.0,0.0,0.0,0.0,0.0,0.0,0.0,0.0,0.0,0.0,0.0,4.4418,4.5887,4.7785,4.7394,4.7428,4.8022,4.6737,4.5669,4.4905,0.0,0.0,0.0,0.0,0.0,0.0,0.0,0.0,0.0,0.0,0.0,0.0,0.0,0.0,0.0,0.0,0.0,0.0,0.0,0.0,0.0,0.0,0.0,0.0,0.0,0.0,0.0,0.0,0.0,0.0,0.0,0.0,0.0,0.0,0.0,0.0,0.0,0.0,3.9208,4.1305,0.0,0.0,0.0,0.0,0.0,0.0,0.0,0.0,4.5751,0.0,0.0,0.0,0.0,0.0,0.0,0.0,0.0,0.0,0.0,0.0,0.0,0.0,0.0,0.0,0.0,0.0,0.0,0.0,0.0,0.0,0.0,0.0,0.0,0.0,0.0,0.0,0.0,0.0,0.0,0.0,0.0,0.0,0.0,0.0,0.0,0.0,0.0,0.0,0.0,0.0,0.0,0.0,0.0,0.0,0.0,0.0,0.0,0.0,0.0,0.0,0.0,0.0,0.0,0.0,0.0,4.3375,4.5399,4.6921,4.7887,4.8376,4.8714,4.8781,4.7988,4.721,4.6394,0.0,0.0,0.0,0.0,0.0,0.0,0.0,0.0,0.0,0.0,0.0,0.0,0.0,0.0,0.0,0.0,0.0,0.0,0.0,0.0,0.0,0.0,0.0,0.0,0.0,0.0,0.0,0.0,0.0,0.0,0.0,0.0,0.0,0.0,0.0,0.0,0.0,0.0,0.0,4.3179,4.4432,0.0,0.0,0.0,0.0,0.0,0.0,0.0,0.0,4.6346,0.0,0.0,0.0,0.0,0.0,0.0,0.0,0.0,0.0,0.0,0.0,0.0,0.0,0.0,0.0,0.0,0.0,0.0,0.0,0.0,0.0,0.0,0.0,0.0,0.0,0.0,0.0,0.0,0.0,0.0,0.0,0.0,0.0,0.0,0.0,0.0,0.0,0.0,0.0,0.0,0.0,0.0,0.0,0.0,0.0,0.0,0.0,0.0,0.0,0.0,0.0,0.0,0.0,0.0,0.0,4.4606,4.6819,4.8308,4.9018,4.9763,4.995,4.956,4.8883,4.797,0.0,0.0,0.0,0.0,0.0,0.0,0.0,0.0,0.0,0.0,0.0,0.0,0.0,0.0,0.0,0.0,0.0,0.0,0.0,0.0,0.0,0.0,0.0,0.0,0.0,0.0,0.0,0.0,0.0,0.0,0.0,0.0,0.0,0.0,0.0,0.0,0.0,0.0,0.0,0.0,4.4465,4.5568,4.6669,0.0,0.0,0.0,0.0,0.0,0.0,4.8443,4.7936,0.0,0.0,0.0,0.0,0.0,0.0,0.0,0.0,0.0,0.0,0.0,0.0,0.0,0.0,0.0,0.0,0.0,0.0,0.0,0.0,0.0,0.0,0.0,0.0,0.0,0.0,0.0,0.0,0.0,0.0,0.0,0.0,0.0,0.0,0.0,0.0,0.0,0.0,0.0,0.0,0.0,0.0,0.0,0.0,0.0,0.0,0.0,0.0,0.0,0.0,0.0,0.0,0.0,0.0,0.0,4.5906,4.797,4.9424,5.027,5.0913,5.093,5.0338,4.9627,4.8612,0.0,0.0,0.0,0.0,0.0,0.0,0.0,0.0,0.0,0.0,0.0,0.0,0.0,0.0,0.0,0.0,0.0,0.0,0.0,0.0,0.0,0.0,0.0,0.0,0.0,0.0,0.0,0.0,0.0,0.0,0.0,0.0,0.0,0.0,0.0,0.0,0.0,0.0,0.0,0.0,0.0,4.6838,4.8157,4.8969,0.0,0.0,0.0,0.0,5.1201,5.0236,0.0,0.0,0.0,0.0,0.0,0.0,0.0,0.0,0.0,0.0,0.0,0.0,0.0,0.0,0.0,0.0,0.0,0.0,0.0,0.0,0.0,0.0,0.0,0.0,0.0,0.0,0.0,0.0,0.0,0.0,0.0,0.0,0.0,0.0,0.0,0.0,0.0,0.0,0.0,0.0,0.0,0.0,0.0,0.0,0.0,0.0,0.0,0.0,0.0,0.0,0.0,0.0,0.0,0.0,0.0,0.0,4.6616,4.8206,4.9679,5.0998,5.1167,5.1167,5.1066,5.0338,4.9593,0.0,0.0,0.0,0.0,0.0,0.0,0.0,0.0,0.0,0.0,0.0,0.0,0.0,0.0,0.0,0.0,0.0,0.0,0.0,0.0,0.0,0.0,0.0,0.0,0.0,0.0,0.0,0.0,0.0,0.0,0.0,0.0,0.0,0.0,0.0,0.0,0.0,0.0,0.0,0.0,0.0,4.8917,4.9729,5.0457,5.0998,0.0,0.0,5.1201,5.1201,5.1032,0.0,0.0,0.0,0.0,0.0,0.0,0.0,0.0,0.0,0.0,0.0,0.0,0.0,0.0,0.0,0.0,0.0,0.0,0.0,0.0,0.0,0.0,0.0,0.0,0.0,0.0,0.0,0.0,0.0,0.0,0.0,0.0,0.0,0.0,0.0,0.0,0.0,0.0,0.0,0.0,0.0,0.0,0.0,0.0,0.0,0.0,0.0,0.0,0.0,0.0,0.0,0.0,0.0,0.0,0.0,4.5196,4.738,4.9273,5.0761,5.1776,5.2249,5.23,5.181,5.1522,5.0608,0.0,0.0,0.0,0.0,0.0,0.0,0.0,0.0,0.0,0.0,0.0,0.0,0.0,0.0,0.0,0.0,0.0,0.0,0.0,0.0,0.0,0.0,0.0,0.0,0.0,0.0,0.0,0.0,0.0,0.0,0.0,0.0,0.0,0.0,0.0,0.0,0.0,0.0,0.0,0.0,0.0,0.0,5.186,5.2672,0.0,0.0,0.0,5.3737,5.3737,0.0,0.0,0.0,0.0,0.0,0.0,0.0,0.0,0.0,0.0,0.0,0.0,0.0,0.0,0.0,0.0,0.0,0.0,0.0,0.0,0.0,0.0,0.0,0.0,0.0,0.0,0.0,0.0,0.0,0.0,0.0,0.0,0.0,0.0,0.0,0.0,0.0,0.0,0.0,0.0,0.0,0.0,0.0,0.0,0.0,0.0,0.0,0.0,0.0,0.0,0.0,0.0,0.0,0.0,0.0,0.0,0.0,4.8428,5.066,5.2114,5.2875,5.3636,5.3687,5.2909,5.2706,0.0,0.0,0.0,0.0,0.0,0.0,0.0,0.0,0.0,0.0,0.0,0.0,0.0,0.0,0.0,0.0,0.0,0.0,0.0,0.0,0.0,0.0,0.0,0.0,0.0,0.0,0.0,3.525,0.0,0.0,0.0,0.0,0.0,0.0,0.0,0.0,0.0,0.0,0.0,0.0,0.0,0.0,5.2385,5.4093,5.4803,5.5412,0.0,0.0,5.624,5.624,5.5649,5.5159,0.0,0.0,0.0,0.0,0.0,0.0,0.0,0.0,0.0,0.0,0.0,0.0,0.0,0.0,0.0,0.0,0.0,0.0,0.0,0.0,0.0,0.0,0.0,0.0,0.0,0.0,0.0,0.0,0.0,0.0,0.0,0.0,0.0,0.0,0.0,0.0,0.0,0.0,0.0,0.0,0.0,0.0,0.0,0.0,0.0,0.0,0.0,0.0,0.0,0.0,0.0,0.0,0.0,0.0,4.7748,4.9947,5.2198,5.3687,5.4431,5.5175,5.5192,5.4482,5.3754,5.2655,0.0,0.0,0.0,0.0,0.0,0.0,0.0,0.0,0.0,0.0,0.0,0.0,0.0,0.0,0.0,0.0,0.0,0.0,0.0,0.0,0.0,0.0,0.0,0.0,0.0,0.0,0.0,0.0,0.0,0.0,0.0,0.0,0.0,0.0,0.0,0.0,0.0,0.0,0.0,0.0,0.0,5.4126,5.6292,5.663,5.69,0.0,5.7746,5.7746,5.7764,5.7137,5.6664,5.6664,0.0,0.0,0.0,0.0,0.0,0.0,0.0,0.0,0.0,0.0,0.0,0.0,0.0,0.0,0.0,0.0,0.0,0.0,0.0,0.0,0.0,0.0,0.0,0.0,0.0,0.0,0.0,0.0,0.0,0.0,0.0,0.0,0.0,0.0,0.0,0.0,0.0,0.0,0.0,0.0,0.0,0.0,0.0,0.0,0.0,0.0,0.0,0.0,0.0,0.0,0.0,0.0,0.0,4.8105,5.0744,5.257,5.4093,5.5225,5.5564,5.5564,5.5277,5.4989,5.416,0.0,0.0,0.0,0.0,0.0,0.0,0.0,0.0,0.0,0.0,0.0,0.0,0.0,0.0,0.0,0.0,0.0,0.0,0.0,0.0,0.0,0.0,0.0,0.0,0.0,0.0,0.0,0.0,4.1428,4.2611,4.3842,0.0,0.0,0.0,0.0,0.0,0.0,0.0,0.0,0.0,0.0,5.6546,5.734,5.8254,0.0,0.0,5.9268,5.9235,5.9268,5.8998,5.8829,5.8829,5.8235,0.0,0.0,0.0,0.0,0.0,0.0,0.0,0.0,0.0,0.0,0.0,0.0,0.0,0.0,0.0,0.0,0.0,0.0,0.0,0.0,0.0,0.0,0.0,0.0,0.0,0.0,0.0,0.0,0.0,0.0,0.0,0.0,0.0,0.0,0.0,0.0,0.0,0.0,0.0,0.0,0.0,0.0,0.0,0.0,0.0,0.0,0.0,0.0,0.0,0.0,0.0,0.0,4.9154,5.1877,5.3382,5.4853,5.6359,5.6578,5.6578,5.6375,5.6341,5.5581,0.0,0.0,0.0,0.0,0.0,0.0,0.0,0.0,0.0,0.0,0.0,0.0,0.0,0.0,0.0,0.0,0.0,0.0,0.0,0.0,0.0,0.0,0.0,0.0,0.0,0.0,0.0,0.0,4.3524,4.4925,4.6196,0.0,0.0,0.0,0.0,0.0,0.0,0.0,0.0,0.0,0.0,5.8693,5.9186,6.0317,6.1197,6.14,6.1467,6.1434,6.1434,6.1264,6.1129,6.1129,0.0,0.0,0.0,0.0,0.0,0.0,0.0,0.0,0.0,0.0,0.0,0.0,0.0,0.0,0.0,0.0,0.0,0.0,0.0,0.0,0.0,0.0,0.0,0.0,0.0,0.0,0.0,3.1559,0.0,0.0,3.3013,0.0,0.0,0.0,0.0,0.0,0.0,0.0,0.0,0.0,0.0,0.0,0.0,0.0,0.0,0.0,0.0,0.0,0.0,0.0,0.0,0.0,0.0,5.115,5.3399,5.4887,5.6375,5.7798,5.854,5.8558,5.7881,5.7866,5.6851,5.4685,0.0,0.0,0.0,0.0,0.0,0.0,0.0,0.0,0.0,0.0,0.0,0.0,0.0,0.0,0.0,0.0,0.0,0.0,0.0,0.0,0.0,0.0,0.0,0.0,0.0,0.0,4.4432,4.5853,4.7056,0.0,0.0,0.0,0.0,0.0,0.0,0.0,0.0,0.0,5.7494,5.9099,6.0622,6.2042,6.2956,6.3666,6.4377,6.4478,6.4478,6.4478,6.3903,6.3443,0.0,0.0,0.0,0.0,0.0,0.0,0.0,0.0,0.0,0.0,0.0,0.0,0.0,0.0,0.0,0.0,0.0,0.0,0.0,0.0,0.0,0.0,0.0,0.0,0.0,0.0,0.0,3.5467,3.5268,0.0,0.0,0.0,0.0,0.0,0.0,0.0,0.0,0.0,0.0,0.0,4.5345,4.6819,0.0,0.0,0.0,0.0,0.0,0.0,0.0,0.0,0.0,0.0,0.0,0.0,5.2435,5.4228,5.6156,5.7645,5.8626,5.937,5.9607,5.937,5.937,5.8321,5.6122,0.0,0.0,0.0,0.0,0.0,0.0,0.0,0.0,0.0,0.0,0.0,0.0,0.0,0.0,0.0,0.0,0.0,0.0,0.0,0.0,0.0,0.0,0.0,0.0,0.0,4.609,0.0,0.0,0.0,0.0,0.0,0.0,0.0,0.0,0.0,0.0,0.0,5.7408,5.9133,6.0675,6.2178,6.3666,6.4478,6.5222,0.0,0.0,0.0,0.0,0.0,0.0,0.0,0.0,0.0,0.0,0.0,0.0,0.0,0.0,6.3193,6.1231,6.0911,6.0878,6.0858,0.0,0.0,0.0,0.0,0.0,0.0,0.0,0.0,0.0,0.0,0.0,0.0,0.0,0.0,3.9209,3.8977,3.8977,0.0,0.0,0.0,0.0,0.0,0.0,0.0,0.0,4.7394,4.8308,4.8376,4.9864,5.0574,0.0,5.0574,4.956,0.0,0.0,0.0,0.0,0.0,0.0,0.0,0.0,5.3957,5.5734,5.7155,5.8524,5.9776,6.0283,6.052,6.052,6.025,5.9167,5.7239,5.5784,5.4093,0.0,0.0,0.0,0.0,0.0,0.0,0.0,0.0,0.0,0.0,0.0,0.0,0.0,0.0,0.0,0.0,0.0,0.0,0.0,0.0,0.0,0.0,0.0,4.912,0.0,0.0,0.0,0.0,0.0,0.0,0.0,0.0,0.0,5.7221,5.8321,5.9708,6.1434,6.2956,6.4377,6.5595,0.0,0.0,0.0,0.0,0.0,0.0,0.0,6.7624,6.7603,6.7624,6.759,6.759,6.7603,6.759,6.7603,0.0,0.0,6.4377,6.3937,6.3937,6.3937,6.3937,6.3863,6.3741,6.4936,6.5939,0.0,0.0,0.0,0.0,0.0,0.0,0.0,0.0,4.3712,4.3315,0.0,4.2686,0.0,0.0,0.0,0.0,4.6853,4.6921,0.0,0.0,5.0592,5.1302,5.1438,5.2875,5.3602,5.3653,5.3619,5.3619,5.345,5.0694,0.0,0.0,0.0,0.0,0.0,0.0,5.5768,5.7832,5.8069,5.9133,6.1231,6.14,6.1434,6.1434,6.0622,5.9539,5.817,5.7967,5.6596,5.3788,5.2841,0.0,0.0,0.0,0.0,0.0,0.0,0.0,0.0,0.0,0.0,0.0,0.0,0.0,0.0,0.0,0.0,0.0,0.0,0.0,0.0,5.0457,0.0,0.0,0.0,0.0,0.0,0.0,0.0,0.0,0.0,0.0,6.0351,6.096,6.2212,6.4377,0.0,0.0,0.0,0.0,6.918,6.9248,6.9248,6.9248,6.9248,6.9282,6.9248,6.9282,0.0,0.0,6.9248,6.9248,6.9282,6.9248,6.9316,6.8774,6.732,6.696,6.6893,6.6927,6.6927,6.6948,6.7028,6.8076,6.9125,4.7686,0.0,0.0,0.0,0.0,4.6726,4.6726,4.6742,4.6742,4.6609,4.6444,4.6444,0.0,0.0,0.0,0.0,0.0,0.0,5.0761,5.2232,5.3179,5.3923,5.4448,5.5412,5.6122,5.6648,5.6648,5.6648,5.6596,5.5784,5.4414,5.257,0.0,0.0,0.0,0.0,5.7543,5.8693,6.0283,6.1419,6.2096,6.3091,6.3666,6.3632,6.2415,6.1554,6.1114,5.9539,5.8051,5.6715,5.5412,0.0,0.0,0.0,0.0,0.0,0.0,0.0,0.0,0.0,0.0,0.0,0.0,0.0,0.0,0.0,0.0,0.0,0.0,0.0,5.2807,5.3839,5.4786,0.0,0.0,0.0,0.0,0.0,0.0,0.0,0.0,0.0,6.4749,6.414,6.4275,0.0,0.0,6.8267,7.0094,7.0534,7.1019,7.2112,7.2225,0.0,7.2225,7.2225,7.2225,7.2225,7.2225,7.2248,7.2225,7.2248,7.2225,7.2214,7.2248,7.2056,7.1616,7.0263,6.9519,6.9857,7.0004,7.0004,7.0072,7.0804,7.1447,5.1395,5.0518,4.9657,4.9293,4.9326,4.9641,4.9723,4.9723,4.9773,4.9723,4.974,4.9825,4.9959,5.0142,5.0373,0.0,0.0,0.0,5.3653,5.4837,5.5886,5.6596,5.7018,5.778,5.8321,5.8761,5.8761,5.8795,5.8761,5.9099,5.8355,5.663,0.0,0.0,5.7052,5.849,5.9607,6.0385,6.1975,6.2956,6.328,6.414,6.4613,6.458,6.3734,6.3125,6.2821,6.1231,5.9877,5.8813,5.7645,5.5987,0.0,0.0,0.0,0.0,0.0,0.0,0.0,0.0,0.0,0.0,0.0,4.6955,4.8409,0.0,0.0,0.0,5.3501,5.4515,5.619,5.6984,0.0,0.0,0.0,0.0,0.0,0.0,0.0,6.3125,6.458,6.6034,6.7489,6.7455,6.7569,6.8482,6.8977,6.9958,7.1921,0.0,7.2496,7.3398,7.35,7.35,7.35,7.35,7.35,7.35,7.35,7.35,7.35,7.35,7.35,7.35,7.35,7.3601,7.3883,7.3037,7.2259,7.2191,7.2157,7.2191,7.2191,7.2969,7.3713,5.4663,5.4564,5.2677,5.1764,5.1647,5.2292,5.2557,5.2575,5.2575,5.2593,5.2628,5.2806,5.3015,5.3206,5.3601,0.0,5.4972,5.5649,5.6341,5.7137,5.854,5.9216,5.9284,6.0013,6.0419,6.0452,6.0452,6.0452,6.052,6.1231,6.1569,6.1516,6.0148,5.9419,5.9419,6.0791,6.1839,6.257,6.3294,6.4052,6.485,6.4918,6.4952,6.4986,6.485,6.4478,6.3781,6.299,6.1873,6.0452,5.9723,5.8337,5.6206,0.0,0.0,0.0,0.0,0.0,0.0,0.0,0.0,0.0,0.0,0.0,0.0,0.0,0.0,5.5699,5.7306,0.0,5.9182,5.9945,0.0,0.0,0.0,6.2671,6.2671,6.3362,6.412,6.4783,0.0,0.0,6.9113,7.0567,7.1515,7.1526,7.1492,7.1988,7.3375,7.3567,7.3601,7.3737,7.3703,7.3703,7.3838,7.3906,7.4041,7.4143,7.3872,7.4041,7.4041,7.4007,7.3906,7.4018,7.3849,7.4119,7.4796,7.5371,7.5473,7.4177,7.394,7.3906,7.4018,7.4931,7.5811,5.6141,5.6709,5.678,5.5625,5.3765,5.3912,5.407,5.425,5.4216,5.4307,5.4452,5.4506,5.4933,5.5683,5.5915,5.6731,5.7965,5.8152,5.8626,5.937,6.0317,6.1061,6.1603,6.2347,6.299,6.3531,6.3531,6.3531,6.3531,6.3734,6.3802,6.3802,6.3463,6.299,6.2463,6.2801,6.3308,6.4072,6.4783,6.5797,6.7083,6.7726,6.803,6.803,6.6914,6.6183,6.598,6.4783,6.3632,6.2733,6.253,6.138,5.9201,5.9066,0.0,0.0,0.0,0.0,0.0,0.0,0.0,0.0,0.0,5.3044,5.4515,0.0,5.5631,0.0,5.9607,6.0791,6.1501,6.2245,0.0,0.0,6.414,6.4905,6.4938,6.6068,6.6914,6.7083,6.8922,7.0376,7.0737,7.2056,7.3172,7.3747,7.3341,7.3308,7.4221,7.4356,7.4559,7.5067,7.5168,7.5168,7.5202,7.5709,7.6217,7.685,7.6893,7.6951,7.6918,7.6951,7.6951,7.6951,7.6951,7.6995,7.7096,7.7333,7.7358,7.7019,7.6951,7.6951,7.6951,7.7222,7.7459,5.793,5.8366,5.8768,5.8098,5.6735,5.6735,5.6811,5.6905,5.6905,5.6961,5.7074,5.7167,5.7532,5.8106,5.8342,5.906,6.0163,6.0578,6.1159,6.1926,6.2576,6.3187,6.3713,6.4002,6.4409,6.4916,6.5222,6.5392,6.5426,6.6072,6.6378,6.6378,6.6718,6.6718,6.6276,6.5426,6.5337,6.6068,6.6938,6.7726,6.854,6.9122,6.9403,6.9403,6.8587,6.8069,6.7964,6.6878,6.5867,6.5019,6.4681,6.3599,6.1738,6.1603,6.096,0.0,0.0,0.0,0.0,0.0,0.0,0.0,0.0,0.0,0.0,0.0,5.8573,6.0805,6.2381,6.3429,6.3822,6.4816,6.5459,6.5459,6.6508,6.7184,6.7218,6.8233,6.9045,6.9383,7.0804,7.2033,7.2676,7.3477,7.4424,7.5473,7.527,7.5134,7.5506,7.5642,7.5879,7.6589,7.6724,7.6724,7.6724,7.7096,7.7536,7.7874,7.801,7.801,7.801,7.801,7.801,7.801,7.801,7.801,7.801,7.828,7.8483,7.8517,7.8754,7.872,7.8145,7.8247,7.8483,5.999,6.0058,6.0197,6.0231,6.0231,6.0231,5.9971,5.9524,5.9563,5.9669,5.9828,6.0069,6.0376,6.0615,6.0853,6.1355,6.2089,6.2943,6.3634,6.4264,6.494,6.5369,6.5582,6.5553,6.5642,6.5909,6.6525,6.6853,6.6867,6.8145,6.876,6.8794,6.9465,6.9841,6.9854,6.8192,6.7608,6.8137,6.9076,6.9591,6.9591,6.994,7.008,7.008,7.0012,6.9838,6.9578,6.8876,6.809,6.718,6.6482,6.5534,6.4153,6.3984,6.3328,0.0,6.1028,0.0,0.0,0.0,0.0,0.0,0.0,0.0,0.0,6.0723,6.1738,6.3883,6.5222,6.6,6.6123,6.7307,6.8098,6.8199,6.891,6.9417,6.9519,7.0161,7.0872,7.1515,7.2225,7.3206,7.4468,7.483,7.5473,7.669,7.6927,7.6961,7.7164,7.7063,7.7198,7.7933,7.801,7.7865,7.801,7.8111,7.8179,7.8247,7.8382,7.8247,7.8348,7.8373,7.8339,7.8339,7.8407,7.8373,7.828,7.8889,7.9397,7.9464,8.0006,8.0006,7.8822,7.8822,7.9228,6.2436,6.3066,6.3874,6.4205,6.4225,6.4225,6.2484,5.9771,5.9909,6.0547,6.148,6.2116,6.2749,6.3348,6.342,6.3849,6.4586,6.4796,6.4952,6.5104,6.6396,6.7025,6.7188,6.8309,6.891,6.8952,6.9089,6.9157,6.9191,6.9431,6.9601,6.9601,6.9738,7.0093,7.0653,0.0,0.0,0.0,7.0213,7.0623,7.0678,7.1246,7.1575,7.1575,7.1016,0.0,7.061,6.9893,6.9331,6.8961,6.877,0.0,0.0,0.0,0.0,0.0,0.0,0.0,0.0,0.0,0.0,0.0,6.4059,6.3835,6.297,6.3937,6.5324,6.688,6.732,6.776,6.8402,6.8707,6.9113,6.9688,7.0432,7.1142,7.1718,7.2394,7.2935,7.3094,7.3747,7.4525,7.5371,7.6048,7.6792,7.7604,7.7773,7.8044,7.8619,7.8145,7.7874,7.8,7.8136,7.8247,7.8788,7.8889,7.9092,7.96,7.9769,7.9769,7.9735,7.9769,7.9769,7.9769,7.9769,7.9803,7.9769,8.0378,8.0818,8.0851,8.146,8.1562,8.0107,7.9904,8.0006,6.4215,6.459,6.5064,6.5294,0.0,6.5294,6.423,6.2508,6.2605,6.3017,6.3585,6.398,6.4337,6.4713,6.4791,6.526,6.598,6.6455,6.6892,6.7304,6.8336,6.885,6.8932,6.9639,6.9982,7.012,7.0463,7.0698,7.087,7.1215,7.1428,7.1519,7.1532,7.1815,7.2467,7.288,7.2352,7.0879,7.1846,7.2331,7.2386,7.3288,7.3796,7.374,7.3323,0.0,0.0,0.0,0.0,0.0,0.0,0.0,0.0,0.0,0.0,6.7201,6.6432,6.5814,6.5352,6.5657,6.5989,6.6203,6.7286,6.7286,6.5797,6.6745,6.7827,6.891,6.935,6.9891,7.0635,7.1041,7.1436,7.1808,7.2157,7.2529,7.2935,7.3578,7.4187,7.4593,7.527,7.6014,7.6724,7.7164,7.7739,7.8416,7.8551,7.8822,7.9431,7.9025,7.8653,7.8991,7.9092,7.9194,7.9566,7.9667,7.9735,8.0141,8.0513,8.0716,8.075,8.1054,8.1291,8.1291,8.1291,8.1291,8.1325,8.1596,8.1832,8.1866,8.2137,8.2179,8.1426,8.1291,8.1291,6.5558,6.5593,6.5911,6.6068,6.6088,6.623,6.6318,6.6318,0.0,0.0,0.0,6.6009,6.6112,6.6147,6.6441,6.6912,6.7517,6.8261,6.8962,6.9618,7.0215,7.056,7.0724,7.0698,7.0767,7.0931,7.1553,7.1981,7.2359,7.2963,7.3427,7.3696,7.3696,7.3927,7.4385,7.5044,7.4455,7.2802,7.3628,7.411,7.4131,7.5101,7.5659,7.5596,7.5504,7.5279,7.5042,7.486,7.4035,7.2616,7.2482,7.1914,7.0695,7.0456,7.0093,6.9478,6.9273,6.8848,6.8135,6.8625,6.8914,6.8824,7.0124,7.0238,6.8605,6.9214,6.9992,7.0725,7.1345,7.1954,7.2529,7.3128,7.3567,7.3646,7.3838,7.394,7.4119,7.4762,7.5506,7.6048,7.6657,7.7367,7.8044,7.8145,7.845,7.9126,7.9295,7.9566,8.0107,7.9769,7.9464,7.9938,8.0141,8.0378,8.0412,8.0581,8.0581,8.0716,8.1122,8.146,8.1596,8.2002,8.2374,8.2246,8.2382,8.2314,8.2348,8.2475,8.2611,8.2611,8.2712,8.2754,8.2754,8.2787,8.2678,6.6524,6.6632,6.8315,6.8972,6.9061,6.9896,7.0288,7.0094,6.7802,6.6942,6.7336,6.869,6.9246,6.9281,7.0014,7.0397,7.0466,7.0645,7.0749,7.0888,7.1578,7.1926,7.198,7.2565,7.2878,7.2919,7.2988,7.3426,7.4058,7.4253,7.4601,7.5178,7.5283,7.5297,7.538,7.5519,7.5408,7.5115,7.5248,7.5338,7.5338,7.5749,7.5861,7.5617,7.5819,7.5798,7.5512,7.5313,7.4995,7.4537,7.4319,7.4052,7.367,7.2964,7.2566,7.2429,7.187,7.146,7.1336,7.1438,7.1724,7.2363,7.3217,7.2902,7.1052,7.1515,7.2225,7.2935,7.3094,7.3206,7.3341,7.3534,7.3883,7.4458,7.5033,7.5642,7.6251,7.6961,7.7435,7.757,7.7739,7.8111,7.8788,7.8957,7.9194,7.9837,8.0006,8.031,8.0818,8.0513,8.0141,8.0276,8.075,8.1114,8.1215,8.1697,8.19,8.2077,8.2137,8.2238,8.2238,8.2441,8.2551,8.2475,8.2551,8.2517,8.2543,8.2949,8.3253,8.3389,8.3761,8.4106,8.4106,8.4106,8.3862,6.8942,6.9184,7.0075,7.0412,7.0431,7.0913,7.115,7.1159,6.9938,6.9412,6.954,7.0256,7.0549,7.0604,7.0952,7.1126,7.1126,7.1489,7.1698,7.1733,7.2444,7.2792,7.2861,7.3612,7.396,7.396,7.4378,7.4823,7.5296,7.5296,7.5532,7.5985,7.6266,7.6391,7.6426,7.6831,7.7125,7.7195,7.6775,7.6565,7.6586,7.7316,7.7685,7.7547,7.748,7.7355,7.723,7.6892,7.6482,7.5959,7.5686,7.5339,7.4872,7.4341,7.4069,7.4069,7.3782,7.3532,7.3401,7.3325,7.3396,7.375,7.4433,7.4719,7.4185,7.3549,7.3446,7.4041,7.4086,7.4458,7.5236,7.5337,7.5642,7.6386,7.6758,7.7063,7.7435,7.7773,7.817,7.8517,7.8585,7.8889,7.9634,7.9701,7.9803,8.0175,8.0513,8.1054,8.1765,8.1629,8.1393,8.1426,8.1697,8.1866,8.19,8.2137,8.2348,8.2382,8.2746,8.2949,8.3016,8.3287,8.3531,8.3625,8.3565,8.3599,8.3565,8.3836,8.4065,8.4133,8.4309,8.458,8.458,8.458,8.4343,7.0933,7.1126,7.134,7.1538,7.1752,7.1811,7.1909,7.2065,7.2104,7.2026,7.1855,7.1676,7.1571,7.161,7.182,7.189,7.196,7.2464,7.2833,7.3078,7.3617,7.3931,7.4176,7.4755,7.5055,7.5125,7.5629,7.6061,7.6415,7.6471,7.6658,7.6976,7.7374,7.7572,7.7607,7.8189,7.8588,7.8685,7.8183,7.7867,7.7826,7.8771,7.9251,7.9191,7.8947,7.8796,7.8657,7.8279,7.7779,7.7178,7.6873,7.6466,7.5911,7.5704,7.5561,7.5595,7.5561,7.5577,7.5529,7.5341,7.5298,7.5469,7.6017,7.6519,7.6895,7.5879,7.5148,7.5411,7.5534,7.5984,7.685,7.7096,7.7367,7.7942,7.817,7.8213,7.8247,7.8348,7.8686,7.9236,7.9363,7.9634,8.0242,8.0445,8.0547,8.0818,8.119,8.1832,8.2475,8.2644,8.2678,8.2847,8.278,8.2678,8.2644,8.2847,8.2956,8.2915,8.3389,8.3693,8.3828,8.4268,8.4512,8.4478,8.4512,8.4478,8.4546,8.4546,8.4546,8.4512,8.4749,8.5012,8.5222,8.5256,8.4952,7.1106,7.1215,7.204,7.2917,7.369,7.3885,7.3963,7.4037,7.421,7.4286,7.4158,7.3335,7.3053,7.3277,7.393,7.4229,7.4229,7.4338,7.4743,7.5343,7.5523,7.5912,7.6404,7.66,7.6655,7.6671,7.6757,7.7196,7.7817,7.7872,7.8211,7.8867,7.8988,7.8948,7.9004,7.9074,7.9165,7.915,7.9316,7.9281,7.9084,7.9391,7.9447,7.9211,7.9442,7.9307,7.8997,7.8657,7.8427,7.8167,7.7932,7.7746,7.7676,7.762,7.762,7.7598,7.7598,7.7824,7.8205,7.8153,7.8224,7.8948,7.8925,7.8901,7.8819,7.8669,7.8424,7.8112,7.8026,7.7871,7.7923,7.7899,7.8,7.8179,7.8653,7.8966,7.9058,7.96,8.004,8.0073,8.0141,8.0378,8.1021,8.119,8.146,8.2002,8.2205,8.2577,8.3253,8.3389,8.3592,8.4005,8.3862,8.3456,8.3456,8.3971,8.4106,8.4275,8.4377,8.4411,8.4411,8.4444,8.4614,8.4817,8.4681,8.4715,8.4749,8.4614,8.4715,8.4986,8.5384,8.5858,8.6467,8.6541,8.6068,7.2709,7.2827,7.3358,7.4135,7.4999,7.5167,7.5433,7.5842,7.5919,7.6016,7.6111,7.5716,7.5269,7.486,7.5584,7.5958,7.5958,7.5958,7.6135,7.6454,7.6454,7.6631,7.6914,7.741,7.7622,7.7658,7.8063,7.8432,7.87,7.8751,7.8892,7.9175,7.9211,7.9211,7.9246,7.9671,7.998,8.0121,8.0683,8.0957,8.0926,8.065,8.0456,8.0392,8.0743,8.0876,8.0673,8.0364,8.0169,8.0042,7.9721,7.947,7.9492,7.9339,7.9273,7.9273,7.9273,7.9368,7.957,7.9515,7.9542,7.9717,7.9729,7.981,7.997,7.9992,8.0022,8.0056,7.9214,7.8623,7.8856,7.8874,7.8995,7.9277,7.9566,7.9735,7.9769,8.0412,8.0851,8.0851,8.1224,8.1596,8.1866,8.1934,8.2272,8.2881,8.3084,8.3355,8.3998,8.4167,8.4275,8.4478,8.4309,8.4174,8.4167,8.4343,8.458,8.458,8.458,8.458,8.4614,8.458,8.4715,8.5215,8.5283,8.552,8.6,8.5933,8.5966,8.6,8.6068,8.6569,8.6846,8.6879,8.6507,7.4392,7.4725,7.4921,7.5433,7.6099,7.6157,7.6496,7.6976,7.705,7.7166,7.7281,7.7494,7.7259,7.6698,7.6947,7.7053,7.7053,7.7053,7.7195,7.7373,7.7408,7.7515,7.7744,7.8276,7.8595,7.8666,7.9108,7.9356,7.9391,7.9391,7.9498,7.9675,7.9711,7.9817,8.0065,8.0653,8.0962,8.1139,8.1693,8.2043,8.2128,8.1898,8.1612,8.145,8.1794,8.1978,8.1896,8.1609,8.1436,8.1373,8.1041,8.0827,8.0797,8.0588,8.0478,8.0412,8.0346,8.0393,8.0603,8.0571,8.0563,8.0614,8.0626,8.0697,8.0916,8.1007,8.1269,8.1617,8.0601,8.0042,7.9839,7.9852,8.0035,8.0504,8.0589,8.0547,8.0818,8.1325,8.1596,8.1629,8.2002,8.2509,8.2712,8.2889,8.3287,8.3693,8.3828,8.393,8.4444,8.458,8.458,8.458,8.458,8.458,8.458,8.458,8.458,8.4681,8.4715,8.5012,8.4986,8.5053,8.529,8.6061,8.6061,8.6163,8.6467,8.671,8.7042,8.7144,8.7211,8.7313,8.7651,8.7516,8.755,7.5818,7.6422,7.6674,7.6772,7.6863,7.7073,7.7185,7.7382,7.7447,7.7525,7.7704,7.831,7.8615,7.8469,7.788,7.7506,7.7506,7.7559,7.7951,7.8522,7.8576,7.9004,7.9754,7.9789,7.977,7.9659,7.9731,7.9857,7.9912,7.9912,8.0253,8.0966,8.0982,8.1323,8.1838,8.1996,8.2108,8.2143,8.225,8.227,8.2362,8.2933,8.2897,8.229,8.2199,8.2206,8.2008,8.1932,8.1845,8.1624,8.1632,8.1528,8.1324,8.1317,8.1225,8.0975,8.0745,8.095,8.1523,8.1484,8.1663,8.2209,8.2313,8.2268,8.2152,8.214,8.2334,8.2776,8.2635,8.2108,8.1215,8.0901,8.0966,8.1477,8.141,8.1579,8.2171,8.2238,8.234,8.2374,8.2509,8.2881,8.3389,8.4065,8.4275,8.4444,8.4512,8.4512,8.4546,8.458,8.4614,8.4681,8.4681,8.4614,8.4614,8.4783,8.4715,8.4952,8.5486,8.5723,8.5993,8.623,8.6569,8.6839,8.6839,8.6873,8.6907,8.7082,8.7414,8.7651,8.7888,8.8091,8.8361,8.8829,8.8795,7.649,7.6992,7.7069,7.7469,7.8067,7.8124,7.8464,7.8927,7.9004,7.9043,7.9079,7.9364,7.9471,7.9435,7.915,7.9043,7.9043,7.9043,7.9221,7.9471,7.9471,7.9614,7.9844,7.988,7.988,7.988,7.988,8.0185,8.072,8.1148,8.1505,8.1719,8.1826,8.1969,8.2255,8.2718,8.2968,8.304,8.3468,8.3753,8.3718,8.4039,8.4003,8.3789,8.3753,8.3713,8.3631,8.3508,8.3383,8.3356,8.3139,8.3033,8.297,8.2948,8.2906,8.2799,8.2641,8.2651,8.2853,8.2677,8.2804,8.3367,8.3448,8.3601,8.3752,8.3668,8.3664,8.3776,8.3677,8.331,8.3061,8.2678,8.2483,8.2386,8.2301,8.2309,8.2459,8.2813,8.3118,8.3186,8.349,8.3937,8.4072,8.4444,8.458,8.458,8.458,8.4614,8.4614,8.4614,8.4783,8.5249,8.5384,8.5554,8.6061,8.5621,8.5486,8.596,8.6366,8.6467,8.667,8.6771,8.7042,8.7516,8.7617,8.7753,8.7854,8.8057,8.8294,8.8361,8.8626,8.866,8.9032,8.91,8.9134,7.7772,7.8044,7.8083,7.8445,7.9079,7.9079,7.94,7.988,7.988,7.9919,8.0012,7.9996,8.0015,8.0073,8.0092,8.0092,8.0073,8.0035,8.0015,8.0092,8.0092,8.0092,8.0128,8.0343,8.0486,8.0541,8.0755,8.1149,8.165,8.2187,8.2544,8.2795,8.2811,8.2954,8.3204,8.3725,8.3976,8.4119,8.4528,8.4778,8.4778,8.4814,8.4773,8.4712,8.4712,8.4671,8.461,8.4465,8.4418,8.4361,8.42,8.4202,8.4351,8.4336,8.44,8.4612,8.4532,8.4444,8.4458,8.4225,8.4236,8.457,8.4549,8.4634,8.4914,8.4761,8.4723,8.4706,8.4665,8.4554,8.4683,8.4569,8.4193,8.3585,8.3288,8.3244,8.3275,8.361,8.3828,8.393,8.4208,8.4512,8.458,8.458,8.458,8.458,8.458,8.4647,8.4918,8.5012,8.5283,8.596,8.6129,8.6501,8.6907,8.6805,8.6332,8.667,8.711,8.7211,8.7313,8.738,8.7617,8.8125,8.8429,8.8632,8.8863,8.9066,8.9134,8.9134,8.9032,8.8965,8.91,8.91,8.9134,7.9649,7.9754,7.988,7.9773,7.9792,7.9773,7.9864,7.9919,7.9899,8.0035,8.0188,8.0207,8.0283,8.0469,8.0541,8.0543,8.056,8.0536,8.0481,8.0577,8.056,8.0596,8.0704,8.135,8.1657,8.1693,8.2486,8.2845,8.2843,8.3022,8.3418,8.3976,8.4009,8.4277,8.5107,8.4996,8.5107,8.5087,8.5103,8.5159,8.5199,8.5231,8.5167,8.5027,8.5063,8.5033,8.4794,8.4696,8.4711,8.4768,8.4711,8.4878,8.5309,8.5245,8.547,8.6023,8.6214,8.6227,8.617,8.5866,8.5662,8.5819,8.5662,8.5505,8.5508,8.5415,8.5437,8.5637,8.5641,8.5727,8.6058,8.6062,8.5696,8.4929,8.4302,8.4317,8.4671,8.4732,8.458,8.4512,8.458,8.458,8.458,8.458,8.4614,8.4715,8.4749,8.5019,8.5621,8.579,8.6095,8.667,8.6941,8.7211,8.7617,8.7922,8.7516,8.7313,8.7719,8.7989,8.8091,8.8192,8.8361,8.8795,8.8761,8.8965,8.8965,8.9134,8.9134,8.9134,8.9134,8.9134,8.9134,8.9134,8.9134,7.9822,7.988,7.988,7.988,7.988,7.988,7.9993,8.0092,8.0092,8.0207,8.0377,8.0396,8.0433,8.0633,8.1047,8.1393,8.1577,8.1989,8.1933,8.1445,8.1354,8.1624,8.2092,8.2416,8.2524,8.2668,8.3332,8.3728,8.3835,8.4231,8.4643,8.4823,8.4859,8.4967,8.5182,8.5218,8.5218,8.5218,8.5218,8.5218,8.5254,8.5758,8.6006,8.5981,8.6468,8.6715,8.6655,8.5882,8.568,8.6109,8.618,8.6281,8.6396,8.6368,8.6468,8.6624,8.6588,8.6502,8.6516,8.6355,8.6405,8.6624,8.663,8.6775,8.7001,8.6849,8.6813,8.6819,8.6589,8.6459,8.6499,8.6394,8.6056,8.5598,8.5395,8.5113,8.5048,8.4826,8.4606,8.458,8.458,8.458,8.4614,8.4614,8.4884,8.5351,8.5418,8.5689,8.6332,8.6569,8.6839,8.7482,8.7651,8.7854,8.826,8.8531,8.8328,8.8057,8.8328,8.8525,8.8694,8.8795,8.9032,8.9134,8.9134,8.9134,8.9134,8.9134,8.9134,8.9134,8.9134,8.9134,8.9134,8.9134,8.9134,7.988,7.988,7.988,7.988,7.9899,7.9957,8.0073,8.0207,8.0283,8.0613,8.0978,8.1052,8.1287,8.1667,8.2155,8.241,8.2629,8.3099,8.3133,8.2787,8.2443,8.266,8.3165,8.3453,8.3778,8.4066,8.4516,8.4768,8.4804,8.5237,8.5453,8.5453,8.5489,8.5453,8.5489,8.547,8.547,8.547,8.5742,8.5866,8.6011,8.666,8.7036,8.7049,8.7425,8.7801,8.7951,8.729,8.6925,8.702,8.6957,8.7036,8.7286,8.7358,8.7465,8.7707,8.7693,8.7607,8.755,8.7483,8.7391,8.7718,8.7712,8.773,8.7923,8.7819,8.7702,8.7477,8.7202,8.6912,8.6716,8.6568,8.6319,8.6068,8.5907,8.566,8.5194,8.4906,8.472,8.4633,8.458,8.4715,8.4979,8.508,8.5384,8.5993,8.6196,8.6467,8.7076,8.7313,8.7753,8.8125,8.8361,8.8632,8.8965,8.9066,8.9066,8.8965,8.8931,8.8965,8.8998,8.8998,8.9134,8.9134,8.9134,8.9134,8.9134,8.9134,8.9134,8.9134,8.9134,8.9134,8.9134,8.9134,8.9134,7.988,7.988,7.988,7.9971,8.0081,8.0254,8.0477,8.0498,8.0685,8.1286,8.1958,8.2067,8.2521,8.3265,8.3391,8.3518,8.3591,8.3754,8.4134,8.4315,8.4025,8.3789,8.3898,8.4441,8.4984,8.5563,8.5726,8.5799,8.5689,8.5761,8.5909,8.5852,8.5852,8.589,8.5852,8.589,8.5997,8.6087,8.6685,8.701,8.7083,8.7807,8.8182,8.8005,8.8149,8.8466,8.8865,8.8799,8.8352,8.7592,8.744,8.7657,8.8043,8.8164,8.8507,8.907,8.9227,8.9134,8.9148,8.8817,8.8721,8.869,8.8548,8.8487,8.8259,8.8144,8.7959,8.7667,8.7501,8.7251,8.6887,8.6691,8.6543,8.6319,8.6043,8.5686,8.5221,8.5158,8.5109,8.4863,8.4749,8.4986,8.5757,8.5858,8.623,8.6738,8.6974,8.7313,8.782,8.8125,8.8395,8.8632,8.8835,8.8965,8.9134,8.9134,8.9134,8.9134,8.9134,8.9134,8.9134,8.9134,8.9134,8.9134,8.9134,8.9134,8.9134,8.9134,8.9134,8.9134,8.9134,8.9134,8.9134,8.9134,8.9134,7.988,7.988,7.988,8.0334,8.0934,8.1083,8.1617,8.2349,8.2406,8.2627,8.3065,8.3102,8.3265,8.3537,8.4153,8.437,8.4479,8.4931,8.533,8.5511,8.5402,8.5293,8.5257,8.5438,8.5656,8.5873,8.5909,8.5909,8.5909,8.5909,8.5909,8.5909,8.5945,8.5945,8.5945,8.6452,8.6687,8.6795,8.7483,8.7882,8.799,8.8698,8.9041,8.9074,8.9524,8.9882,9.0111,9.0006,8.975,8.9363,8.9229,8.9154,8.917,8.9164,8.9207,8.9256,8.932,8.9299,8.9299,8.9255,8.911,8.8921,8.8854,8.8699,8.851,8.8305,8.8167,8.7959,8.7726,8.7477,8.7251,8.6971,8.6617,8.6319,8.6231,8.5891,8.5591,8.5705,8.5807,8.56,8.5926,8.6298,8.6535,8.667,8.6907,8.7482,8.7753,8.7922,8.8429,8.8666,8.8863,8.8931,8.9066,8.9066,8.9134,8.9134,8.9134,8.9134,8.9134,8.9134,8.9134,8.9134,8.9134,8.9134,8.9134,8.9134,8.9134,8.9134,8.9134,8.9134,8.9134,8.9134,8.9134,8.9134,8.9134,8.0399,8.0435,8.072,8.1266,8.189,8.1987,8.2469,8.3113,8.3297,8.3589,8.3917,8.399,8.4171,8.4569,8.5004,8.5185,8.5257,8.5656,8.5873,8.5873,8.5837,8.5837,8.5873,8.5909,8.5909,8.5909,8.5909,8.5909,8.5909,8.5909,8.5909,8.5982,8.6199,8.638,8.6452,8.7085,8.752,8.7628,8.828,8.8678,8.877,8.9495,8.9857,8.9966,9.04,9.0618,9.0598,9.0497,9.0295,9.0048,8.998,8.9938,8.9797,8.9755,8.9649,8.9436,8.9414,8.9393,8.932,8.9299,8.9219,8.911,8.9088,8.8921,8.8779,8.8577,8.8452,8.8167,8.7936,8.7702,8.7512,8.7287,8.729,8.7461,8.7184,8.6791,8.62,8.6563,8.6673,8.6636,8.6718,8.7076,8.7313,8.738,8.7753,8.8226,8.8463,8.8694,8.8965,8.9066,8.9134,8.9134,8.9134,8.9134,8.9134,8.9134,8.9134,8.9134,8.9134,8.9134,8.9134,8.9134,8.9134,8.9134,8.9134,8.9134,8.9134,8.9134,8.9134,8.9134,8.9134,8.9134,8.9134,8.9134,8.9134,8.122,8.1255,8.1953,8.2414,8.2773,8.2967,8.3305,8.353,8.3807,8.4243,8.4733,8.4823,8.5112,8.5909,8.5692,8.5873,8.5873,8.5873,8.5873,8.5909,8.5909,8.5909,8.5909,8.5909,8.5909,8.5909,8.5909,8.5909,8.5909,8.5909,8.5982,8.6199,8.6687,8.7013,8.7266,8.7918,8.828,8.8461,8.9133,8.9495,8.9603,9.011,9.04,9.0473,9.0509,9.0618,9.0618,9.0578,9.0437,9.0105,9.0063,9.0048,9.0027,9.0042,8.9917,8.9713,8.9649,8.9564,8.9407,8.9385,8.9342,8.9299,8.9277,8.9305,8.9178,8.9103,8.9031,8.8949,8.8506,8.8393,8.8038,8.7938,8.8187,8.8547,8.8655,8.8226,8.765,8.763,8.7724,8.7497,8.7233,8.7537,8.7854,8.8158,8.8361,8.8632,8.8863,8.8931,8.9066,8.91,8.9134,8.9134,8.9134,8.9134,8.9134,8.9134,8.9134,8.9134,8.9134,8.9134,8.9134,8.9134,8.9134,8.9134,8.9134,8.9134,8.9134,8.9134,8.9134,8.9134,8.9134,8.9134,8.9134,8.9134,8.9134,8.1969,8.1989,8.2326,8.3024,8.3722,8.4026,8.4505,8.5273,8.5311,8.5366,8.5583,8.5619,8.5728,8.5909,8.5909,8.5909,8.5909,8.5909,8.5909,8.5909,8.5909,8.5909,8.5909,8.5909,8.5909,8.5909,8.5909,8.5909,8.5909,8.6018,8.6199,8.6759,8.7049,8.7339,8.799,8.8734,8.9133,8.9277,8.9893,9.0255,9.0255,9.0436,9.0618,9.0618,9.0618,9.0618,9.0618,9.0618,9.0578,9.0497,9.0457,9.0376,9.0254,9.0233,9.011,9.0001,8.9881,8.9797,8.9586,8.9593,8.9493,8.9485,8.9534,8.9548,9.0147,8.9948,9.012,9.0343,9.0244,8.9683,8.931,8.9144,8.915,8.9237,8.9363,8.9398,8.9131,8.899,8.8696,8.8395,8.8551,8.8916,8.8857,8.8795,8.8931,8.91,8.9134,8.9134,8.9134,8.9134,8.9134,8.9134,8.9134,8.9134,8.9134,8.9134,8.9134,8.9134,8.9134,8.9134,8.9134,8.9134,8.9134,8.9134,8.9134,8.9134,8.9134,8.9134,8.9134,8.9134,8.9134,8.9134,8.9134,8.9134,8.9134,8.2754,8.2846,8.3423,8.4051,8.4591,8.484,8.5285,8.5818,8.5909,8.5909,8.5909,8.5909,8.5909,8.5909,8.5909,8.5909,8.5909,8.5909,8.5909,8.5909,8.5909,8.5909,8.5909,8.5909,8.5909,8.5909,8.5909,8.6054,8.6308,8.6489,8.6832,8.7556,8.7882,8.8372,8.8807,8.9531,8.9929,9.0002,9.0328,9.0618,9.0618,9.0618,9.0618,9.0618,9.0618,9.0618,9.0618,9.0618,9.0618,9.0618,9.0618,9.0541,9.0441,9.0437,9.0335,9.0172,9.011,9.0258,9.027,9.0244,9.0316,9.0508,9.0457,9.0605,9.0904,9.0864,9.0931,9.1128,9.0914,9.0587,9.0496,9.0273,9.0105,9.0281,9.0347,9.0383,9.0226,8.9963,8.9644,8.9308,8.9328,8.9249,8.9246,8.9162,8.9134,8.9134,8.9134,8.9134,8.9134,8.9134,8.9134,8.9134,8.9134,8.9134,8.9134,8.9134,8.9134,8.9134,8.9134,8.9134,8.9134,8.9134,8.9134,8.9134,8.9134,8.9134,8.9134,8.9134,8.9134,8.9134,8.9134,8.9134,8.9134,8.9134,8.9134,8.3595,8.3692,8.4573,8.506,8.5277,8.5456,8.5648,8.5854,8.5909,8.5909,8.5909,8.5909,8.5909,8.5909,8.5909,8.5909,8.5909,8.5909,8.5909,8.5909,8.5909,8.6018,8.6126,8.6199,8.6308,8.6199,8.6199,8.6525,8.7032,8.723,8.7592,8.8353,8.8988,8.9314,8.9676,9.0183,9.0509,9.0509,9.0545,9.0618,9.0618,9.0618,9.0618,9.0618,9.0618,9.0618,9.0618,9.0618,9.0618,9.0618,9.0726,9.0762,9.0762,9.0762,9.0738,9.0608,9.0769,9.1099,9.1344,9.1261,9.1384,9.2014,9.1745,9.172,9.1733,9.1796,9.1849,9.1752,9.1655,9.1482,9.151,9.1249,9.1316,9.1474,9.1437,9.1187,9.0891,9.0601,9.0265,8.9949,8.9703,8.9517,8.9301,8.9134,8.9134,8.9134,8.9134,8.9134,8.9134,8.9134,8.9134,8.9134,8.9134,8.9134,8.9134,8.9134,8.9134,8.9134,8.9134,8.9134,8.9134,8.9134,8.9134,8.9134,8.9134,8.9134,8.9134,8.9134,8.9134,8.9134,8.9134,8.9134,8.9134,8.9134,8.9168,8.4498,8.47,8.5008,8.5242,8.5456,8.5704,8.5835,8.5909,8.5909,8.5909,8.5909,8.5909,8.5909,8.5909,8.5909,8.5909,8.5909,8.5909,8.5909,8.5909,8.5982,8.6199,8.6614,8.6795,8.7177,8.7483,8.7302,8.7339,8.7846,8.8063,8.8425,8.906,8.9386,8.9712,9.0219,9.0545,9.0618,9.0618,9.0618,9.0618,9.0618,9.0618,9.0618,9.0618,9.0618,9.0618,9.0618,9.0618,9.0618,9.0654,9.1269,9.1523,9.1632,9.1632,9.1648,9.1643,9.2021,9.228,9.2418,9.2391,9.2194,9.2065,9.207,9.2246,9.2492,9.2603,9.2772,9.3064,9.2906,9.2707,9.2632,9.2112,9.192,9.1929,9.1599,9.1291,9.1161,9.0865,9.0494,9.0126,8.9935,8.9683,8.9379,8.9156,8.9134,8.9134,8.9134,8.9134,8.9134,8.9134,8.9134,8.9134,8.9134,8.9134,8.9134,8.9134,8.9134,8.9134,8.9134,8.9134,8.9134,8.9134,8.9134,8.9134,8.9134,8.9134,8.9134,8.9134,8.9134,8.9134,8.9134,8.9134,8.9303,8.941,8.9376,8.4733,8.492,8.5119,8.5336,8.555,8.5778,8.5909,8.5909,8.5909,8.5909,8.5909,8.5909,8.5909,8.5909,8.5909,8.5909,8.5909,8.5909,8.5909,8.5945,8.6308,8.6597,8.7121,8.7411,8.8063,8.8517,8.8444,8.8408,8.8807,8.8843,8.9241,8.9821,9.0038,9.0255,9.0509,9.0581,9.0618,9.0618,9.0618,9.0618,9.0618,9.0618,9.0618,9.0618,9.0618,9.0618,9.0618,9.0618,9.0835,9.1197,9.1595,9.1994,9.2428,9.2754,9.2843,9.261,9.2827,9.322,9.3365,9.341,9.3343,9.3568,9.3293,9.3273,9.3462,9.3515,9.3544,9.3646,9.3614,9.3274,9.2916,9.266,9.2438,9.208,9.1727,9.1446,9.1265,9.097,9.0627,9.0261,9.0044,8.9799,8.9434,8.924,8.9128,8.9134,8.9134,8.9134,8.9134,8.9134,8.9134,8.9134,8.9134,8.9134,8.9134,8.9134,8.9134,8.9134,8.9134,8.9134,8.9134,8.9134,8.9134,8.9134,8.9134,8.9134,8.9134,8.9134,8.9134,8.9134,8.9168,8.9269,8.9545,8.9715,8.9782,8.4753,8.498,8.5139,8.532,8.5608,8.5797,8.5909,8.5909,8.5909,8.5909,8.5909,8.5909,8.5909,8.5909,8.5909,8.5909,8.5909,8.6018,8.6199,8.6344,8.6904,8.7302,8.7665,8.8099,8.8843,8.9531,8.9603,8.9659,8.964,8.964,9.0038,9.0328,9.0581,9.0618,9.0618,9.0618,9.0618,9.0618,9.0618,9.0618,9.0618,9.0618,9.0618,9.0618,9.0618,9.0618,9.0618,9.0871,9.1197,9.1704,9.2175,9.261,9.3241,9.4001,9.4131,9.3624,9.3479,9.3877,9.4162,9.431,9.44,9.459,9.4501,9.4396,9.4182,9.3953,9.3878,9.3742,9.3603,9.3439,9.306,9.2927,9.266,9.229,9.1939,9.1599,9.1368,9.1109,9.076,9.0475,9.018,8.9854,8.9517,8.924,8.91,8.9134,8.9134,8.9134,8.9134,8.9134,8.9134,8.9134,8.9134,8.9134,8.9134,8.9134,8.9134,8.9134,8.9134,8.9134,8.9134,8.9134,8.9134,8.9134,8.9134,8.9134,8.9134,8.9134,8.9134,8.9168,8.9207,8.9444,8.9816,9.0256,9.0493,8.4834,8.5179,8.5199,8.5434,8.5816,8.5909,8.5909,8.5909,8.5909,8.5909,8.5909,8.5909,8.5909,8.5909,8.5909,8.5909,8.6126,8.6489,8.6795,8.6977,8.7665,8.8372,8.8951,8.9169,8.964,9.0183,9.0328,9.0473,9.0328,9.0328,9.0436,9.0581,9.0618,9.0618,9.0618,9.0618,9.0618,9.0618,9.0618,9.0618,9.0618,9.0618,9.0618,9.0618,9.0618,9.0618,9.0726,9.1125,9.1704,9.1958,9.3189,9.3877,9.4182,9.4819,9.5145,9.5166,9.5166,9.5145,9.5145,9.5067,9.4997,9.5008,9.4784,9.4543,9.4343,9.4118,9.3995,9.3959,9.3788,9.351,9.3203,9.3012,9.2746,9.2403,9.2005,9.1778,9.1548,9.1213,9.0899,9.0601,9.0341,8.9963,8.9606,8.9357,8.9134,8.9134,8.9134,8.9134,8.9134,8.9134,8.9134,8.9134,8.9134,8.9134,8.9134,8.9134,8.9134,8.9134,8.9134,8.9134,8.9134,8.9134,8.9134,8.9134,8.9134,8.9134,8.9134,8.9134,8.9134,8.9303,8.9545,8.985,9.0121,9.0594,9.1203,8.494,8.5218,8.5336,8.5569,8.589,8.5909,8.5909,8.5909,8.5909,8.5909,8.5909,8.5909,8.5909,8.5909,8.5909,8.6163,8.6525,8.6904,8.7302,8.7809,8.8461,8.906,8.9386,8.9821,9.0364,9.0473,9.0618,9.0545,9.0618,9.0618,9.0618,9.0618,9.0618,9.0618,9.0618,9.0618,9.0618,9.0618,9.0618,9.0618,9.0618,9.0618,9.0618,9.0618,9.0618,9.0618,9.0835,9.1378,9.2066,9.2537,9.366,9.442,9.4783,9.5181,9.5383,9.5383,9.5383,9.5362,9.5362,9.5419,9.5335,9.5193,9.4979,9.4719,9.4388,9.4141,9.4018,9.3995,9.3868,9.3637,9.331,9.3155,9.2867,9.2526,9.213,9.1879,9.1651,9.1343,9.1031,9.0768,9.0475,9.0126,8.9744,8.9379,8.9156,8.9134,8.9134,8.9134,8.9134,8.9134,8.9134,8.9134,8.9134,8.9134,8.9134,8.9134,8.9134,8.9134,8.9134,8.9134,8.9134,8.9134,8.9134,8.9134,8.9134,8.9134,8.9134,8.9201,8.9303,8.9613,8.9985,9.0459,9.0932,9.1474,9.1947,8.508,8.5218,8.5434,8.5646,8.5873,8.5909,8.5909,8.5909,8.5909,8.5909,8.5909,8.5909,8.5909,8.5982,8.6126,8.6506,8.6977,8.7411,8.7918,8.8606,8.9241,8.964,8.9929,9.0328,9.0545,9.0618,9.0618,9.0618,9.0618,9.0618,9.0618,9.0618,9.0618,9.0618,9.0618,9.0618,9.0618,9.0618,9.0618,9.0618,9.0618,9.0618,9.0618,9.0618,9.0618,9.069,9.098,9.1704,9.2501,9.3298,9.4094,9.4855,9.5274,9.5347,9.5419,9.5419,9.5419,9.5419,9.5419,9.5419,9.5419,9.5335,9.5129,9.4784,9.4352,9.4141,9.4005,9.4018,9.3995,9.3707,9.3427,9.3262,9.3012,9.2649,9.228,9.2005,9.1701,9.142,9.1109,9.0786,9.0555,9.0261,8.9908,8.9462,8.924,8.9128,8.9134,8.9134,8.9134,8.9134,8.9134,8.9134,8.9134,8.9134,8.9134,8.9134,8.9134,8.9134,8.9134,8.9134,8.9134,8.9134,8.9134,8.9134,8.9134,8.9134,8.9134,8.9303,8.9512,8.9985,9.0527,9.1276,9.1851,9.2358,9.2658,8.5199,8.5218,8.5417,8.5665,8.5909,8.5909,8.5909,8.5909,8.5909,8.5909,8.5909,8.5909,8.5909,8.609,8.6561,8.694,8.7158,8.8589,8.906,8.9495,9.0074,9.0328,9.0436,9.0509,9.0618,9.0618,9.0618,9.0618,9.0618,9.0618,9.0618,9.0618,9.0618,9.0618,9.0618,9.0618,9.0618,9.0618,9.0618,9.0618,9.0618,9.0618,9.0618,9.0618,9.0654,9.0943,9.1668,9.2392,9.3153,9.3913,9.471,9.5109,9.5383,9.5419,9.5419,9.5419,9.5419,9.5419,9.5419,9.5419,9.5419,9.5335,9.5129,9.4828,9.4432,9.4307,9.4209,9.4028,9.4018,9.3881,9.3603,9.3369,9.3048,9.2795,9.2403,9.2055,9.1778,9.1523,9.1213,9.0865,9.0574,9.0368,9.0071,8.9689,8.9295,8.9156,8.9134,8.9134,8.9134,8.9134,8.9134,8.9134,8.9134,8.9134,8.9134,8.9134,8.9134,8.9134,8.9134,8.9134,8.9134,8.9134,8.9134,8.9134,8.9134,8.9134,8.9269,8.9748,9.0188,9.0493,9.1005,9.1817,9.2455,9.2895,9.3165,8.5218,8.5238,8.5606,8.5797,8.5909,8.5909,8.5909,8.5909,8.5909,8.5909,8.5909,8.5909,8.6163,8.6578,8.6868,8.7611,8.8408,8.8988,8.964,9.0074,9.0473,9.0581,9.0618,9.0618,9.0618,9.0618,9.0618,9.0618,9.0618,9.0618,9.0618,9.0618,9.0618,9.0618,9.0618,9.0618,9.0618,9.0618,9.0618,9.0618,9.0618,9.0618,9.0618,9.0618,9.0618,9.1016,9.1776,9.2553,9.335,9.4203,9.5021,9.5274,9.5419,9.5419,9.5419,9.5419,9.5419,9.5419,9.5419,9.5419,9.5419,9.532,9.5151,9.4871,9.4543,9.4432,9.4231,9.4073,9.4018,9.3904,9.365,9.3357,9.3096,9.2903,9.2562,9.213,9.1803,9.1574,9.1239,9.0865,9.068,9.0494,9.0207,8.9881,8.9524,8.9184,8.9128,8.9134,8.9134,8.9134,8.9134,8.9134,8.9134,8.9134,8.9134,8.9134,8.9134,8.9134,8.9134,8.9134,8.9134,8.9134,8.9134,8.9134,8.9235,8.9404,8.9748,9.0425,9.0831,9.1102,9.1648,9.2392,9.2962,9.3368,9.3499,8.5238,8.5356,8.5721,8.5909,8.5909,8.5909,8.5909,8.5909,8.5909,8.6054,8.6235,8.6271,8.6651,8.723,8.7701,8.8227,8.9169,8.9676,9.0074,9.04,9.0581,9.0618,9.0618,9.0618,9.0618,9.0618,9.0618,9.0618,9.0618,9.0618,9.0618,9.0618,9.0618,9.0618,9.0618,9.0618,9.0618,9.0618,9.0618,9.0618,9.0618,9.0618,9.0618,9.0618,9.0618,9.1233,9.203,9.2827,9.3551,9.4384,9.5072,9.5326,9.5419,9.5419,9.5419,9.5419,9.5419,9.5419,9.5419,9.5419,9.5419,9.5341,9.5257,9.4979,9.4719,9.4521,9.4343,9.4028,9.3995,9.3926,9.3696,9.3427,9.3191,9.2988,9.2684,9.2255,9.1904,9.1599,9.123,9.0891,9.0733,9.0574,9.0091,8.9771,8.9468,8.9156,8.9128,8.9134,8.9134,8.9134,8.9134,8.9134,8.9134,8.9134,8.9134,8.9134,8.9134,8.9134,8.9134,8.9134,8.9134,8.9134,8.9134,8.9168,8.9309,8.9647,9.0222,9.0899,9.1338,9.1643,9.2319,9.2996,9.3165,9.3533,9.3533,8.5336,8.5514,8.5797,8.5909,8.5909,8.5909,8.5909,8.5945,8.5982,8.6289,8.6832,8.694,8.7411,8.8171,8.8734,8.9205,8.9603,9.0183,9.0545,9.0581,9.0618,9.0618,9.0618,9.0618,9.0618,9.0618,9.0618,9.0618,9.0618,9.0618,9.0618,9.0618,9.0618,9.0618,9.0618,9.0618,9.0618,9.0618,9.0618,9.0618,9.0618,9.0618,9.0618,9.0618,9.0762,9.1487,9.2501,9.3044,9.3877,9.4964,9.5217,9.5419,9.5419,9.5419,9.5419,9.5419,9.5419,9.5419,9.5419,9.5419,9.5419,9.5419,9.5335,9.5129,9.4806,9.4631,9.4513,9.4118,9.4041,9.4018,9.3776,9.3521,9.3286,9.3084,9.2722,9.2354,9.198,9.1676,9.1334,9.1022,9.0839,9.0601,9.0037,8.9572,8.9295,8.9128,8.91,8.9134,8.9134,8.9134,8.9134,8.9134,8.9134,8.9134,8.9134,8.9134,8.9134,8.9134,8.9134,8.9134,8.9134,8.9134,8.9134,8.9201,8.9545,8.9985,9.0662,9.1377,9.1913,9.2455,9.2928,9.3465,9.3601,9.3601,9.3601,8.53,8.5514,8.5797,8.5909,8.5909,8.5909,8.5909,8.5982,8.6416,8.6815,8.7085,8.752,8.8244,8.8915,8.9277,8.9676,9.0183,9.0328,9.0618,9.0618,9.0618,9.0618,9.0618,9.0618,9.0618,9.0618,9.0618,9.0618,9.0618,9.0618,9.0618,9.0618,9.0618,9.0618,9.0618,9.0618,9.0618,9.0618,9.0618,9.0618,9.0618,9.0618,9.0618,9.0618,9.1052,9.1885,9.2972,9.337,9.4276,9.5217,9.5398,9.5419,9.5419,9.5419,9.5419,9.5419,9.5419,9.5419,9.5419,9.5419,9.5419,9.5419,9.5377,9.525,9.4936,9.4777,9.4521,9.4254,9.405,9.4005,9.3891,9.3497,9.3215,9.3096,9.2819,9.2403,9.2055,9.1803,9.1523,9.1239,9.1004,9.0548,9.0037,8.9628,8.9295,8.9128,8.91,8.9134,8.9134,8.9134,8.9134,8.9134,8.9134,8.9134,8.9134,8.9134,8.9134,8.9134,8.9134,8.9134,8.9134,8.9134,8.9201,8.9241,8.9782,9.0357,9.1271,9.2116,9.2793,9.3334,9.3533,9.3601,9.3601,9.3601,9.3601,8.5339,8.5646,8.5816,8.5909,8.5909,8.5909,8.6018,8.6344,8.6795,8.7266,8.7846,8.8425,8.906,8.9603,8.9857,8.9966,9.0581,9.0618,9.0618,9.0618,9.0618,9.0618,9.0618,9.0618,9.0618,9.0618,9.0618,9.0618,9.0618,9.0618,9.0618,9.0618,9.0618,9.0618,9.0618,9.0618,9.0618,9.0618,9.0618,9.0618,9.0618,9.0618,9.0618,9.0835,9.1342,9.2175,9.3008,9.3805,9.4565,9.5145,9.5419,9.5419,9.5419,9.5419,9.5419,9.5419,9.5419,9.5419,9.5419,9.5419,9.5419,9.5419,9.5419,9.5257,9.5044,9.4842,9.4565,9.4321,9.4118,9.4005,9.3926,9.3497,9.3286,9.3167,9.2916,9.2502,9.213,9.1879,9.1599,9.1317,9.1004,9.0521,9.0099,8.971,8.9379,8.9212,8.9134,8.9134,8.9134,8.9134,8.9134,8.9134,8.9134,8.9134,8.9134,8.9134,8.9134,8.9134,8.9134,8.9134,8.9134,8.9134,8.9235,8.9478,9.0222,9.1034,9.2015,9.2793,9.3233,9.347,9.3567,9.3601,9.3601,9.3601,9.3601,8.5453,8.589,8.5909,8.5909,8.5909,8.5982,8.638,8.6977,8.7085,8.7974,8.9314,8.9314,8.9785,9.0436,9.0545,9.0545,9.0581,9.0618,9.0618,9.0618,9.0618,9.0618,9.0618,9.0618,9.0618,9.0618,9.0618,9.0618,9.0618,9.0618,9.0618,9.0618,9.0618,9.0618,9.0618,9.0618,9.0618,9.0618,9.0618,9.0618,9.0618,9.0618,9.069,9.1016,9.1632,9.2428,9.3225,9.4022,9.4674,9.5145,9.5419,9.5419,9.5419,9.5419,9.5419,9.5419,9.5419,9.5419,9.5419,9.5419,9.5419,9.5419,9.5419,9.5235,9.5065,9.485,9.4609,9.4388,9.4164,9.405,9.3949,9.366,9.3427,9.325,9.3012,9.2624,9.2205,9.1904,9.1625,9.1343,9.0996,9.0574,9.0126,8.9744,8.9524,8.9212,8.9134,8.9134,8.9134,8.9134,8.9134,8.9134,8.9134,8.9134,8.9134,8.9134,8.9134,8.9134,8.9134,8.9134,8.9134,8.9269,8.9512,8.9985,9.0797,9.1677,9.2624,9.3165,9.3465,9.3601,9.3601,9.3601,9.3601,9.3601,9.3601,8.5453,8.5909,8.5909,8.5909,8.5982,8.647,8.6832,8.7085,8.8118,8.906,8.9422,9.0002,9.0328,9.0581,9.0618,9.0618,9.0618,9.0618,9.0618,9.0618,9.0618,9.0618,9.0618,9.0618,9.0618,9.0618,9.0618,9.0618,9.0618,9.0618,9.0618,9.0618,9.0618,9.0618,9.0618,9.0618,9.0618,9.0618,9.0618,9.0618,9.0618,9.0618,9.0871,9.1414,9.2102,9.2899,9.3712,9.4529,9.5145,9.529,9.5419,9.5419,9.5419,9.5419,9.5419,9.5419,9.5419,9.5419,9.5419,9.5419,9.5419,9.5419,9.5419,9.5362,9.5193,9.4915,9.4653,9.4455,9.4186,9.4028,9.3972,9.3753,9.3497,9.3239,9.3036,9.2781,9.2329,9.1929,9.1651,9.1343,9.0996,9.0574,9.0126,8.9935,8.9689,8.9329,8.9134,8.9134,8.9134,8.9134,8.9134,8.9134,8.9134,8.9134,8.9134,8.9134,8.9134,8.9134,8.9134,8.9168,8.9337,8.9512,8.9884,9.056,9.144,9.2353,9.3267,9.3537,9.3601,9.3601,9.3601,9.3601,9.3601,9.3601,9.3601,8.5489,8.589,8.5909,8.6054,8.6452,8.7158,8.7628,8.8063,8.9024,8.9531,8.9893,9.0364,9.0618,9.0581,9.0618,9.0618,9.0618,9.0618,9.0618,9.0618,9.0618,9.0618,9.0618,9.0618,9.0618,9.0618,9.0618,9.0618,9.0618,9.0618,9.0618,9.0618,9.0618,9.0618,9.0618,9.0618,9.0618,9.0618,9.0618,9.0618,9.0618,9.0654,9.1125,9.1813,9.261,9.3386,9.4203,9.5,9.5326,9.5419,9.5419,9.5419,9.5419,9.5419,9.5419,9.5419,9.5419,9.5419,9.5419,9.5419,9.5419,9.5419,9.5398,9.5299,9.5129,9.4871,9.4777,9.4587,9.4231,9.3995,9.3914,9.3822,9.3521,9.3239,9.3084,9.2867,9.2453,9.2005,9.1651,9.1343,9.0944,9.0521,9.0261,9.0099,8.9826,8.9357,8.9134,8.9134,8.9134,8.9134,8.9134,8.9134,8.9134,8.9134,8.9134,8.9134,8.9134,8.9134,8.9134,8.9235,8.941,8.9918,9.0391,9.1237,9.215,9.2928,9.3537,9.3601,9.3601,9.3601,9.3601,9.3601,9.3601,9.3601,9.3601,8.5453,8.5909,8.5945,8.6452,8.7158,8.7954,8.8715,8.9459,8.9531,8.9893,9.0473,9.0581,9.0618,9.0618,9.0618,9.0618,9.0618,9.0618,9.0618,9.0618,9.0618,9.0618,9.0618,9.0618,9.0618,9.0618,9.0618,9.0618,9.0618,9.0618,9.0618,9.0618,9.0618,9.0618,9.0618,9.0618,9.0618,9.0618,9.0618,9.0618,9.0654,9.0762,9.1088,9.1958,9.2734,9.3531,9.4312,9.4927,9.5419,9.5419,9.5419,9.5419,9.5419,9.5419,9.5419,9.5419,9.5419,9.5419,9.5419,9.5419,9.5419,9.5419,9.5398,9.5257,9.5065,9.485,9.4719,9.4521,9.4186,9.4041,9.3972,9.3926,9.3684,9.338,9.312,9.2891,9.2502,9.2005,9.1548,9.1204,9.0917,9.0521,9.018,8.9963,8.9771,8.9329,8.9134,8.9134,8.9134,8.9134,8.9134,8.9134,8.9134,8.9134,8.9134,8.9134,8.9134,8.9134,8.9201,8.9444,8.9816,9.0357,9.0938,9.1913,9.2827,9.3165,9.3601,9.3601,9.3601,9.3601,9.3601,9.3601,9.3601,9.3601,9.3601,8.5453,8.5945,8.6506,8.7194,8.799,8.877,8.9567,9.0292,9.0292,9.04,9.0581,9.0618,9.0618,9.0618,9.0618,9.0618,9.0618,9.0618,9.0618,9.0618,9.0618,9.0618,9.0618,9.0618,9.0618,9.0618,9.0618,9.0618,9.0618,9.0618,9.0618,9.0618,9.0618,9.0618,9.0618,9.0618,9.0618,9.0618,9.0618,9.0654,9.0762,9.1342,9.1885,9.2682,9.3422,9.4203,9.4855,9.5217,9.5419,9.5419,9.5419,9.5419,9.5419,9.5419,9.5419,9.5419,9.5419,9.5419,9.5419,9.5419,9.5419,9.5398,9.5341,9.5214,9.5044,9.4806,9.4587,9.4388,9.4209,9.4073,9.3995,9.3949,9.3835,9.3474,9.3167,9.2867,9.2526,9.2005,9.1446,9.1126,9.0865,9.0521,9.0153,8.9854,8.9634,8.9413,8.9218,8.9134,8.9134,8.9134,8.9134,8.9134,8.9134,8.9134,8.9134,8.9134,8.9134,8.9371,8.9478,8.9816,9.0256,9.1135,9.2015,9.2725,9.347,9.3601,9.3601,9.3601,9.3601,9.3601,9.3601,9.3601,9.3601,9.3601,9.3601,8.5489,8.5963,8.6706,8.7483,8.8244,8.906,8.9857,9.0509,9.0618,9.0618,9.0618,9.0618,9.0618,9.0618,9.0618,9.0618,9.0618,9.0618,9.0618,9.0618,9.0618,9.0618,9.0618,9.0618,9.0618,9.0618,9.0618,9.0618,9.0618,9.0618,9.0618,9.0618,9.0618,9.0618,9.0618,9.0618,9.0618,9.0618,9.0618,9.0799,9.1016,9.1632,9.2211,9.2972,9.3805,9.4602,9.5109,9.5419,9.5419,9.5419,9.5419,9.5419,9.5419,9.5419,9.5419,9.5419,9.5419,9.5419,9.5419,9.5398,9.5398,9.5341,9.5235,9.5065,9.485,9.4631,9.4477,9.4298,9.4118,9.3982,9.3949,9.3904,9.3614,9.3333,9.306,9.2746,9.2329,9.1828,9.1368,9.0944,9.0733,9.0521,9.0207,8.999,8.9717,8.9329,8.9134,8.9134,8.9134,8.9134,8.9134,8.9134,8.9134,8.9134,8.9134,8.9134,8.9134,8.9376,8.9748,9.056,9.1203,9.2218,9.3098,9.3402,9.3537,9.3601,9.3601,9.3601,9.3601,9.3601,9.3601,9.3601,9.3601,9.3601,9.3601,8.5525,8.6107,8.6832,8.7628,8.8425,8.9241,8.9966,9.0545,9.0618,9.0618,9.0618,9.0618,9.0618,9.0618,9.0618,9.0618,9.0618,9.0618,9.0618,9.0618,9.0618,9.0618,9.0618,9.0618,9.0618,9.0618,9.0618,9.0618,9.0618,9.0618,9.0618,9.0618,9.0618,9.0618,9.0618,9.0618,9.0618,9.069,9.0799,9.1197,9.1559,9.1958,9.2537,9.3225,9.395,9.4674,9.5181,9.5419,9.5419,9.5419,9.5419,9.5419,9.5419,9.5419,9.5419,9.5419,9.5419,9.5419,9.5398,9.532,9.5299,9.5257,9.5087,9.4871,9.4653,9.4499,9.4366,9.4209,9.405,9.3959,9.3926,9.3765,9.3474,9.3167,9.2916,9.2586,9.2105,9.1676,9.1265,9.0839,9.068,9.0494,9.0261,9.0017,8.9717,8.9301,8.9134,8.9134,8.9134,8.9134,8.9134,8.9134,8.9134,8.9134,8.9134,8.9134,8.9134,8.9472,8.9918,9.1068,9.2116,9.2827,9.3334,9.3499,9.3601,9.3601,9.3601,9.3601,9.3601,9.3601,9.3601,9.3601,9.3601,9.3601,9.3601,8.5814,8.6832,8.7628,8.8425,8.9205,9.0002,9.0473,9.0581,9.0618,9.0618,9.0618,9.0618,9.0618,9.0618,9.0618,9.0618,9.0618,9.0618,9.0618,9.0618,9.0618,9.0618,9.0618,9.0618,9.0618,9.0618,9.0618,9.0618,9.0618,9.0618,9.0618,9.0618,9.0618,9.0618,9.0618,9.0618,9.0618,9.0726,9.1197,9.1632,9.1958,9.2465,9.3225,9.395,9.4746,9.513,9.5383,9.5419,9.5419,9.5419,9.5419,9.5419,9.5419,9.5419,9.5419,9.5419,9.5419,9.5341,9.532,9.5193,9.5172,9.5065,9.4871,9.4653,9.4477,9.4388,9.4231,9.4096,9.4018,9.3995,9.3904,9.3719,9.3427,9.3024,9.2722,9.228,9.1828,9.1523,9.1187,9.0917,9.0733,9.0475,9.0099,8.9881,8.9689,8.9357,8.9134,8.9134,8.9134,8.9134,8.9134,8.9134,8.9134,8.9134,8.9134,8.9134,8.9168,8.9512,9.0188,9.144,9.2455,9.3228,9.3601,9.3601,9.3601,9.3601,9.3601,9.3601,9.3601,9.3601,9.3601,9.3601,9.3601,9.3601,9.3601]}]]